.

MPMG - Transparência

Contracheque - Remuneração de todos os servidores ativos - Pós Resolução CNMP 200/2019

Período: 2022 - Abril

Ordem Matrícula Nome Cargo Efetivo Lotação Rendimentos Descontos Rendimento Líquido Total *14 Data de Referência
Remuneração básica Remuneração eventual ou Temporária Outras Remunerações Temporárias *7 Verbas Indenizatórias *8 Total de Rendimentos Brutos *9 Obrigatórios Legais Outros Descontos Eventuais Total de descontos *13
Remuneração do Cargo Efetivo *1 Outras Verbas Remuneratórias *2 Função de Confiança ou Cargo em Comissão *3 Gratificação Natalina *4 Férias 1/3 Constitucional *5 Abono de Permanência *6 Contribuição Previdenciária *10 Imposto de Renda *11 Retenção por Teto Constitucional *12
1 498900 ABDON MARCIO BARBOSA DA SILVA OFICIAL DO MP ABRE CAMPO - COMARCA; ABRE CAMPO-PJ-01PJ 6.694,66 1.338,93 0,00 0,00 0,00 0,00 147,28 3.323,72 11.504,59 1.078,59 938,99 0,00 0,00 2.017,58 9.487,01 30/04/2022
2 177800 ADALBERTO MENEZES FARIA SAMORA OFICIAL DO MP BELO HORIZONTE - COMARCA; DIR ESTRUTURA E PROCESSOS ORGANIZACIONAIS 18.312,36 7.324,94 0,00 0,00 0,00 0,00 470,02 6.844,46 32.951,78 3.895,18 5.005,45 0,00 0,00 8.900,63 24.051,15 30/04/2022
3 306400 ADALBERTO MOREIRA GONCALVES ANALISTA DO MP BELO HORIZONTE - COMARCA; BH-24PJ JUIZO REG BARREIRO-SECRETARIA 19.037,29 5.711,19 0,00 0,00 0,00 0,00 544,47 7.656,64 32.949,59 3.752,97 4.904,41 0,00 0,00 8.657,38 24.292,21 30/04/2022
4 179300 ADENISE AUXILIADORA SOUZA SAD OFICIAL DO MP BARBACENA - COMARCA; BARBACENA-PJ-06PJ 16.695,70 6.678,28 0,00 0,00 0,00 0,00 342,82 5.456,84 29.173,64 3.533,05 4.482,62 0,00 0,00 8.015,67 21.157,97 30/04/2022
5 272200 ADILSON BATISTA ORNELAS OFICIAL DO MP LAVRAS - COMARCA; LAVRAS-PJ-SECRETARIA 6.694,66 2.008,40 0,00 0,00 0,00 0,00 0,00 1.717,00 10.420,06 1.185,70 1.145,78 0,00 0,00 2.331,48 8.088,58 30/04/2022
6 380100 ADILSON GONCALVES DE MELO JUNIOR ANALISTA DO MP ARAXÁ - COMARCA; ARAXA-PJ-05PJ 13.341,69 2.668,34 0,00 0,00 0,00 0,00 0,00 1.717,00 17.727,03 2.354,82 2.781,55 0,00 0,00 5.136,37 12.590,66 30/04/2022
7 148800 ADILSON JANUARIO OFICIAL DO MP BELO HORIZONTE - COMARCA; BH-22PJ PES COM DEF E IDOSOS-SECRETARIA 20.574,59 14.402,22 0,00 0,00 0,00 5.389,50 512,99 7.313,29 48.192,59 5.389,50 8.697,13 0,00 0,00 14.086,63 34.105,96 30/04/2022
8 322601 ADMILSON SILVEIRA ANALISTA DO MP SAO JOAO DO PARAISO COMARCA; SAO JOAO DO PARAISO-PJ-UNPJ 11.008,33 1.100,83 0,00 0,00 0,00 0,00 0,00 2.602,30 14.711,46 1.730,68 1.984,72 0,00 0,00 3.715,40 10.996,06 30/04/2022
9 333700 ADRIANA ABRITTA TEIXEIRA OFICIAL DO MP BELO HORIZONTE - COMARCA; DIRET DE PESSOAL DO MINISTERIO PUBLICO - DPMP 11.008,33 3.302,50 0,00 0,00 0,00 0,00 0,00 1.717,00 16.027,83 2.082,95 2.493,31 0,00 0,00 4.576,26 11.451,57 30/04/2022
10 468500 ADRIANA APARECIDA FIRMINO ANALISTA DO MP CARATINGA - COMARCA; CARATINGA-PJ-04PJ 11.008,33 2.201,67 0,00 0,00 0,00 0,00 0,00 1.717,00 14.927,00 1.906,81 2.186,88 0,00 0,00 4.093,69 10.833,31 30/04/2022
11 326100 ADRIANA AUGUSTA AMARAL BELO OFICIAL DO MP BARBACENA - COMARCA; BARBACENA-PJ-08PJ 11.008,33 3.302,50 0,00 0,00 0,00 0,00 0,00 1.717,00 16.027,83 2.082,95 2.389,03 0,00 0,00 4.471,98 11.555,85 30/04/2022
12 605700 ADRIANA COSTA LIRA ASSESSOR/OFICIAL BELO HORIZONTE - COMARCA; COORD ESTADUAL DE DEFESA DA EDUCACAO 0,00 893,22 8.932,15 0,00 0,00 0,00 0,00 1.717,00 11.542,37 971,47 1.565,46 0,00 0,00 2.536,93 9.005,44 30/04/2022
13 541100 ADRIANA CRISTINA DE OLIVEIRA OFICIAL DO MP GUAPÉ - COMARCA; GUAPE-PJ-UNPJ 6.694,66 669,47 0,00 0,00 0,00 0,00 0,00 2.602,30 9.966,43 971,47 836,48 0,00 0,00 1.807,95 8.158,48 30/04/2022
14 254800 ADRIANA DAS GRACAS FERNANDES ANALISTA DO MP UBERABA - COMARCA; UBERABA-PJ-07PJ 20.574,59 14.402,22 0,00 0,00 0,00 0,00 512,99 7.313,29 42.803,09 5.389,50 7.215,01 0,00 0,00 12.604,51 30.198,58 30/04/2022
15 217400 ADRIANA DE CARVALHO CATAO BRAGA ASSESSOR BELO HORIZONTE - COMARCA; DIV FISCAL ADM CONT TERCEIRIZACAO 0,00 3.572,86 8.932,15 0,00 0,00 0,00 0,00 1.717,00 14.222,01 828,38 2.671,16 0,00 0,00 3.499,54 10.722,47 30/04/2022
16 434600 ADRIANA FERREIRA DA SILVA ANALISTA DO MP BELO HORIZONTE - COMARCA; BH-14PJ DEFESA CONSUMIDOR-GAB 112PJ 14.224,47 2.844,89 0,00 0,00 0,00 0,00 0,00 1.717,00 18.786,36 2.524,31 3.130,53 0,00 0,00 5.654,84 13.131,52 30/04/2022
17 499800 ADRIANA FERREIRA TIAGO OFICIAL DO MP SALINAS - COMARCA; SALINAS-PJ-02PJ 8.377,76 1.675,55 0,00 0,00 0,00 0,00 0,00 1.717,00 11.770,31 1.401,74 1.509,82 0,00 0,00 2.911,56 8.858,75 30/04/2022
18 543400 ADRIANA GUIMARAES NUNES DE PAULA ANALISTA DO MP PATROCÍNIO - COMARCA; PATROCINIO-PJ-01PJ 11.008,33 1.100,83 0,00 0,00 0,00 0,00 0,00 1.717,00 13.826,16 927,17 2.102,11 0,00 0,00 3.029,28 10.796,88 30/04/2022
19 471500 ADRIANA HORTA DE CARVALHO RODRIGUES DE SOUSA ANALISTA DO MP BELO HORIZONTE - COMARCA; GRUPO ESP PROM JUST DEF PROB ADM PAT PUB 11.008,33 2.201,67 0,00 0,00 0,00 0,00 0,00 1.717,00 14.927,00 1.906,81 2.186,88 0,00 0,00 4.093,69 10.833,31 30/04/2022
20 86400 ADRIANA MOREIRA CALDEIRA BRANT OFICIAL DO MP BELO HORIZONTE - COMARCA; BH-21PJ TUTELA FUNDACOES-SECRETARIA 18.312,36 12.818,66 0,00 0,00 0,00 4.774,18 0,00 1.717,00 37.622,20 4.774,18 7.691,67 0,00 0,00 12.465,85 25.156,35 30/04/2022
21 480700 ADRIANA MOREIRA DE AVELLAR CEZILIO OFICIAL DO MP BELO HORIZONTE - COMARCA; BH-12PJ JUIZO CRIMINAL-SECRETARIA 6.694,66 1.338,93 0,00 0,00 0,00 0,00 0,00 1.717,00 9.750,59 1.078,59 938,99 0,00 0,00 2.017,58 7.733,01 30/04/2022
22 326000 ADRIANA PEREIRA CARNEIRO RESENDE OFICIAL DO MP BELO HORIZONTE - COMARCA; BH-25PJ DEFESA DA EDUCACAO-SECRETARIA 11.008,33 3.302,50 0,00 0,00 0,00 0,00 0,00 1.717,00 16.027,83 2.082,95 2.493,31 0,00 0,00 4.576,26 11.451,57 30/04/2022
23 502200 ADRIANA PETRUCCI DAVINA OFICIAL DO MP PATROCÍNIO - COMARCA; PATROCINIO-PJ-01PJ 8.650,50 1.730,10 0,00 0,00 0,00 0,00 0,00 2.602,30 12.982,90 1.454,11 1.585,42 0,00 0,00 3.039,53 9.943,37 30/04/2022
24 201900 ADRIANA REIS PIMENTA OFICIAL DO MP TEÓFILO OTONI - COMARCA; TEOFILO OTONI-PJ-03PJ 16.695,70 6.678,28 0,00 0,00 0,00 0,00 342,82 5.456,84 29.173,64 3.533,05 4.586,90 0,00 0,00 8.119,95 21.053,69 30/04/2022
25 278700 ADRIANA RODRIGUES PINTO COELHO AMARAL ANALISTA DO MP BELO HORIZONTE - COMARCA; CGMP-ASSESSORIA JURIDICA 19.791,01 5.937,30 0,00 0,00 8.576,10 0,00 0,00 1.717,00 36.021,41 3.909,74 7.489,17 0,00 0,00 11.398,91 24.622,50 30/04/2022
26 468000 ADRIANA SANTOS DE SANTANA MOREIRA ANALISTA DO MP GOVERNADOR VALADARES - COMARCA; GAECO REGIONAL DE GOVERNADOR VALADARES 11.008,33 4.403,33 0,00 0,00 0,00 0,00 0,00 1.717,00 17.128,66 2.259,08 2.643,33 0,00 0,00 4.902,41 12.226,25 30/04/2022
27 194700 ADRIANA TSUKIDE OFICIAL DO MP UBERABA - COMARCA; COORD REG BACIAS PARANAIBA BAIXO RIO GRANDE 16.695,70 6.678,28 0,00 0,00 7.791,33 0,00 0,00 1.717,00 32.882,31 3.533,05 6.677,37 0,00 0,00 10.210,42 22.671,89 30/04/2022
28 465500 ADRIANO CASSIANO MATOS ANALISTA DO MP ARAXÁ - COMARCA; ARAXA-PJ-02PJ 11.008,33 2.201,67 0,00 0,00 0,00 0,00 0,00 1.717,00 14.927,00 1.906,81 2.239,02 0,00 0,00 4.145,83 10.781,17 30/04/2022
29 500500 ADRIANO DE ALMEIDA SILVA OFICIAL DO MP UBERABA - COMARCA; UBERABA-PJ-12PJ 8.650,50 1.730,10 0,00 0,00 0,00 0,00 0,00 2.602,30 12.982,90 1.454,11 1.085,47 0,00 0,00 2.539,58 10.443,32 30/04/2022
30 187200 ADRIANO DE FREITAS MARON OFICIAL DO MP PONTE NOVA - COMARCA; PONTE NOVA-PJ-03PJ 14.224,47 12.802,03 0,00 0,00 0,00 4.117,45 495,49 7.122,30 38.761,74 4.117,45 6.562,93 0,00 0,00 10.680,38 28.081,36 30/04/2022
31 477900 ADRIANO FERREIRA DE ALMEIDA OFICIAL DO MP TAIOBEIRAS - COMARCA; TAIOBEIRAS-PJ-UNPJ 8.650,50 1.730,10 0,00 0,00 0,00 0,00 0,00 1.717,00 12.097,60 1.454,11 1.481,15 0,00 0,00 2.935,26 9.162,34 30/04/2022
32 269101 ADRIANO PEREIRA SILVA ANALISTA DO MP UBERABA - COMARCA; UBERABA-PJ-02PJ 11.008,33 2.201,67 0,00 0,00 0,00 0,00 0,00 1.717,00 14.927,00 1.906,81 2.082,60 0,00 0,00 3.989,41 10.937,59 30/04/2022
33 414200 ADRIANO RODRIGUES FERNANDES ANALISTA DO MP CARANDAÍ - COMARCA; CARANDAI-PJ-UNPJ 11.008,33 2.201,67 0,00 0,00 0,00 0,00 0,00 1.717,00 14.927,00 1.906,81 2.134,74 0,00 0,00 4.041,55 10.885,45 30/04/2022
34 536700 ADRIELLE COSTA MARIA MOURAO FIGUEIREDO OFICIAL DO MP SERRO - COMARCA; SERRO-PJ-SECRETARIA 6.694,66 669,47 0,00 0,00 0,00 0,00 0,00 2.602,30 9.966,43 971,47 888,62 0,00 0,00 1.860,09 8.106,34 30/04/2022
35 514300 ADRIENE DAMASCENO BRAGA ANALISTA DO MP ALFENAS - COMARCA; ALFENAS-PJ-03PJ 11.008,33 2.201,67 0,00 0,00 0,00 0,00 0,00 2.602,30 15.812,30 1.906,81 2.239,02 0,00 0,00 4.145,83 11.666,47 30/04/2022
36 254600 ADRIENE DOMINGUES COSTA ANALISTA DO MP BELO HORIZONTE - COMARCA; SUPER DE GESTAO DE PESSOAS-LOTACAO TEMPORARIA 20.574,59 6.172,38 0,00 0,00 0,00 0,00 0,00 0,00 26.746,97 4.072,73 5.366,06 0,00 0,00 9.438,79 17.308,18 30/04/2022
37 252001 ADRIENE GOMES BARRETO ANALISTA DO MP BELO HORIZONTE - COMARCA; BH-19PJ SAUDE-SECRETARIA 047PJ 16.169,47 6.467,79 0,00 0,00 0,00 0,00 332,01 5.338,96 28.308,23 3.415,18 4.416,71 0,00 0,00 7.831,89 20.476,34 30/04/2022
38 714800 ADSON GUSTAVO DE OLIVEIRA ASSESSOR PROCURADOR JUSTICA BELO HORIZONTE - COMARCA; GABINETE DE PROCURADOR DE JUSTIÇA - SALA 803 0,00 0,00 7.857,77 0,00 0,00 0,00 0,00 1.717,00 9.574,77 828,38 1.393,17 0,00 0,00 2.221,55 7.353,22 30/04/2022
39 302500 AGENOR JOSE DA SILVA JUNIOR ANALISTA DO MP JUIZ DE FORA - COMARCA; JUIZ DE FORA-PJ-14PJ 19.037,29 5.711,19 0,00 0,00 0,00 0,00 544,47 7.656,64 32.949,59 3.752,97 4.747,99 0,00 0,00 8.500,96 24.448,63 30/04/2022
40 357500 AILSON WAGNER DE ALENCAR SILVA OFICIAL DO MP BELO HORIZONTE - COMARCA; BH-12PJ JUIZO CRIMINAL-SECRETARIA 12.118,97 4.847,59 0,00 0,00 0,00 0,00 0,00 1.717,00 18.683,56 2.507,86 2.950,37 0,00 0,00 5.458,23 13.225,33 30/04/2022
41 366400 AILTON ALEXSSANDRO ALVES OFICIAL DO MP PARÁ DE MINAS - COMARCA; PARA DE MINAS-PJ-05PJ 10.661,25 4.264,50 0,00 0,00 0,00 0,00 547,28 7.687,30 23.160,33 2.181,33 2.635,35 0,00 0,00 4.816,68 18.343,65 30/04/2022
42 318900 AILTON DE CASTRO RIBEIRO JUNIOR OFICIAL DO MP ITAJUBA - COMARCA; ITAJUBA-PJ-01PJ 11.008,33 3.302,50 0,00 0,00 0,00 0,00 0,00 2.602,30 16.913,13 2.082,95 2.284,76 0,00 0,00 4.367,71 12.545,42 30/04/2022
43 464400 ALAN MONTEIRO GASPAR ANALISTA DO MP SETE LAGOAS - COMARCA; SETE LAGOAS-PJ-08PJ 11.008,33 2.201,67 0,00 0,00 0,00 0,00 0,00 1.717,00 14.927,00 1.906,81 2.239,02 0,00 0,00 4.145,83 10.781,17 30/04/2022
44 492000 ALANA DE CASTRO FREITAS OFICIAL DO MP LAVRAS - COMARCA; LAVRAS-PJ-03PJ 6.694,66 1.338,93 0,00 0,00 0,00 0,00 0,00 1.717,00 9.750,59 1.078,59 1.043,27 0,00 0,00 2.121,86 7.628,73 30/04/2022
45 306700 ALANA MARCIA DE OLIVEIRA OFICIAL DO MP BELO HORIZONTE - COMARCA; DIRETORIA DE ADMINISTRACAO FINANCEIRA 11.008,33 3.302,50 0,00 0,00 0,00 0,00 0,00 1.717,00 16.027,83 2.082,95 2.493,31 0,00 0,00 4.576,26 11.451,57 30/04/2022
46 324500 ALANMAR COUTINHO COSTA OFICIAL DO MP LEOPOLDINA - COMARCA; LEOPOLDINA-PJ-02PJ 11.008,33 3.302,50 0,00 0,00 0,00 0,00 0,00 1.717,00 16.027,83 2.082,95 2.389,03 0,00 0,00 4.471,98 11.555,85 30/04/2022
47 407300 ALBERTO LUIZ SOARES DE OLIVEIRA ANALISTA DO MP BELO HORIZONTE - COMARCA; DIRETORIA DE PROJETOS DE EDIFICACOES 14.224,47 2.844,89 0,00 0,00 0,00 0,00 0,00 1.717,00 18.786,36 2.524,31 3.130,53 0,00 0,00 5.654,84 13.131,52 30/04/2022
48 118200 ALBERTO PEREIRA DA COSTA OFICIAL DO MP DORES DO INDAIÁ - COMARCA; DORES DO INDAIA-PJ-UNPJ 19.037,29 17.133,57 0,00 0,00 0,00 5.467,17 520,12 7.390,96 49.549,11 5.467,17 8.830,61 708,64 0,00 15.006,42 34.542,69 30/04/2022
49 282400 ALCILENE MARISE DE ARAUJO ANALISTA DO MP BELO HORIZONTE - COMARCA; BH-23PJ INF-FISC MED SOC FEC 19.791,01 5.937,30 0,00 0,00 0,00 0,00 471,69 6.862,66 33.062,66 3.909,74 5.078,61 0,00 0,00 8.988,35 24.074,31 30/04/2022
50 112600 ALCIONE DA MOTA JARDIM OFICIAL DO MP BELO HORIZONTE - COMARCA; CAO-CRIANCAS E ADOLESCENTES-SECRETARIA 19.037,29 13.326,11 0,00 0,00 0,00 0,00 0,00 1.717,00 34.080,40 4.971,36 6.611,31 0,00 0,00 11.582,67 22.497,73 30/04/2022
51 396400 ALCIONE DE FREITAS E SILVA ANALISTA DO MP BELO HORIZONTE - COMARCA; ASSESS JUR DO CONS SUPERIOR DO MINISTERIO PUB 16.169,47 6.467,79 0,00 0,00 7.545,75 0,00 332,01 5.338,96 35.853,98 3.415,18 6.491,79 0,00 0,00 9.906,97 25.947,01 30/04/2022
52 657400 ALCIONE MARIA FERREIRA ASSESSOR PROCURADOR JUSTICA BELO HORIZONTE - COMARCA; GABINETE DE PROCURADOR DE JUSTIÇA - SALA 610 0,00 0,00 7.857,77 0,00 0,00 0,00 0,00 2.602,30 10.460,07 828,38 1.393,17 0,00 0,00 2.221,55 8.238,52 30/04/2022
53 161600 ALCIONE NERY SOUZA ASSESSOR BELO HORIZONTE - COMARCA; BH-18PJ DIREITOS HUMANOS-SECRETARIA 0,00 4.466,08 8.932,15 0,00 0,00 0,00 0,00 1.717,00 15.115,23 828,38 2.916,80 0,00 0,00 3.745,18 11.370,05 30/04/2022
54 376000 ALDA GOMES LANA OFICIAL DO MP BELO HORIZONTE - COMARCA; BH-18PJ VIOLENCIA DOMESTICA-SECRETARIA 9.999,62 1.999,92 0,00 0,00 0,00 0,00 0,00 1.717,00 13.716,54 1.713,14 1.907,26 0,00 0,00 3.620,40 10.096,14 30/04/2022
55 148000 ALDA MARTINS SIMOES OFICIAL DO MP BELO HORIZONTE - COMARCA; BH-23PJ CIVEL- FISC ENT AB POL 19.791,01 9.895,51 0,00 0,00 0,00 0,00 544,25 7.654,30 37.885,07 4.543,06 6.045,09 0,00 0,00 10.588,15 27.296,92 30/04/2022
56 318400 ALDO CREPALDI JUNIOR OFICIAL DO MP BELO HORIZONTE - COMARCA; DIVISAO DE MATERIAIS 11.008,33 3.302,50 0,00 0,00 0,00 0,00 0,00 1.717,00 16.027,83 2.082,95 2.441,17 0,00 0,00 4.524,12 11.503,71 30/04/2022
57 604500 ALENIZE APARECIDA RODRIGUES HENRIQUE OFICIAL DO MP RIO NOVO - COMARCA; RIO NOVO-PJ-UNPJ 6.081,20 608,12 0,00 0,00 0,00 0,00 0,00 1.717,00 8.406,32 865,50 732,19 0,00 0,00 1.597,69 6.808,63 30/04/2022
58 197900 ALESSA DE SOUSA E SILVA OFICIAL DO MP OLIVEIRA - COMARCA; OLIVEIRA-PJ-02PJ 18.312,36 7.324,94 0,00 0,00 0,00 0,00 470,02 6.958,46 33.065,78 3.895,18 5.005,45 0,00 0,00 8.900,63 24.165,15 30/04/2022
59 428500 ALESSANDRA ALVES DINIZ OFICIAL DO MP BELO HORIZONTE - COMARCA; CENTRAL DE APOIO TECNICO-SECRETARIA 8.650,50 4.325,25 0,00 0,00 0,00 0,00 0,00 1.717,00 14.692,75 1.869,33 2.184,90 0,00 0,00 4.054,23 10.638,52 30/04/2022
60 286801 ALESSANDRA BOTELHO JUNQUEIRA DE MENEZES ANALISTA DO MP PASSOS - COMARCA; PASSOS-PJ-05PJ 15.659,55 6.263,82 0,00 0,00 0,00 0,00 321,54 6.110,04 28.354,95 3.300,95 4.043,26 0,00 0,00 7.344,21 21.010,74 30/04/2022
61 307000 ALESSANDRA CRISTINA SANTOS MENDES ANALISTA DO MP BELO HORIZONTE - COMARCA; BH-18PJ VIOLENCIA DOMESTICA-SECRETARIA 16.695,70 5.008,71 0,00 0,00 0,00 0,00 318,33 5.189,71 27.212,45 3.265,92 4.149,09 0,00 0,00 7.415,01 19.797,44 30/04/2022
62 264400 ALESSANDRA DE SOUZA SANTOS ANALISTA DO MP BELO HORIZONTE - COMARCA; SUPERINTENDENCIA DOS ORGAOS COLEGIADOS 20.574,59 8.229,84 0,00 0,00 0,00 0,00 0,00 1.717,00 30.521,43 4.401,92 5.841,33 0,00 0,00 10.243,25 20.278,18 30/04/2022
63 441500 ALESSANDRA DRUMMOND DE FIGUEIREDO ROSSI ANALISTA DO MP BELO HORIZONTE - COMARCA; DIRETORIA DE PROJETOS DE EDIFICACOES 11.008,33 2.201,67 0,00 0,00 0,00 0,00 0,00 1.717,00 14.927,00 1.906,81 2.239,02 0,00 0,00 4.145,83 10.781,17 30/04/2022
64 524000 ALESSANDRA LUCIOLI DE BARROS GUERRA ANALISTA DO MP BELO HORIZONTE - COMARCA; BH-19PJ SAUDE--SECRETARIA 11.008,33 2.201,67 0,00 0,00 0,00 0,00 0,00 1.717,00 14.927,00 1.906,81 2.134,74 0,00 0,00 4.041,55 10.885,45 30/04/2022
65 479900 ALESSANDRA MARA ANDRADE DE FARIA OFICIAL DO MP UBERABA - COMARCA; UBERABA-PJ-09PJ 8.650,50 1.730,10 0,00 0,00 0,00 0,00 0,00 1.717,00 12.097,60 1.454,11 1.585,42 0,00 0,00 3.039,53 9.058,07 30/04/2022
66 226700 ALESSANDRA MARA VASCONCELOS REZENDE OFICIAL DO MP CONSELHEIRO LAFAIETE - COMARCA; CONSELHEIRO LAFAIETE-PJ-07PJ 11.736,91 3.521,07 0,00 0,00 5.085,99 0,00 0,00 1.717,00 22.060,97 2.234,49 4.110,75 0,00 0,00 6.345,24 15.715,73 30/04/2022
67 112100 ALESSANDRA MARCIA FERREIRA OFICIAL DO MP BELO HORIZONTE - COMARCA; BELO HORIZONTE- SECRETARIA DAS PROMOTORIAS 11.008,33 7.705,83 0,00 0,00 0,00 0,00 0,00 1.717,00 20.431,16 2.787,48 3.510,48 0,00 0,00 6.297,96 14.133,20 30/04/2022
68 196500 ALESSANDRA MARIA RIBEIRO LUCIANO OFICIAL DO MP RIO PARANAÍBA - COMARCA; RIO PARANAIBA-PJ-UNPJ 18.312,36 7.324,94 0,00 0,00 0,00 0,00 0,00 1.717,00 27.354,30 3.895,18 5.005,45 0,00 0,00 8.900,63 18.453,67 30/04/2022
69 651700 ALESSANDRA PROFIRIO SOUZA OFICIAL DO MP NOVA ERA - COMARCA; NOVA ERA-PJ-UNPJ 5.266,66 526,67 0,00 0,00 1.931,11 0,00 0,00 1.717,00 9.441,44 729,60 1.002,08 0,00 0,00 1.731,68 7.709,76 30/04/2022
70 384900 ALESSANDRA RODRIGUES ANALISTA DO MP VISCONDE DO RIO BRANCO - COMARCA; VISCONDE DO RIO BRANCO-PJ-03PJ 16.169,47 3.233,89 0,00 0,00 0,00 0,00 71,15 3.378,43 22.852,94 2.897,75 3.565,41 0,00 0,00 6.463,16 16.389,78 30/04/2022
71 390000 ALESSANDRA SPADANO MASSARA VASCONCELOS OFICIAL DO MP BETIM - COMARCA; BETIM-PJ-10PJ 9.999,62 1.999,92 0,00 0,00 0,00 0,00 0,00 1.717,00 13.716,54 1.713,14 1.959,40 0,00 0,00 3.672,54 10.044,00 30/04/2022
72 426500 ALESSANDRO CAMPOS DE PAIVA ANALISTA DO MP BELO HORIZONTE - COMARCA; DIR CRIACAO E MIDIAS 15.659,55 3.131,91 0,00 0,00 0,00 0,00 0,00 1.717,00 20.508,46 2.799,85 3.528,33 0,00 0,00 6.328,18 14.180,28 30/04/2022
73 623400 ALESSANDRO DE OLIVEIRA REZENDE ANALISTA DO MP BELO HORIZONTE - COMARCA; DIRET DE INFORMACAO E CONHECIMENTO-DINC/CEAF 9.999,62 999,96 0,00 0,00 0,00 0,00 0,00 1.717,00 12.716,58 1.553,15 1.728,41 0,00 0,00 3.281,56 9.435,02 30/04/2022
74 420600 ALESSANDRO SILVA OFICIAL DO MP VISCONDE DO RIO BRANCO - COMARCA; VISCONDE DO RIO BRANCO-PJ-02PJ 9.378,86 2.813,66 0,00 0,00 0,00 0,00 0,00 1.717,00 13.909,52 1.744,02 1.423,42 0,00 0,00 3.167,44 10.742,08 30/04/2022
75 375301 ALETHEIA PATRICIA ASSIS MORAIS MOREIRA ANALISTA DO MP ITABIRA - COMARCA; ITABIRA-PJ-02PJ 11.008,33 1.100,83 0,00 0,00 0,00 0,00 0,00 2.602,30 14.711,46 1.730,68 1.932,58 0,00 0,00 3.663,26 11.048,20 30/04/2022
76 382300 ALEX CARVALHO LIMA ANALISTA DO MP UBERLÂNDIA - COMARCA; UBERLANDIA-PJ-14PJ 16.169,47 3.233,89 0,00 0,00 0,00 0,00 71,15 2.493,13 21.967,64 2.897,75 3.669,68 0,00 0,00 6.567,43 15.400,21 30/04/2022
77 195201 ALEX DE CASTRO PEREIRA ANALISTA DO MP UBERABA - COMARCA; UBERABA-PJ-09PJ 19.791,01 7.916,40 0,00 0,00 0,00 0,00 507,97 7.258,48 35.473,86 4.226,40 5.587,92 0,00 0,00 9.814,32 25.659,54 30/04/2022
78 358900 ALEX DE PAULA LANZA ASSESSOR BELO HORIZONTE - COMARCA; DIR CONTEUDO JORNALISTICO 0,00 0,00 11.366,79 0,00 0,00 0,00 41,68 2.171,67 13.580,14 828,38 2.358,15 0,00 0,00 3.186,53 10.393,61 30/04/2022
79 178400 ALEX RODRIGO SALDANHA GUIMARAES OFICIAL DO MP BELO HORIZONTE - COMARCA; DIRETORIA DE SISTEMAS DE INFORMACAO 6.694,66 2.677,86 0,00 0,00 0,00 0,00 0,00 1.717,00 11.089,52 1.292,82 1.352,56 0,00 0,00 2.645,38 8.444,14 30/04/2022
80 413500 ALEX VILELA OLIVEIRA ANALISTA DO MP GOVERNADOR VALADARES - COMARCA; COORD REG PJ DEF EDU DIR CRIANCA ADOL RIODOCE 15.659,55 3.131,91 0,00 0,00 0,00 0,00 0,00 1.717,00 20.508,46 2.799,85 3.528,33 0,00 0,00 6.328,18 14.180,28 30/04/2022
81 264300 ALEXANDRA FATIMA SARAIVA SOARES ANALISTA DO MP BELO HORIZONTE - COMARCA; CENTRAL DE APOIO TECN-SETOR DE MEIO AMBIENTE 20.574,59 6.172,38 0,00 0,00 0,00 0,00 490,36 7.066,39 34.303,72 4.072,73 5.366,06 0,00 0,00 9.438,79 24.864,93 30/04/2022
82 488000 ALEXANDRA LARA PAIS DE CARVALHO ANALISTA DO MP SERRO - COMARCA; SERRO-PJ-UNPJ 11.008,33 2.201,67 0,00 0,00 0,00 0,00 0,00 1.717,00 14.927,00 1.906,81 2.082,60 0,00 0,00 3.989,41 10.937,59 30/04/2022
83 256300 ALEXANDRA SANTOS GOMES OFICIAL DO MP BELO HORIZONTE - COMARCA; DIRETORIA GESTAO COMPRAS LICITACOES 11.008,33 3.302,50 0,00 0,00 0,00 0,00 0,00 1.717,00 16.027,83 2.082,95 2.493,31 0,00 0,00 4.576,26 11.451,57 30/04/2022
84 403300 ALEXANDRE AUGUSTO RODRIGUES ANALISTA DO MP ÁGUAS FORMOSAS - COMARCA; AGUAS FORMOSAS-PJ-UNPJ 11.008,33 2.201,67 0,00 0,00 0,00 0,00 0,00 3.487,60 16.697,60 1.906,81 2.239,02 0,00 0,00 4.145,83 12.551,77 30/04/2022
85 640900 ALEXANDRE BARBOSA MASCARENHAS ANALISTA DO MP BETIM - COMARCA; BETIM-PJ-02PJ 7.609,96 761,00 0,00 0,00 0,00 0,00 0,00 1.717,00 10.087,96 927,17 810,63 0,00 0,00 1.737,80 8.350,16 30/04/2022
86 311700 ALEXANDRE BARCELOS RESENDE OFICIAL DO MP BELO HORIZONTE - COMARCA; BH-19PJ SAUDE-SECRETARIA 047PJ 9.378,86 1.875,77 0,00 0,00 0,00 0,00 0,00 2.602,30 13.856,93 1.593,95 1.787,33 0,00 0,00 3.381,28 10.475,65 30/04/2022
87 285600 ALEXANDRE CAMPOS DE OLIVEIRA OFICIAL DO MP UBERABA - COMARCA; COORD REG BACIAS PARANAIBA BAIXO RIO GRANDE 11.008,33 3.302,50 0,00 0,00 0,00 0,00 0,00 1.717,00 16.027,83 2.082,95 2.336,90 0,00 0,00 4.419,85 11.607,98 30/04/2022
88 509200 ALEXANDRE CAPUANO DE REZENDE ANALISTA DO MP BELO HORIZONTE - COMARCA; BH-07PJ 03 TRIBUNAL DO JURI-GAB 061PJ 11.008,33 2.201,67 0,00 0,00 0,00 0,00 0,00 1.717,00 14.927,00 1.906,81 2.186,88 0,00 0,00 4.093,69 10.833,31 30/04/2022
89 229400 ALEXANDRE CARLOS BOTREL DIRETOR/OFICIAL BELO HORIZONTE - COMARCA; SUPERINTENDENCIA DOS ORGAOS COLEGIADOS 0,00 5.711,19 19.037,29 0,00 0,00 0,00 544,47 7.656,64 32.949,59 3.050,40 5.097,61 0,00 0,00 8.148,01 24.801,58 30/04/2022
90 411900 ALEXANDRE CARVALHO SANTOS RIBEIRO ANALISTA DO MP OLIVEIRA - COMARCA; OLIVEIRA-PJ-02PJ 15.659,55 3.131,91 0,00 0,00 0,00 0,00 68,90 3.353,96 22.214,32 2.799,85 3.528,33 0,00 0,00 6.328,18 15.886,14 30/04/2022
91 641600 ALEXANDRE DA SILVA ASSUNCAO OFICIAL DO MP BELO HORIZONTE - COMARCA; SERVICO MEDICO-DEPTO PERIC MEDICA SAUDE OCUP 5.438,14 543,81 0,00 0,00 0,00 0,00 0,00 1.717,00 7.698,95 757,89 567,26 0,00 0,00 1.325,15 6.373,80 30/04/2022
92 201200 ALEXANDRE DE ALENCAR CORDEIRO OFICIAL DO MP ÁGUAS FORMOSAS - COMARCA; AGUAS FORMOSAS-PJ-UNPJ 6.694,66 3.347,33 0,00 0,00 0,00 0,00 331,39 5.332,12 15.705,50 1.399,93 1.507,21 0,00 0,00 2.907,14 12.798,36 30/04/2022
93 288200 ALEXANDRE DE VASCONCELOS COSTA KER ANALISTA DO MP BELO HORIZONTE - COMARCA; BH-03PJ EMPRESARIAL-SECRETARIA 19.037,29 5.711,19 0,00 0,00 0,00 0,00 544,47 7.656,64 32.949,59 3.752,97 4.852,27 0,00 0,00 8.605,24 24.344,35 30/04/2022
94 445000 ALEXANDRE DIOGENES OLIVEIRA ANALISTA DO MP SALINAS - COMARCA; SALINAS-PJ-02PJ 11.736,91 2.347,38 0,00 0,00 0,00 0,00 0,00 2.602,30 16.686,59 2.046,70 2.440,98 0,00 0,00 4.487,68 12.198,91 30/04/2022
95 463400 ALEXANDRE LEAL WINKELSTROTER ANALISTA DO MP TEÓFILO OTONI - COMARCA; TEOFILO OTONI-PJ-04PJ 11.008,33 2.201,67 0,00 0,00 0,00 0,00 0,00 1.717,00 14.927,00 1.906,81 2.239,02 0,00 0,00 4.145,83 10.781,17 30/04/2022
96 615700 ALEXANDRE LUIZ DE CASTRO MACIEL ANALISTA DO MP BELO HORIZONTE - COMARCA; BH-08PJ JUIZADO ESPECIAL-SECRETARIA 9.999,62 999,96 0,00 0,00 0,00 0,00 443,65 6.556,82 18.000,05 1.553,15 1.728,41 0,00 0,00 3.281,56 14.718,49 30/04/2022
97 356900 ALEXANDRE MOISES MENDONCA E ARAUJO OFICIAL DO MP UBERABA - COMARCA; UBERABA-PJ-13PJ 8.377,76 2.513,33 0,00 0,00 0,00 0,00 0,00 1.717,00 12.608,09 1.535,79 1.703,35 0,00 0,00 3.239,14 9.368,95 30/04/2022
98 633300 ALEXANDRE NONATO MARTINS OFICIAL DO MP IGARAPÉ - COMARCA; IGARAPE-PJ-02PJ 5.889,39 588,94 0,00 0,00 -1.975,30 0,00 0,00 1.717,00 6.220,03 832,79 87,82 0,00 0,00 920,61 5.299,42 30/04/2022
99 469900 ALEXANDRE PEREIRA GUEDES ANALISTA DO MP CATAGUASES - COMARCA; CATAGUASES-PJ-03PJ 11.008,33 2.201,67 0,00 0,00 0,00 0,00 0,00 1.717,00 14.927,00 1.906,81 2.239,02 0,00 0,00 4.145,83 10.781,17 30/04/2022
100 208700 ALEXANDRE RESENDE FRAGA ANALISTA DO MP BELO HORIZONTE - COMARCA; BH-19PJ SAUDE-SECRETARIA 130PJ 20.574,59 8.229,84 0,00 0,00 0,00 0,00 0,00 1.717,00 30.521,43 4.401,92 5.684,92 0,00 0,00 10.086,84 20.434,59 30/04/2022
101 216401 ALEXANDRE RIBEIRO DE LIMA MAIORINO ANALISTA DO MP UBERABA - COMARCA; UBERABA-PJ-03PJ 19.037,29 7.614,92 0,00 0,00 0,00 0,00 488,62 7.047,44 34.188,27 4.057,57 5.292,03 0,00 0,00 9.349,60 24.838,67 30/04/2022
102 475100 ALEXANDRE TEOTONIO COSTA ANALISTA DO MP ARAGUARI - COMARCA; ARAGUARI-PJ-01PJ 11.008,33 2.201,67 0,00 0,00 0,00 0,00 0,00 1.717,00 14.927,00 1.906,81 2.134,74 0,00 0,00 4.041,55 10.885,45 30/04/2022
103 339000 ALEXANDRE VITOR CARDOSO OFICIAL DO MP BELO HORIZONTE - COMARCA; BH-12PJ JUIZO CRIMINAL-SECRETARIA 6.694,66 2.008,40 0,00 0,00 0,00 0,00 0,00 1.717,00 10.420,06 1.185,70 1.041,50 0,00 0,00 2.227,20 8.192,86 30/04/2022
104 623100 ALEXSANDER BATISTA AGUIAR COORDENADOR/ANALISTA BELO HORIZONTE - COMARCA; DIRETORIA DE SUPORTE E MANUTENCAO 0,00 1.468,76 14.687,60 0,00 0,00 0,00 0,00 2.602,30 18.758,66 1.553,15 2.990,11 0,00 0,00 4.543,26 14.215,40 30/04/2022
105 513300 ALFSON MIRANDA BRAGA ANALISTA DO MP BELO HORIZONTE - COMARCA; BH-12PJ JUIZO CRIMINAL-GAB 087PJ 11.008,33 2.201,67 0,00 0,00 0,00 0,00 0,00 1.717,00 14.927,00 1.906,81 2.239,02 0,00 0,00 4.145,83 10.781,17 30/04/2022
106 618400 ALICE MAGALHAES MACEDO DE CARVALHO ANALISTA DO MP IPATINGA - COMARCA; IPATINGA-PJ-10PJ 9.999,62 999,96 0,00 0,00 0,00 0,00 0,00 2.602,30 13.601,88 1.553,15 1.728,41 0,00 0,00 3.281,56 10.320,32 30/04/2022
107 707000 ALICE MARIA RIBEIRO DINIZ ASSESSOR PROMOTOR JUSTICA BELO HORIZONTE - COMARCA; PROC JUST ATUACAO TRIBUNAIS SUPERIORES-GAB004 0,00 0,00 7.857,77 0,00 0,00 0,00 0,00 1.717,00 9.574,77 828,38 1.393,17 0,00 0,00 2.221,55 7.353,22 30/04/2022
108 471000 ALICE TITONELI MOREIRA ANALISTA DO MP MIRADOURO - COMARCA; MIRADOURO-PJ-UNPJ 11.008,33 2.201,67 0,00 0,00 0,00 0,00 0,00 2.602,30 15.812,30 1.906,81 2.186,88 0,00 0,00 4.093,69 11.718,61 30/04/2022
109 622400 ALINE BALBINO PORTUGAL LOPES ANALISTA DO MP TRÊS PONTAS - COMARCA; TRES PONTAS-PJ-03PJ 9.999,62 999,96 0,00 0,00 0,00 0,00 0,00 2.602,30 13.601,88 1.553,15 1.728,41 0,00 0,00 3.281,56 10.320,32 30/04/2022
110 373000 ALINE BOTELHO RESENDE OFICIAL DO MP JUIZ DE FORA - COMARCA; JUIZ DE FORA-PJ-22PJ 10.325,15 2.065,03 0,00 0,00 4.130,06 0,00 0,00 1.717,00 18.237,24 1.775,64 3.185,40 0,00 0,00 4.961,04 13.276,20 30/04/2022
111 699800 ALINE CRISTINA DE OLIVEIRA AMARAL BARBOSA ASSESSOR PROCURADOR JUSTICA BELO HORIZONTE - COMARCA; GABINETE DE PROCURADOR DE JUSTIÇA - SALA 904 0,00 0,00 7.857,77 0,00 0,00 0,00 0,00 1.717,00 9.574,77 828,38 1.288,90 0,00 0,00 2.117,28 7.457,49 30/04/2022
112 407700 ALINE CRISTINA RODRIGUES PEREIRA COORDENADOR/ANALISTA BELO HORIZONTE - COMARCA; DIRETORIA DE PROJETOS DE EDIFICACOES 0,00 2.937,52 14.687,60 0,00 0,00 0,00 0,00 1.717,00 19.342,12 1.906,81 3.453,17 0,00 0,00 5.359,98 13.982,14 30/04/2022
113 193100 ALINE CRISTINA SENA OLIVEIRA OFICIAL DO MP UBERLÂNDIA - COMARCA; UBERLANDIA-PJ-03PJ 16.695,70 6.678,28 0,00 0,00 0,00 0,00 514,23 8.212,06 32.100,27 3.533,05 4.534,76 0,00 0,00 8.067,81 24.032,46 30/04/2022
114 554200 ALINE CRISTINA SILVA SOUZA OFICIAL DO MP TIROS - COMARCA; TIROS-PJ-UNPJ 6.694,66 669,47 0,00 0,00 0,00 0,00 0,00 1.717,00 9.081,13 971,47 888,62 0,00 0,00 1.860,09 7.221,04 30/04/2022
115 505500 ALINE DA CUNHA MARREIROS OLIVEIRA ANALISTA DO MP EUGENÓPOLIS - COMARCA; EUGENOPOLIS-PJ-UNPJ 11.008,33 2.201,67 0,00 0,00 0,00 0,00 0,00 3.487,60 16.697,60 1.906,81 2.186,88 0,00 0,00 4.093,69 12.603,91 30/04/2022
116 433500 ALINE DE MELO QUEIROZ ASSESSOR/OFICIAL BELO HORIZONTE - COMARCA; ASSESSORIA JURIDICA DO PROCON-MG 0,00 2.273,36 11.366,79 0,00 0,00 0,00 50,01 3.147,91 16.838,07 1.652,59 2.427,22 0,00 0,00 4.079,81 12.758,26 30/04/2022
117 691100 ALINE DE MELO SOUZA ASSESSOR PROCURADOR JUSTICA BELO HORIZONTE - COMARCA; GABINETE DE PROCURADOR DE JUSTIÇA - SALA 401 0,00 0,00 7.857,77 0,00 0,00 0,00 0,00 1.717,00 9.574,77 828,38 1.393,17 0,00 0,00 2.221,55 7.353,22 30/04/2022
118 542700 ALINE DE SOUSA ALBINO ANALISTA DO MP CONTAGEM - COMARCA; CONTAGEM-PJ-09PJ 11.008,33 1.100,83 0,00 0,00 0,00 0,00 0,00 1.717,00 13.826,16 1.730,68 1.984,72 0,00 0,00 3.715,40 10.110,76 30/04/2022
119 330000 ALINE DIORIO MAYRINK OFICIAL DO MP BELO HORIZONTE - COMARCA; NUCLEO DE ACORDOS DE NAO PERSECUCAO PENAL BH 8.650,50 1.730,10 0,00 0,00 0,00 0,00 0,00 1.717,00 12.097,60 1.454,11 1.585,42 0,00 0,00 3.039,53 9.058,07 30/04/2022
120 499000 ALINE FERREIRA LOPES ANALISTA DO MP TEÓFILO OTONI - COMARCA; TEOFILO OTONI-PJ-09PJ 11.008,33 2.201,67 0,00 0,00 0,00 0,00 0,00 1.717,00 14.927,00 1.906,81 2.239,02 0,00 0,00 4.145,83 10.781,17 30/04/2022
121 405300 ALINE LAIA CARDOZO DIRETOR/ANALISTA BELO HORIZONTE - COMARCA; SUPERINTENDENCIA LOGISTICA SERVICOS 16.169,47 3.233,89 3.807,46 0,00 0,00 0,00 0,00 1.717,00 24.927,82 2.897,75 4.716,73 0,00 0,00 7.614,48 17.313,34 30/04/2022
122 278200 ALINE MARCIA FARIA BARBOSA FERNANDES OFICIAL DO MP BARBACENA - COMARCA; BARBACENA-PJ-SECRETARIA 8.377,76 2.513,33 0,00 0,00 0,00 0,00 0,00 1.717,00 12.608,09 1.535,79 1.546,94 0,00 0,00 3.082,73 9.525,36 30/04/2022
123 389000 ALINE NERI NOBRE ANALISTA DO MP MONTES CLAROS - COMARCA; COORD REG PJ DEF EDUC DIR CRIANCA ADOL NORTE 16.169,47 4.850,84 0,00 0,00 0,00 0,00 308,30 5.080,25 26.408,86 3.156,46 4.043,20 0,00 0,00 7.199,66 19.209,20 30/04/2022
124 294600 ALINE PATRICIA SILVA VIEIRA OFICIAL DO MP UBERLÂNDIA - COMARCA; UBERLANDIA-PJ-03PJ 12.118,97 3.635,69 0,00 0,00 0,00 0,00 2.088,48 7.264,09 25.107,23 2.313,96 3.157,06 0,00 0,00 5.471,02 19.636,21 30/04/2022
125 420000 ALINE RODRIGUES CAMOROPIN ANALISTA DO MP SABARÁ - COMARCA; SABARA-PJ-02PJ 15.659,55 3.131,91 0,00 0,00 0,00 0,00 68,90 2.468,66 21.329,02 2.799,85 3.528,33 0,00 0,00 6.328,18 15.000,84 30/04/2022
126 715800 ALINE SANTOS PEDROSA MAIA BARBOSA ASSESSOR PROCURADOR JUSTICA BELO HORIZONTE - COMARCA; GABINETE DE PROCURADOR DE JUSTIÇA - SALA 1010 0,00 0,00 7.857,77 0,00 0,00 0,00 0,00 1.717,00 9.574,77 828,38 1.393,17 0,00 0,00 2.221,55 7.353,22 30/04/2022
127 699600 ALINE SEPULVEDA ROSA PIRES ASSESSOR PROCURADOR JUSTICA BELO HORIZONTE - COMARCA; GABINETE DE PROCURADOR DE JUSTIÇA - SALA 905 0,00 0,00 7.857,77 0,00 0,00 0,00 0,00 1.717,00 9.574,77 828,38 1.393,17 0,00 0,00 2.221,55 7.353,22 30/04/2022
128 408300 ALINE SILVA ARAUJO DE PAULA ANALISTA DO MP SÃO SEBASTIÃO DO PARAÍSO - COMARCA; SAO SEBASTIAO DO PARAISO-PJ-02PJ 15.659,55 3.131,91 0,00 0,00 0,00 0,00 68,90 2.468,66 21.329,02 927,17 3.930,67 0,00 0,00 4.857,84 16.471,18 30/04/2022
129 425400 ALINE TRINDADE DE FREITAS CAMPOS OFICIAL DO MP BELO HORIZONTE - COMARCA; BH-14PJ DEFESA CONSUMIDOR-SECRETARIA 9.684,23 1.936,85 0,00 0,00 0,00 0,00 0,00 1.717,00 13.338,08 1.652,59 1.871,98 0,00 0,00 3.524,57 9.813,51 30/04/2022
130 517200 ALISSOM PEREIRA DA SILVA ANALISTA DO MP BORDA DA MATA - COMARCA; BORDA DA MATA-PJ-UNPJ 11.008,33 2.201,67 0,00 0,00 0,00 0,00 0,00 2.602,30 15.812,30 1.906,81 2.239,02 0,00 0,00 4.145,83 11.666,47 30/04/2022
131 442400 ALISSON LABRE ANALISTA DO MP VARGINHA - COMARCA; VARGINHA-PJ-03PJ 11.008,33 2.201,67 0,00 0,00 0,00 0,00 0,00 1.717,00 14.927,00 927,17 2.508,42 0,00 0,00 3.435,59 11.491,41 30/04/2022
132 643800 ALLAN PAUL FONSECA DE CASTRO OFICIAL DO MP CONTAGEM - COMARCA; CONTAGEM-PJ-SECRETARIA 5.889,39 588,94 0,00 0,00 0,00 0,00 0,00 2.602,30 9.080,63 832,79 683,16 0,00 0,00 1.515,95 7.564,68 30/04/2022
133 612900 ALLAN VINICIUS VIEIRA ARAUJO COORDENADOR/OFICIAL BELO HORIZONTE - COMARCA; DIRETORIA DE GESTAO DOCUMENTAL 0,00 1.468,76 14.687,60 0,00 0,00 0,00 0,00 1.717,00 17.873,36 971,47 3.306,48 0,00 0,00 4.277,95 13.595,41 30/04/2022
134 349000 ALLEC RODRIGUES VIEIRA OFICIAL DO MP CAPINÓPOLIS - COMARCA; CAO-CIVEL 11.008,33 3.302,50 0,00 0,00 0,00 0,00 0,00 1.717,00 16.027,83 2.082,95 2.493,31 0,00 0,00 4.576,26 11.451,57 30/04/2022
135 297300 ALLYSON SALIBA MONTEIRO LAIZO ANALISTA DO MP CONSELHEIRO LAFAIETE - COMARCA; CONSELHEIRO LAFAIETE-PJ-03PJ 20.574,59 6.172,38 0,00 0,00 0,00 0,00 490,36 8.836,99 36.074,32 4.072,73 5.366,06 0,00 0,00 9.438,79 26.635,53 30/04/2022
136 303700 ALMIR LOPES LOURES ANALISTA DO MP BELO HORIZONTE - COMARCA; CENTRAL DE APOIO TECN-SETOR DE MEIO AMBIENTE 20.574,59 6.172,38 0,00 0,00 0,00 0,00 490,36 7.066,39 34.303,72 4.072,73 5.366,06 0,00 0,00 9.438,79 24.864,93 30/04/2022
137 696600 ALOIZIO MARTINS JALES JUNIOR ASSESSOR PROMOTOR JUSTICA CAMPESTRE - COMARCA; CAMPESTRE-PJ-SECRETARIA 0,00 0,00 7.857,77 0,00 223,35 0,00 0,00 1.717,00 9.798,12 828,38 1.454,59 0,00 0,00 2.282,97 7.515,15 30/04/2022
138 515900 ALTAIR NEVES JUNIOR OFICIAL DO MP BELO HORIZONTE - COMARCA; BH-01PJ FAZENDA PUBLICA-SECRETARIA 8.377,76 1.675,55 0,00 0,00 0,00 0,00 0,00 1.717,00 11.770,31 1.401,74 1.509,82 0,00 0,00 2.911,56 8.858,75 30/04/2022
139 233300 ALVARINDO BATISTA ANALISTA DO MP BELO HORIZONTE - COMARCA; NUCLEO APOIO TECNICO ESP COMUNICACAO 20.574,59 6.172,38 0,00 0,00 0,00 0,00 0,00 2.602,30 29.349,27 4.072,73 5.313,92 0,00 0,00 9.386,65 19.962,62 30/04/2022
140 274100 ALYSSON CARVALHO VIDAL DE LACERDA OFICIAL DO MP MANHUAÇU - COMARCA; MANHUACU-PJ-01PJ 11.008,33 3.302,50 0,00 0,00 0,00 0,00 0,00 1.717,00 16.027,83 2.082,95 2.493,31 0,00 0,00 4.576,26 11.451,57 30/04/2022
141 621000 AMANDA BASTOS ALVES ANALISTA DO MP BELO HORIZONTE - COMARCA; BH-07PJ 02 TRIBUNAL DO JURI-GAB 066PJ 9.999,62 999,96 0,00 0,00 0,00 0,00 0,00 1.717,00 12.716,58 927,17 1.819,86 0,00 0,00 2.747,03 9.969,55 30/04/2022
142 521700 AMANDA CRISTINA AGUIAR MACHADO OFICIAL DO MP CONGONHAS - COMARCA; CONGONHAS-PJ-01PJ 6.523,19 1.338,93 0,00 0,00 0,00 0,00 0,00 1.717,00 9.579,12 1.078,59 943,97 0,00 0,00 2.022,56 7.556,56 30/04/2022
143 713900 AMANDA DE ARAUJO CARVALHO ASSESSOR PROMOTOR JUSTICA ARAÇUAÍ - COMARCA; ARACUAI-PJ-01PJ 0,00 0,00 7.857,77 0,00 0,00 0,00 0,00 1.717,00 9.574,77 828,38 1.393,17 0,00 0,00 2.221,55 7.353,22 30/04/2022
144 613400 AMANDA DE ASSIS IUNES SANTOS ANALISTA DO MP CONGONHAS - COMARCA; CONGONHAS-PJ-01PJ 10.325,15 1.032,52 0,00 0,00 0,00 0,00 0,00 1.717,00 13.074,67 1.610,44 1.811,13 0,00 0,00 3.421,57 9.653,10 30/04/2022
145 695900 AMANDA DE OLIVEIRA ASSESSOR PROCURADOR JUSTICA BELO HORIZONTE - COMARCA; PROC JUST ATUACAO TRIBUNAIS SUPERIORES-GAB004 0,00 0,00 7.857,77 0,00 2.619,26 0,00 0,00 1.717,00 12.194,03 828,38 2.113,47 0,00 0,00 2.941,85 9.252,18 30/04/2022
146 520800 AMANDA DE SOUZA MACHADO ANALISTA DO MP BAEPENDI - COMARCA; BAEPENDI-PJ-UNPJ 11.008,33 2.201,67 0,00 0,00 0,00 0,00 0,00 1.717,00 14.927,00 1.906,81 2.134,74 0,00 0,00 4.041,55 10.885,45 30/04/2022
147 663900 AMANDA DENISE GONCALVES DA SILVA ASSESSOR BELO HORIZONTE - COMARCA; DIRET DE FORMACAO, APERFEIC. E POS-GRADUACAO 0,00 0,00 3.363,05 0,00 0,00 0,00 0,00 1.717,00 5.080,05 474,72 283,29 0,00 0,00 758,01 4.322,04 30/04/2022
148 677000 AMANDA LETICIA MESSIAS PEGO ASSESSOR PROMOTOR JUSTICA CORAÇÃO DE JESUS - COMARCA; CORACAO DE JESUS-PJ-UNPJ 0,00 0,00 7.857,77 0,00 0,00 0,00 0,00 1.717,00 9.574,77 828,38 1.393,17 0,00 0,00 2.221,55 7.353,22 30/04/2022
149 543100 AMANDA VIEIRA FREITAS BRESSANE ANALISTA DO MP VARGINHA - COMARCA; COORD REG DEF ORDEM ECON TRIB VARGINHA 11.008,33 1.100,83 0,00 0,00 0,00 0,00 444,00 6.560,66 19.113,82 1.730,68 1.984,72 0,00 0,00 3.715,40 15.398,42 30/04/2022
150 434400 AMARILIS ASSIS SIMAO CURCIO ANALISTA DO MP BELO HORIZONTE - COMARCA; DIRETORIA GESTAO COMPRAS LICITACOES 11.008,33 2.201,67 0,00 0,00 0,00 0,00 0,00 1.717,00 14.927,00 1.906,81 2.239,02 0,00 0,00 4.145,83 10.781,17 30/04/2022
151 652000 AMAURI SILVA ALVES ASSESSOR/OFICIAL BELO HORIZONTE - COMARCA; BH-23PJ INFRACIONAL-SEC EXP 0,00 893,22 8.932,15 0,00 0,00 0,00 0,00 1.717,00 11.542,37 729,60 1.631,98 0,00 0,00 2.361,58 9.180,79 30/04/2022
152 58000 AMELIA GUARIZE DE CASTRO OFICIAL DO MP JUIZ DE FORA - COMARCA; JUIZ DE FORA-PJ-SECRETARIA 7.370,10 7.370,10 0,00 0,00 0,00 2.151,65 0,00 1.717,00 18.608,85 2.151,65 3.184,20 0,00 0,00 5.335,85 13.273,00 30/04/2022
153 324301 AMERICA SUELI FERREIRA DA SILVA ANALISTA DO MP UBERLÂNDIA - COMARCA; UBERLANDIA-PJ-20PJ 11.008,33 2.201,67 0,00 0,00 0,00 0,00 145,31 3.302,20 16.657,51 1.906,81 2.186,88 0,00 0,00 4.093,69 12.563,82 30/04/2022
154 273300 AMUJACY DE BRITO ASSIZ OFICIAL DO MP BELO HORIZONTE - COMARCA; BH-12PJ JUIZO CRIMINAL-SECRETARIA 11.008,33 3.302,50 0,00 0,00 0,00 0,00 0,00 1.717,00 16.027,83 2.082,95 2.284,76 0,00 0,00 4.367,71 11.660,12 30/04/2022
155 482200 ANA ALICE LOPES ACHTSCHIN ANALISTA DO MP BELO HORIZONTE - COMARCA; PROC JUST ATUACAO TRIBUNAIS SUPERIORES-GAB002 12.118,97 2.423,79 0,00 0,00 0,00 0,00 0,00 1.717,00 16.259,76 2.120,06 2.546,88 0,00 0,00 4.666,94 11.592,82 30/04/2022
156 490400 ANA AMELIA PAULINO GARCIA OFICIAL DO MP CONTAGEM - COMARCA; CONTAGEM-PJ-SECRETARIA 8.650,50 1.730,10 0,00 0,00 0,00 0,00 0,00 2.602,30 12.982,90 1.454,11 1.533,29 0,00 0,00 2.987,40 9.995,50 30/04/2022
157 690400 ANA ANGELICA MOREIRA DA CUNHA ASSESSOR PROMOTOR JUSTICA TIMÓTEO - COMARCA; TIMOTEO-PJ-02PJ 0,00 0,00 7.857,77 0,00 0,00 0,00 0,00 1.717,00 9.574,77 828,38 1.393,17 0,00 0,00 2.221,55 7.353,22 30/04/2022
158 714900 ANA BEATRIZ LOBATO ALVES DE CARVALHO ASSESSOR PROCURADOR JUSTICA BELO HORIZONTE - COMARCA; GABINETE DE PROCURADOR DE JUSTIÇA - SALA 303 0,00 2.357,33 7.857,77 0,00 0,00 0,00 3.090,72 1.717,00 15.022,82 828,38 2.891,39 0,00 0,00 3.719,77 11.303,05 30/04/2022
159 715000 ANA CARLA RODRIGUES DE SOUZA ASSESSOR PROMOTOR JUSTICA TRÊS CORACOES - COMARCA; TRES CORACOES-PJ-01PJ 0,00 0,00 7.857,77 0,00 0,00 0,00 0,00 1.717,00 9.574,77 828,38 1.393,17 0,00 0,00 2.221,55 7.353,22 30/04/2022
160 279100 ANA CAROLINA ARAUJO PEREIRA ANALISTA DO MP BELO HORIZONTE - COMARCA; DIRETORIA DE PROJETOS DE EDIFICACOES 20.574,59 6.172,38 0,00 0,00 0,00 0,00 0,00 1.717,00 28.463,97 4.072,73 5.313,92 0,00 0,00 9.386,65 19.077,32 30/04/2022
161 653300 ANA CAROLINA CYRNE DINIZ ASSESSOR BELO HORIZONTE - COMARCA; CENTRAL DE APOIO TECNICO-SETOR CONTABIL 0,00 0,00 8.932,15 0,00 0,00 0,00 0,00 1.717,00 10.649,15 828,38 1.688,63 0,00 0,00 2.517,01 8.132,14 30/04/2022
162 359400 ANA CAROLINA DE ABREU FARIA ASSESSOR BELO HORIZONTE - COMARCA; SUPERINTENDÊNCIA DE ENGENHARIA E ARQUITETURA 0,00 0,00 11.366,79 0,00 0,00 0,00 0,00 2.602,30 13.969,09 828,38 2.306,02 0,00 0,00 3.134,40 10.834,69 30/04/2022
163 408500 ANA CAROLINA DE CASTRO CARVALHO ANALISTA DO MP BARBACENA - COMARCA; BARBACENA - SECRETARIA DAS PJS CRIMINAIS 15.659,55 3.131,91 0,00 0,00 0,00 0,00 68,90 3.353,96 22.214,32 2.799,85 3.528,33 0,00 0,00 6.328,18 15.886,14 30/04/2022
164 688000 ANA CAROLINA DE OLIVEIRA PINTO ASSESSOR PROCURADOR JUSTICA BELO HORIZONTE - COMARCA; GABINETE DE PROCURADOR DE JUSTIÇA - SALA 1005 0,00 0,00 7.857,77 0,00 0,00 0,00 0,00 1.717,00 9.574,77 828,38 1.393,17 0,00 0,00 2.221,55 7.353,22 30/04/2022
165 420200 ANA CAROLINA FERNANDES SILVA ANALISTA DO MP BELO HORIZONTE - COMARCA; GABINETE DE PROCURADOR DE JUSTIÇA - SALA 704 14.224,47 2.844,89 0,00 0,00 0,00 0,00 0,00 1.717,00 18.786,36 2.524,31 3.130,53 0,00 0,00 5.654,84 13.131,52 30/04/2022
166 522100 ANA CAROLINA FERNANDINO VIDAL PEREIRA SANTOS OFICIAL DO MP BELO HORIZONTE - COMARCA; SECRETARIA DO PROCON-MG 8.377,76 1.675,55 0,00 0,00 0,00 0,00 0,00 1.717,00 11.770,31 927,17 1.579,15 0,00 0,00 2.506,32 9.263,99 30/04/2022
167 716000 ANA CAROLINA FIGUEIREDO SILVA ASSESSOR PROCURADOR JUSTICA BELO HORIZONTE - COMARCA; PROC JUST ATUACAO TRIBUNAIS SUPERIORES-GAB001 0,00 0,00 7.857,77 0,00 0,00 0,00 0,00 1.717,00 9.574,77 828,38 1.393,17 0,00 0,00 2.221,55 7.353,22 30/04/2022
168 502400 ANA CAROLINA GONCALVES FERNANDES ANALISTA DO MP IPATINGA - COMARCA; IPATINGA-PJ-01PJ 11.008,33 2.201,67 0,00 0,00 0,00 0,00 0,00 3.487,60 16.697,60 927,17 2.382,14 0,00 0,00 3.309,31 13.388,29 30/04/2022
169 529900 ANA CAROLINA GONCALVES PECANHA CHEQUER ANALISTA DO MP MANHUAÇU - COMARCA; MANHUACU-PJ-04PJ 11.008,33 1.100,83 0,00 0,00 0,00 0,00 0,00 3.487,60 15.596,76 1.730,68 1.984,72 0,00 0,00 3.715,40 11.881,36 30/04/2022
170 711300 ANA CAROLINA MOREIRA GOMES ASSESSOR PROMOTOR JUSTICA BELO HORIZONTE - COMARCA; COORD ESTADUAL DAS PJS DE HAB. E URBANISMO 0,00 0,00 7.857,77 0,00 0,00 0,00 0,00 1.717,00 9.574,77 828,38 1.393,17 0,00 0,00 2.221,55 7.353,22 30/04/2022
171 431900 ANA CAROLINA MOTTA GUATIMOSIM ANALISTA DO MP BELO HORIZONTE - COMARCA; ASSESSORIA JURIDICO-ADMINISTRATIVA 14.224,47 2.844,89 0,00 0,00 0,00 0,00 0,00 2.602,30 19.671,66 2.524,31 3.130,53 0,00 0,00 5.654,84 14.016,82 30/04/2022
172 490600 ANA CAROLINA XAVIER GODOY ANALISTA DO MP BELO HORIZONTE - COMARCA; BH-18PJ DIREITOS HUMANOS-SECRETARIA 11.008,33 2.201,67 0,00 0,00 0,00 0,00 0,00 3.487,60 16.697,60 1.906,81 2.134,74 0,00 0,00 4.041,55 12.656,05 30/04/2022
173 600300 ANA CAROLINE PEREIRA DINIZ ANALISTA DO MP BELO HORIZONTE - COMARCA; PROC JUST ESP ACOES COMP ORIG CRIMINAL-SEC 10.325,15 1.032,52 0,00 0,00 0,00 0,00 0,00 2.602,30 13.959,97 1.610,44 1.811,13 0,00 0,00 3.421,57 10.538,40 30/04/2022
174 615800 ANA CAROLINE PEREIRA OLIVEIRA OFICIAL DO MP ALFENAS - COMARCA; ALFENAS-PJ-06PJ 6.483,63 648,36 0,00 0,00 0,00 0,00 0,00 1.717,00 8.848,99 934,33 835,00 0,00 0,00 1.769,33 7.079,66 30/04/2022
175 324800 ANA CECILIA MENDES DA SILVA OFICIAL DO MP OURO FINO - COMARCA; OURO FINO-PJ-01PJ 11.008,33 3.302,50 0,00 0,00 0,00 0,00 0,00 1.717,00 16.027,83 2.082,95 2.441,17 0,00 0,00 4.524,12 11.503,71 30/04/2022
176 704100 ANA CLARA MARTINS ALBUQUERQUE ASSESSOR BELO HORIZONTE - COMARCA; CAO-CRIANCAS E ADOLESCENTES-ASS TECNICA 0,00 0,00 3.363,05 0,00 0,00 0,00 0,00 1.717,00 5.080,05 474,72 283,29 0,00 0,00 758,01 4.322,04 30/04/2022
177 698700 ANA CLARA SANTOS ALMEIDA ASSESSOR PROMOTOR JUSTICA SABINÓPOLIS - COMARCA; SABINOPOLIS-PJ-UNPJ 0,00 0,00 7.857,77 0,00 0,00 0,00 0,00 1.717,00 9.574,77 828,38 1.393,17 0,00 0,00 2.221,55 7.353,22 30/04/2022
178 441300 ANA CLAUDIA ALKIMIM MIRANDA BOMTEMPO ANALISTA DO MP MONTES CLAROS - COMARCA; MONTES CLAROS-PJ-11PJ 14.224,47 2.844,89 0,00 0,00 0,00 0,00 0,00 1.717,00 18.786,36 2.524,31 3.026,25 0,00 0,00 5.550,56 13.235,80 30/04/2022
179 642500 ANA CLAUDIA DA COSTA NAVES OFICIAL DO MP MONTE CARMELO - COMARCA; MONTE CARMELO-PJ-02PJ 5.438,14 543,81 0,00 0,00 0,00 0,00 0,00 2.602,30 8.584,25 757,89 567,26 0,00 0,00 1.325,15 7.259,10 30/04/2022
180 716800 ANA CLAUDIA DOURADO MENDES ASSESSOR PROMOTOR JUSTICA ARAÇUAÍ - COMARCA; ARACUAI-PJ-02PJ 0,00 0,00 7.857,77 0,00 0,00 0,00 0,00 1.717,00 9.574,77 828,38 1.393,17 0,00 0,00 2.221,55 7.353,22 30/04/2022
181 604900 ANA CLAUDIA OLIVEIRA DE MIRANDA OFICIAL DO MP PONTE NOVA - COMARCA; PONTE NOVA-PJ-04PJ 6.081,20 608,12 0,00 0,00 0,00 0,00 0,00 1.717,00 8.406,32 865,50 680,05 0,00 0,00 1.545,55 6.860,77 30/04/2022
182 379300 ANA CRISTINA ALVES FLAVIO ANALISTA DO MP SÃO GOTARDO - COMARCA; SAO GOTARDO-PJ-01PJ 16.169,47 3.233,89 0,00 0,00 0,00 0,00 498,02 8.035,24 27.936,62 2.897,75 3.617,55 0,00 0,00 6.515,30 21.421,32 30/04/2022
183 461200 ANA CRISTINA ALVES PASCHOAL ANALISTA DO MP BELO HORIZONTE - COMARCA; BH-07PJ 03 TRIBUNAL DO JURI-GAB 064PJ 11.008,33 2.201,67 0,00 0,00 0,00 0,00 532,80 7.529,40 21.272,20 1.906,81 2.186,88 0,00 0,00 4.093,69 17.178,51 30/04/2022
184 514100 ANA CRISTINA ARAUJO ASSUNCAO ANALISTA DO MP BELO HORIZONTE - COMARCA; ASSESS JUR DO CONS SUPERIOR DO MINISTERIO PUB 11.008,33 2.201,67 0,00 0,00 0,00 0,00 0,00 2.602,30 15.812,30 1.906,81 2.186,88 0,00 0,00 4.093,69 11.718,61 30/04/2022
185 113401 ANA CRISTINA BRAGA ALBUQUERQUE ASSESSOR BELO HORIZONTE - COMARCA; DIRETORIA-GERAL 0,00 0,00 19.037,29 0,00 0,00 0,00 0,00 1.198,00 20.235,29 828,38 4.467,54 0,00 0,00 5.295,92 14.939,37 30/04/2022
186 233800 ANA CRISTINA BRAGA SOARES OFICIAL DO MP CONTAGEM - COMARCA; CONTAGEM-PJ-SECRETARIA 12.920,95 3.876,29 0,00 0,00 0,00 0,00 0,00 1.717,00 18.514,24 2.480,77 2.963,39 0,00 0,00 5.444,16 13.070,08 30/04/2022
187 186400 ANA CRISTINA DE AZEVEDO LOPES OFICIAL DO MP UBÁ - COMARCA; UBA-PJ-01PJ 16.695,70 6.678,28 0,00 0,00 0,00 0,00 342,82 5.456,84 29.173,64 3.533,05 4.586,90 0,00 0,00 8.119,95 21.053,69 30/04/2022
188 693000 ANA CRISTINA DE MELO SILVEIRA ASSESSOR PROCURADOR JUSTICA BELO HORIZONTE - COMARCA; COORD DE CONTROLE CONSTITUCIONALIDADE 0,00 0,00 7.857,77 0,00 0,00 0,00 0,00 2.602,30 10.460,07 828,38 1.393,17 0,00 0,00 2.221,55 8.238,52 30/04/2022
189 465100 ANA CRISTINA DE OLIVEIRA GUIMARAES ANALISTA DO MP ITAJUBA - COMARCA; ITAJUBA-PJ-05PJ 11.008,33 2.201,67 0,00 0,00 0,00 0,00 0,00 2.602,30 15.812,30 1.906,81 2.134,74 0,00 0,00 4.041,55 11.770,75 30/04/2022
190 500600 ANA CRISTINA LATADO SUDARIO ANALISTA DO MP UBERLÂNDIA - COMARCA; UBERLANDIA-PJ-09PJ 11.008,33 2.201,67 0,00 0,00 0,00 0,00 0,00 1.717,00 14.927,00 1.906,81 2.239,02 0,00 0,00 4.145,83 10.781,17 30/04/2022
191 331400 ANA CRISTINA RIBEIRO ALVES OFICIAL DO MP BAMBUÍ - COMARCA; BAMBUI-PJ-UNPJ 11.008,33 3.302,50 0,00 0,00 0,00 0,00 0,00 1.717,00 16.027,83 2.082,95 2.441,17 0,00 0,00 4.524,12 11.503,71 30/04/2022
192 249300 ANA ELOINA MARTINS OFICIAL DO MP BETIM - COMARCA; BETIM-PJ-02PJ 14.224,47 5.689,79 0,00 0,00 0,00 0,00 511,13 7.292,99 27.718,38 2.979,50 3.787,70 0,00 0,00 6.767,20 20.951,18 30/04/2022
193 257400 ANA FLAVIA CAMBRAIA ANALISTA DO MP BELO HORIZONTE - COMARCA; BH-19PJ SAUDE-SECRETARIA 150PJ 20.574,59 6.172,38 0,00 0,00 0,00 0,00 490,36 7.066,39 34.303,72 4.072,73 5.313,92 0,00 0,00 9.386,65 24.917,07 30/04/2022
194 248201 ANA FLAVIA DE MORAIS SOUZA ANALISTA DO MP DIVINÓPOLIS - COMARCA; DIVINOPOLIS-PJ-01PJ 12.118,97 3.635,69 0,00 0,00 0,00 0,00 0,00 2.602,30 18.356,96 2.313,96 2.722,56 0,00 0,00 5.036,52 13.320,44 30/04/2022
195 621100 ANA FLAVIA DINIZ TEODORO OFICIAL DO MP SANTA LUZIA - COMARCA; SANTA LUZIA-PJ-06PJ 6.483,63 648,36 0,00 0,00 0,00 0,00 0,00 1.717,00 8.848,99 934,33 835,00 0,00 0,00 1.769,33 7.079,66 30/04/2022
196 238600 ANA FLAVIA FRANCO OFICIAL DO MP BELO HORIZONTE - COMARCA; DIRETORIA DE PESSOAL ADMINISTRATIVO - DPAD 15.659,55 4.697,87 0,00 0,00 0,00 0,00 74,64 2.531,30 22.963,36 3.050,40 3.890,07 0,00 0,00 6.940,47 16.022,89 30/04/2022
197 690000 ANA FLAVIA LURIAN DE PAIVA ASSESSOR PROCURADOR JUSTICA BELO HORIZONTE - COMARCA; GABINETE DE PROCURADOR DE JUSTIÇA - SALA 609 0,00 0,00 7.857,77 0,00 0,00 0,00 0,00 1.717,00 9.574,77 828,38 1.393,17 0,00 0,00 2.221,55 7.353,22 30/04/2022
198 402900 ANA FLAVIA PORTES DE CARVALHO ANALISTA DO MP BELO HORIZONTE - COMARCA; DIRET DE PLANOS PROJETOS E PROGRAMAS INST 16.169,47 3.233,89 0,00 0,00 0,00 0,00 71,15 2.493,13 21.967,64 2.897,75 3.617,55 0,00 0,00 6.515,30 15.452,34 30/04/2022
199 382700 ANA KARENINA SALDANHA GONTIJO ANALISTA DO MP BELO HORIZONTE - COMARCA; ASSESS TECNICO-JUR JUNTO AS PROC. DE JUST 15.659,55 3.131,91 0,00 0,00 0,00 0,00 0,00 1.717,00 20.508,46 2.799,85 3.528,33 0,00 0,00 6.328,18 14.180,28 30/04/2022
200 620500 ANA KARINE DE ANDRADE OLIVEIRA ANALISTA DO MP RIBEIRÃO DAS NEVES - COMARCA; RIBEIRAO NEVES-SEC PJ EXECUCAO PENAL 9.223,00 922,30 0,00 0,00 0,00 0,00 0,00 1.717,00 11.862,30 1.416,46 1.531,07 0,00 0,00 2.947,53 8.914,77 30/04/2022
201 462200 ANA LUCIA ANDRADE TOMICH OTTONI ANALISTA DO MP TEÓFILO OTONI - COMARCA; TEOFILO OTONI-PJ-07PJ 11.008,33 2.201,67 0,00 0,00 0,00 0,00 0,00 2.602,30 15.812,30 1.906,81 2.134,74 0,00 0,00 4.041,55 11.770,75 30/04/2022
202 504100 ANA LUCIA CATAO DE CARVALHO OFICIAL DO MP BELO HORIZONTE - COMARCA; DIR RELACOES INSTITUCIONAIS 8.650,50 1.730,10 0,00 0,00 0,00 0,00 0,00 1.717,00 12.097,60 1.454,11 1.533,29 0,00 0,00 2.987,40 9.110,20 30/04/2022
203 274700 ANA LUCIA DE ALENCAR BRAGATO OFICIAL DO MP UBERABA - COMARCA; UBERABA-PJ-07PJ 11.008,33 3.302,50 0,00 0,00 0,00 0,00 0,00 1.717,00 16.027,83 2.082,95 2.493,31 0,00 0,00 4.576,26 11.451,57 30/04/2022
204 509400 ANA LUCIA DORNELAS MALLOSTO ANALISTA DO MP JUIZ DE FORA - COMARCA; JUIZ DE FORA-PJ-25PJ 11.008,33 2.201,67 0,00 0,00 0,00 0,00 0,00 1.717,00 14.927,00 1.906,81 2.186,88 0,00 0,00 4.093,69 10.833,31 30/04/2022
205 302600 ANA LUCIA LOPES SANTOS OFICIAL DO MP BELO HORIZONTE - COMARCA; DIVISÃO DE FISCALIZAÇÃO DAS RELAÇÕES DE CONSU 11.008,33 3.302,50 0,00 0,00 5.296,94 0,00 1.580,00 1.717,00 22.904,77 2.082,95 4.332,33 0,00 0,00 6.415,28 16.489,49 30/04/2022
206 716700 ANA LUISA DE LANA COELHO ASSESSOR PROCURADOR JUSTICA BELO HORIZONTE - COMARCA; GABINETE DE PROCURADOR DE JUSTIÇA - SALA 715 0,00 0,00 7.857,77 0,00 0,00 0,00 0,00 1.717,00 9.574,77 828,38 1.393,17 0,00 0,00 2.221,55 7.353,22 30/04/2022
207 702000 ANA LUISA DE OLIVEIRA RIBEIRO ASSESSOR PROCURADOR JUSTICA BELO HORIZONTE - COMARCA; ASSESS TECNICO-JUR JUNTO AS PROC. DE JUST 0,00 0,00 7.857,77 0,00 0,00 0,00 0,00 1.717,00 9.574,77 828,38 1.393,17 0,00 0,00 2.221,55 7.353,22 30/04/2022
208 493400 ANA LUISA NOGUEIRA MOREIRA ANALISTA DO MP BELO HORIZONTE - COMARCA; BH-19PJ SAUDE-SECRETARIA 130PJ 11.008,33 2.201,67 0,00 0,00 0,00 0,00 0,00 1.717,00 14.927,00 1.906,81 2.239,02 0,00 0,00 4.145,83 10.781,17 30/04/2022
209 389300 ANA LUISA REUTER LIMA ASSESSOR/ANALISTA BELO HORIZONTE - COMARCA; DIRETORIA DE SISTEMAS DE INFORMACAO 16.169,47 3.233,89 2.937,52 0,00 0,00 0,00 0,00 1.717,00 24.057,88 2.897,75 4.477,50 0,00 0,00 7.375,25 16.682,63 30/04/2022
210 480600 ANA LUIZA FERNANDES FRAGA E GRECO COORDENADOR/OFICIAL BELO HORIZONTE - COMARCA; OUVIDORIA DO MPMG 0,00 2.584,19 12.920,95 0,00 0,00 0,00 0,00 1.717,00 17.222,14 1.401,74 3.009,07 0,00 0,00 4.410,81 12.811,33 30/04/2022
211 517800 ANA LUIZA MAGALHAES CIRINO PIOTO DE MELO OFICIAL DO MP BELO HORIZONTE - COMARCA; DIVISAO DE MATERIAIS 5.889,39 588,94 0,00 0,00 0,00 0,00 0,00 3.487,60 9.965,93 832,79 683,16 0,00 0,00 1.515,95 8.449,98 30/04/2022
212 481400 ANA MARCIA CANDIDA FERREIRA OFICIAL DO MP BRUMADINHO - COMARCA; BRUMADINHO-PJ-02PJ 6.694,66 1.338,93 0,00 0,00 0,00 0,00 0,00 1.717,00 9.750,59 1.078,59 1.043,27 0,00 0,00 2.121,86 7.628,73 30/04/2022
213 716200 ANA MARIA COUTO GONTIJO ASSESSOR PROCURADOR JUSTICA BELO HORIZONTE - COMARCA; GABINETE DE PROCURADOR DE JUSTIÇA - SALA 1014 0,00 0,00 7.857,77 0,00 0,00 0,00 0,00 1.717,00 9.574,77 828,38 1.393,17 0,00 0,00 2.221,55 7.353,22 30/04/2022
214 643100 ANA MARIA LOPES MIRANDA ANALISTA DO MP BELO HORIZONTE - COMARCA; CAO-FUNDACOES 9.223,00 922,30 0,00 0,00 0,00 0,00 0,00 2.602,30 12.747,60 927,17 1.539,48 0,00 0,00 2.466,65 10.280,95 30/04/2022
215 556400 ANA MARIA OLIVEIRA SOUZA OFICIAL DO MP ITAPECERICA - COMARCA; ITAPECERICA-PJ-UNPJ 6.694,66 669,47 0,00 0,00 0,00 0,00 0,00 1.717,00 9.081,13 971,47 888,62 0,00 0,00 1.860,09 7.221,04 30/04/2022
216 409600 ANA OLIVIA FARIA ROSENBURG ANALISTA DO MP BELO HORIZONTE - COMARCA; DIRETORIA DO COLEGIO E DA CAMARA DE PJ 15.659,55 4.697,87 0,00 0,00 0,00 0,00 0,00 1.717,00 22.074,42 3.050,40 3.890,07 0,00 0,00 6.940,47 15.133,95 30/04/2022
217 461500 ANA PAULA ALVES CARVALHO ANALISTA DO MP UBERLÂNDIA - COMARCA; UBERLANDIA-PJ-25PJ 11.008,33 2.201,67 0,00 0,00 0,00 0,00 0,00 1.717,00 14.927,00 1.906,81 2.134,74 0,00 0,00 4.041,55 10.885,45 30/04/2022
218 523200 ANA PAULA ALVES DA SILVA OFICIAL DO MP GOVERNADOR VALADARES - COMARCA; GOVERNADOR VALADARES-PJ-10PJ 8.377,76 1.675,55 0,00 0,00 0,00 0,00 0,00 5.258,20 15.311,51 927,17 1.474,88 0,00 0,00 2.402,05 12.909,46 30/04/2022
219 381200 ANA PAULA BARROS PEREIRA RIGHI ANALISTA DO MP BELO HORIZONTE - COMARCA; PROC JUST ATUACAO TRIBUNAIS SUPERIORES-GAB003 16.169,47 3.233,89 0,00 0,00 0,00 0,00 0,00 2.602,30 22.005,66 927,17 3.905,44 0,00 0,00 4.832,61 17.173,05 30/04/2022
220 696400 ANA PAULA CARVALHO SILVA ASSESSOR PROMOTOR JUSTICA PERDÕES - COMARCA; PERDOES-PJ-UNPJ 0,00 0,00 7.857,77 0,00 0,00 0,00 0,00 2.602,30 10.460,07 828,38 1.341,04 0,00 0,00 2.169,42 8.290,65 30/04/2022
221 700900 ANA PAULA CRAVO SALOME ASSESSOR BELO HORIZONTE - COMARCA; PROCURADOR-GERAL DE JUSTIÇA 0,00 0,00 3.363,05 0,00 0,00 0,00 0,00 1.717,00 5.080,05 474,72 283,29 0,00 0,00 758,01 4.322,04 30/04/2022
222 227200 ANA PAULA DA SILVA CAMPOLINA ANALISTA DO MP BELO HORIZONTE - COMARCA; DIRETORIA DE ORCAMENTO-DIOR/SPC 20.574,59 10.287,30 0,00 0,00 0,00 0,00 452,64 6.654,90 37.969,43 4.731,12 6.316,60 0,00 0,00 11.047,72 26.921,71 30/04/2022
223 278500 ANA PAULA DIAS CAPANEMA OFICIAL DO MP BELO HORIZONTE - COMARCA; DIRETORIA DE SEGURANCA 11.008,33 3.302,50 0,00 0,00 0,00 0,00 0,00 1.717,00 16.027,83 2.082,95 2.493,31 0,00 0,00 4.576,26 11.451,57 30/04/2022
224 327300 ANA PAULA GARCIA MAXIMO OFICIAL DO MP UNAÍ - COMARCA; UNAI-PJ-01PJ 13.341,69 5.336,68 0,00 0,00 0,00 0,00 68,49 2.464,13 21.210,99 2.781,75 3.345,80 0,00 0,00 6.127,55 15.083,44 30/04/2022
225 270000 ANA PAULA GOULART CRUZ DE MAGALHAES ANALISTA DO MP BELO HORIZONTE - COMARCA; ASSESSORIA ESPECIAL DO PGJ 20.574,59 6.172,38 0,00 0,00 0,00 0,00 0,00 1.717,00 28.463,97 4.072,73 5.366,06 0,00 0,00 9.438,79 19.025,18 30/04/2022
226 262100 ANA PAULA KOMATSUZAKI ABIJAUDI ANALISTA DO MP BELO HORIZONTE - COMARCA; BH-17PJ PATRIMONIO PUBLICO-SECRETARIA 20.574,59 8.229,84 0,00 0,00 0,00 0,00 0,00 1.717,00 30.521,43 4.401,92 5.737,06 0,00 0,00 10.138,98 20.382,45 30/04/2022
227 278900 ANA PAULA MOREIRA GURGEL COORDENADOR/ANALISTA BELO HORIZONTE - COMARCA; ASSESSORIA JURIDICO-ADMINISTRATIVA 20.574,59 8.229,84 3.807,46 0,00 0,00 0,00 1.861,89 6.934,90 41.408,68 4.401,92 7.268,87 0,00 0,00 11.670,79 29.737,89 30/04/2022
228 425701 ANA PAULA ROCHA ANALISTA DO MP BELO HORIZONTE - COMARCA; ASSESSORIA DE COMUNICACAO INTEGRADA 11.008,33 1.100,83 0,00 0,00 0,00 0,00 0,00 2.602,30 14.711,46 1.730,68 1.984,72 0,00 0,00 3.715,40 10.996,06 30/04/2022
229 395601 ANA PAULA SALGE OLIVEIRA ANALISTA DO MP UBERABA - COMARCA; UBERABA-PJ-15PJ 11.008,33 3.302,50 0,00 0,00 0,00 0,00 0,00 1.717,00 16.027,83 2.082,95 2.493,31 0,00 0,00 4.576,26 11.451,57 30/04/2022
230 473200 ANA PAULA SCOTTON BRASIL ANALISTA DO MP JUIZ DE FORA - COMARCA; JUIZ DE FORA-PJ-07PJ 11.008,33 2.201,67 0,00 0,00 0,00 0,00 0,00 1.717,00 14.927,00 1.906,81 2.239,02 0,00 0,00 4.145,83 10.781,17 30/04/2022
231 633600 ANA PAULA SILVA FERNANDES OFICIAL DO MP CATAGUASES - COMARCA; CATAGUASES-PJ-04PJ 6.483,63 648,36 0,00 0,00 0,00 0,00 0,00 1.728,72 8.860,71 934,33 835,00 0,00 0,00 1.769,33 7.091,38 30/04/2022
232 470900 ANA PAULA VALADARES ANALISTA DO MP PITANGUI - COMARCA; PITANGUI-PJ-01PJ 11.008,33 2.201,67 0,00 0,00 0,00 0,00 0,00 1.717,00 14.927,00 1.906,81 2.134,74 0,00 0,00 4.041,55 10.885,45 30/04/2022
233 447000 ANA PAULA VALENTIM DE ARAUJO ANALISTA DO MP BELO HORIZONTE - COMARCA; PROC JUST ESP ACOES COMP ORIG CRIMINAL-ASSESS 11.736,91 2.347,38 0,00 0,00 0,00 0,00 0,00 1.717,00 15.801,29 2.046,70 2.440,98 0,00 0,00 4.487,68 11.313,61 30/04/2022
234 604200 ANA PAULA VIANA E SILVA OFICIAL DO MP BELO HORIZONTE - COMARCA; BH-17PJ PATRIMONIO PUBLICO-SECRETARIA 6.694,66 669,47 0,00 0,00 0,00 0,00 0,00 1.717,00 9.081,13 971,47 888,62 0,00 0,00 1.860,09 7.221,04 30/04/2022
235 505400 ANA PAULA VIEIRA SOUTO OFICIAL DO MP ALMENARA - COMARCA; ALMENARA-PJ-01PJ 6.694,66 2.008,40 0,00 0,00 0,00 0,00 0,00 1.717,00 10.420,06 1.185,70 1.145,78 0,00 0,00 2.331,48 8.088,58 30/04/2022
236 280200 ANA RACHEL BRANDAO LADEIRA ROLAND DIRETOR/ANALISTA BELO HORIZONTE - COMARCA; SUPERINTENDENCIA GESTÃO DE PESSOAS 19.791,01 5.937,30 3.807,46 0,00 0,00 0,00 0,00 1.717,00 31.252,77 3.909,74 6.177,80 0,00 0,00 10.087,54 21.165,23 30/04/2022
237 691000 ANA RACHEL DOS REIS E SENA COSTA ASSESSOR PROMOTOR JUSTICA BELO HORIZONTE - COMARCA; GABINETE DE PROCURADOR DE JUSTIÇA - SALA 601 0,00 0,00 7.857,77 0,00 0,00 0,00 0,00 1.717,00 9.574,77 828,38 1.393,17 0,00 0,00 2.221,55 7.353,22 30/04/2022
238 601200 ANA REGINA RIBEIRO COORDENADOR/ANALISTA BELO HORIZONTE - COMARCA; DIV FISCAL ADM CONT TERCEIRIZACAO 0,00 1.292,10 12.920,95 0,00 0,00 0,00 0,00 1.717,00 15.930,05 927,17 2.637,29 0,00 0,00 3.564,46 12.365,59 30/04/2022
239 384700 ANA RODRIGUES PEREIRA MARRA ANALISTA DO MP COROMANDEL - COMARCA; COROMANDEL-PJ-01PJ 11.008,33 2.201,67 0,00 0,00 0,00 0,00 0,00 2.602,30 15.812,30 1.906,81 2.134,74 0,00 0,00 4.041,55 11.770,75 30/04/2022
240 232700 ANA SILVIA SEMBLANO NAKAMURA ASSESSOR/OFICIAL BELO HORIZONTE - COMARCA; CENT DE APOIO TEC-SETOR DEF,IDOSO E INFANC 0,00 3.410,04 11.366,79 0,00 0,00 0,00 0,00 1.717,00 16.493,83 2.082,95 2.621,46 0,00 0,00 4.704,41 11.789,42 30/04/2022
241 602100 ANACLETO FRANCISCO MARCIER PIMENTA OFICIAL DO MP SÃO JOÃO DEL REI - COMARCA; SAO JOAO DEL REI-PJ-03PJ 6.081,20 608,12 0,00 0,00 -2.039,63 0,00 0,00 3.487,60 8.137,29 865,50 0,00 0,00 0,00 865,50 7.271,79 30/04/2022
242 310400 ANADEJE DO CARMO DINIZ ARAUJO OFICIAL DO MP BELO HORIZONTE - COMARCA; DIRETORIA DE PESSOAL ADMINISTRATIVO - DPAD 11.008,33 3.302,50 0,00 0,00 0,00 0,00 0,00 1.717,00 16.027,83 2.082,95 2.493,31 0,00 0,00 4.576,26 11.451,57 30/04/2022
243 337000 ANAILDES MARIA MENDES OFICIAL DO MP JANAÚBA - COMARCA; JANAUBA-PJ-02PJ 11.008,33 3.302,50 0,00 0,00 0,00 0,00 0,00 2.602,30 16.913,13 2.082,95 2.493,31 0,00 0,00 4.576,26 12.336,87 30/04/2022
244 192900 ANATALIA CERQUEIRA LIMA PERES OFICIAL DO MP UBERABA - COMARCA; COORD REG SAUDE MACROR SANIT TRIANGULO SUL 12.513,51 5.005,40 0,00 0,00 0,00 0,00 0,00 1.717,00 19.235,91 2.596,24 3.234,37 0,00 0,00 5.830,61 13.405,30 30/04/2022
245 377400 ANDEIRSON DA MATTA BARBOSA ANALISTA DO MP POUSO ALEGRE - COMARCA; POUSO ALEGRE-PJ-01PJ 11.008,33 2.201,67 0,00 0,00 0,00 0,00 0,00 2.602,30 15.812,30 1.906,81 2.239,02 0,00 0,00 4.145,83 11.666,47 30/04/2022
246 317400 ANDERSON DA SILVA BICALHO OFICIAL DO MP CONTAGEM - COMARCA; CONTAGEM-PJ-SECRETARIA 10.325,15 3.097,55 0,00 0,00 0,00 0,00 0,00 1.717,00 15.139,70 1.940,85 2.131,74 0,00 0,00 4.072,59 11.067,11 30/04/2022
247 506900 ANDERSON DE SOUZA DAMIANI ANALISTA DO MP BELO HORIZONTE - COMARCA; DIRETORIA DE PAGAMENTO DE PESSOAL-DPAG 11.008,33 3.302,50 0,00 0,00 0,00 0,00 0,00 1.717,00 16.027,83 2.082,95 2.389,03 0,00 0,00 4.471,98 11.555,85 30/04/2022
248 410000 ANDERSON DE SOUZA NETO ASSESSOR BELO HORIZONTE - COMARCA; DIRETORIA DE ADMINISTRACAO FINANCEIRA 0,00 0,00 5.615,13 0,00 0,00 0,00 0,00 1.717,00 7.332,13 790,01 787,00 0,00 0,00 1.577,01 5.755,12 30/04/2022
249 181900 ANDERSON FLAVIO DE OLIVEIRA OFICIAL DO MP ITAGUARA - COMARCA; ITAGUARA-PJ-SECRETARIA 15.659,55 6.263,82 0,00 0,00 0,00 0,00 0,00 1.717,00 23.640,37 3.300,95 4.251,80 0,00 0,00 7.552,75 16.087,62 30/04/2022
250 333200 ANDERSON JOSE DE FREITAS OFICIAL DO MP IPATINGA - COMARCA; IPATINGA-PJ-04PJ 11.008,33 3.302,50 0,00 0,00 0,00 0,00 1.580,00 2.602,30 18.493,13 2.082,95 2.771,40 0,00 0,00 4.854,35 13.638,78 30/04/2022
251 699400 ANDERSON LUIZ CABRAL ASSESSOR PROMOTOR JUSTICA ALÉM PARAÍBA - COMARCA; ALEM PARAIBA-PJ-03PJ 0,00 0,00 7.857,77 0,00 0,00 0,00 0,00 1.717,00 9.574,77 828,38 1.393,17 0,00 0,00 2.221,55 7.353,22 30/04/2022
252 462100 ANDERSON LUIZ GUIMARAES CARDOSO ANALISTA DO MP BARBACENA - COMARCA; BARBACENA-PJ-02PJ 12.118,97 2.423,79 0,00 0,00 0,00 0,00 159,97 3.462,13 18.164,86 2.120,06 2.546,88 0,00 0,00 4.666,94 13.497,92 30/04/2022
253 429700 ANDERSON MELO DE SOUZA ASSESSOR/OFICIAL BELO HORIZONTE - COMARCA; DIRET DE ESTAGIOS E CONVENIOS ACADEMICOS 0,00 2.273,36 11.366,79 0,00 0,00 0,00 0,00 1.717,00 15.357,15 1.078,59 2.585,07 0,00 0,00 3.663,66 11.693,49 30/04/2022
254 545600 ANDERSON MENDES PROCOPIO FERREIRA ANALISTA DO MP BELO HORIZONTE - COMARCA; BH-12PJ JUIZO CRIMINAL-GAB 089PJ 11.008,33 1.100,83 0,00 0,00 0,00 0,00 0,00 1.717,00 13.826,16 1.730,68 1.984,72 0,00 0,00 3.715,40 10.110,76 30/04/2022
255 519900 ANDERSON MOREIRA DOEHLER ANALISTA DO MP TEÓFILO OTONI - COMARCA; COORD REG SAUDE MACRORREGIAO SANIT NORDESTE 11.008,33 3.302,50 0,00 0,00 0,00 0,00 0,00 1.717,00 16.027,83 2.082,95 2.493,31 0,00 0,00 4.576,26 11.451,57 30/04/2022
256 103000 ANDERSON TADEU DE DEUS ASSESSOR BELO HORIZONTE - COMARCA; BH-26 CRIME CONT CRIAN ADOL-SECRETARIA 0,00 3.930,59 5.615,13 0,00 0,00 0,00 0,00 1.717,00 11.262,72 828,38 1.857,36 0,00 0,00 2.685,74 8.576,98 30/04/2022
257 309200 ANDITYAS SOARES DE MOURA COSTA MATOS ANALISTA DO MP BELO HORIZONTE - COMARCA; GABINETE DE PROCURADOR DE JUSTIÇA - SALA 909 16.695,70 5.008,71 0,00 0,00 0,00 0,00 0,00 1.717,00 23.421,41 3.265,92 4.201,22 0,00 0,00 7.467,14 15.954,27 30/04/2022
258 519200 ANDRE BORJA LANA ANALISTA DO MP BELO HORIZONTE - COMARCA; DIR CONTEUDO JORNALISTICO 11.008,33 2.201,67 0,00 0,00 0,00 0,00 0,00 1.717,00 14.927,00 1.906,81 2.239,02 0,00 0,00 4.145,83 10.781,17 30/04/2022
259 637200 ANDRE FERNANDES DA CUNHA OFICIAL DO MP MORADA NOVA DE MINAS - COMARCA; MORADA NOVA DE MINAS-PJ-UNPJ 6.483,63 648,36 0,00 0,00 0,00 0,00 0,00 1.717,00 8.848,99 927,17 836,97 0,00 0,00 1.764,14 7.084,85 30/04/2022
260 651500 ANDRE GONCALVES MARANHAO OFICIAL DO MP ANDRADAS - COMARCA; ANDRADAS-PJ-02PJ 5.266,66 526,67 0,00 0,00 0,00 0,00 0,00 1.717,00 7.510,33 729,60 523,17 0,00 0,00 1.252,77 6.257,56 30/04/2022
261 521900 ANDRE LUIS GOMES SILVA ANALISTA DO MP FORMIGA - COMARCA; FORMIGA-PJ-02PJ 11.008,33 2.201,67 0,00 0,00 0,00 0,00 0,00 3.487,60 16.697,60 1.906,81 1.685,48 0,00 0,00 3.592,29 13.105,31 30/04/2022
262 304300 ANDRE LUIZ AVELAR ANALISTA DO MP BELO HORIZONTE - COMARCA; DIRETORIA DE REDES E BANCOS DE DADOS 9.223,00 2.766,90 0,00 0,00 0,00 0,00 0,00 1.717,00 13.706,90 1.711,60 1.905,04 0,00 0,00 3.616,64 10.090,26 30/04/2022
263 397400 ANDRE PATARO MYRRHA DE PAULA E SILVA ANALISTA DO MP BELO HORIZONTE - COMARCA; ASSESSORIA JURIDICO-ADMINISTRATIVA 16.169,47 3.233,89 0,00 0,00 0,00 0,00 0,00 2.602,30 22.005,66 2.897,75 3.669,68 0,00 0,00 6.567,43 15.438,23 30/04/2022
264 650100 ANDRE THOME VARGAS OFICIAL DO MP LEOPOLDINA - COMARCA; LEOPOLDINA-PJ-04PJ 5.703,71 570,37 0,00 0,00 0,00 0,00 0,00 1.717,00 7.991,08 801,71 635,54 0,00 0,00 1.437,25 6.553,83 30/04/2022
265 548500 ANDRE VINICIUS CARVALHO MEIRA ANALISTA DO MP JUIZ DE FORA - COMARCA; JUIZ DE FORA-PJ-24PJ 10.325,15 1.032,52 0,00 0,00 3.785,89 0,00 541,38 7.622,99 23.307,93 927,17 2.952,07 0,00 0,00 3.879,24 19.428,69 30/04/2022
266 297200 ANDRE WILLE ROSARIO ANALISTA DO MP BELO HORIZONTE - COMARCA; ASSESSORIA ESPECIAL DO PGJ 19.791,01 5.937,30 0,00 0,00 0,00 0,00 471,69 6.862,66 33.062,66 3.909,74 5.026,47 0,00 0,00 8.936,21 24.126,45 30/04/2022
267 423600 ANDREA COSTA GUALBERTO ALVES ANALISTA DO MP GOVERNADOR VALADARES - COMARCA; COORD REG PJ DEF EDU DIR CRIANCA ADOL RIODOCE 14.224,47 9.957,13 0,00 0,00 0,00 0,00 0,00 1.717,00 25.898,60 3.662,27 4.721,32 0,00 0,00 8.383,59 17.515,01 30/04/2022
268 467300 ANDREA DE CASSIA PENNA ALVERNAZ ANALISTA DO MP PONTE NOVA - COMARCA; PONTE NOVA-PJ-01PJ 11.008,33 2.201,67 0,00 0,00 0,00 0,00 0,00 1.717,00 14.927,00 1.906,81 2.186,88 0,00 0,00 4.093,69 10.833,31 30/04/2022
269 308000 ANDREA DE CASSIA SANTOS OLIVEIRA ANALISTA DO MP BELO HORIZONTE - COMARCA; COORD DE GABINETE DO PGJ 19.037,29 5.711,19 0,00 0,00 0,00 0,00 544,47 7.656,64 32.949,59 3.752,97 4.852,27 0,00 0,00 8.605,24 24.344,35 30/04/2022
270 349500 ANDREA DE OLIVEIRA LOIOLA REGIS OFICIAL DO MP IGUATAMA - COMARCA; IGUATAMA-PJ-UNPJ 11.008,33 3.302,50 0,00 0,00 0,00 0,00 0,00 1.717,00 16.027,83 2.082,95 2.441,17 0,00 0,00 4.524,12 11.503,71 30/04/2022
271 287900 ANDREA FERNANDES PENA MARTINS OFICIAL DO MP MONTES CLAROS - COMARCA; MONTES CLAROS-PJ-09PJ 11.008,33 3.302,50 0,00 0,00 0,00 0,00 0,00 1.717,00 16.027,83 2.082,95 2.389,03 0,00 0,00 4.471,98 11.555,85 30/04/2022
272 300800 ANDREA FERREIRA ANALISTA DO MP LAVRAS - COMARCA; LAVRAS-PJ-04PJ 18.312,36 5.493,71 0,00 0,00 7.935,36 0,00 523,73 7.430,46 39.695,62 3.602,18 6.868,93 0,00 0,00 10.471,11 29.224,51 30/04/2022
273 395100 ANDREA LANNA MENDES NOVAIS ANALISTA DO MP BELO HORIZONTE - COMARCA; PROMOT ESTADUAL DE DEF PATRI CULT E TUR DE MG 16.169,47 3.233,89 0,00 0,00 0,00 0,00 0,00 1.717,00 21.120,36 2.897,75 3.565,41 0,00 0,00 6.463,16 14.657,20 30/04/2022
274 67300 ANDREA LEAO MAGALHAES ROQUE ASSESSOR BELO HORIZONTE - COMARCA; COORD ESTADUAL COMBATE CRIMES CIBERNETICOS 0,00 7.956,76 11.366,79 0,00 0,00 0,00 0,00 1.717,00 21.040,55 828,38 4.494,12 0,00 0,00 5.322,50 15.718,05 30/04/2022
275 335700 ANDREA LOPES PEREIRA ANALISTA DO MP GOVERNADOR VALADARES - COMARCA; COORD REG DO MA DA BACIA DO RIO DOCE 19.037,29 5.711,19 0,00 0,00 0,00 0,00 544,47 7.656,64 32.949,59 3.752,97 4.904,41 0,00 0,00 8.657,38 24.292,21 30/04/2022
276 389200 ANDREA TUPINI DOS SANTOS TRISTAO DA ROCHA COORDENADOR/OFICIAL BELO HORIZONTE - COMARCA; BH-13ª PJ JUÍZO DE TÓXICOS-SECRETARIA 0,00 2.584,19 12.920,95 0,00 0,00 2.274,04 511,67 7.298,85 25.589,70 2.274,04 3.394,55 0,00 0,00 5.668,59 19.921,11 30/04/2022
277 419000 ANDREIA BARBOSA DE ALMEIDA ANALISTA DO MP BELO HORIZONTE - COMARCA; SUPER DE GESTAO DE PESSOAS-LOTACAO TEMPORARIA 14.224,47 2.844,89 0,00 0,00 0,00 0,00 0,00 1.717,00 18.786,36 2.524,31 3.130,53 0,00 0,00 5.654,84 13.131,52 30/04/2022
278 281501 ANDREIA CARLA COSTA ANALISTA DO MP UBÁ - COMARCA; UBA-PJ-02PJ 15.659,55 3.131,91 0,00 0,00 0,00 0,00 68,90 2.468,66 21.329,02 2.799,85 3.528,33 0,00 0,00 6.328,18 15.000,84 30/04/2022
279 477100 ANDREIA DE ALMEIDA RIBEIRO MELO OFICIAL DO MP CONTAGEM - COMARCA; CONTAGEM-PJ-SECRETARIA 8.650,50 1.730,10 0,00 0,00 0,00 0,00 0,00 1.717,00 12.097,60 1.454,11 1.585,42 0,00 0,00 3.039,53 9.058,07 30/04/2022
280 619000 ANDREIA FERREIRA NORONHA COORDENADOR/OFICIAL BELO HORIZONTE - COMARCA; DIRETORIA DE SERVICO CRIMINAL 0,00 1.468,76 14.687,60 0,00 0,00 0,00 0,00 1.717,00 17.873,36 934,33 3.316,70 0,00 0,00 4.251,03 13.622,33 30/04/2022
281 424000 ANDREIA LUCIA COUTO ANALISTA DO MP BELO HORIZONTE - COMARCA; BH-18PJ DIREITOS HUMANOS-SECRETARIA 15.659,55 3.131,91 0,00 0,00 0,00 0,00 0,00 1.717,00 20.508,46 2.799,85 3.528,33 0,00 0,00 6.328,18 14.180,28 30/04/2022
282 370100 ANDREIA MARIA SILVA PINTO OFICIAL DO MP CORONEL FABRICIANO - COMARCA; CORONEL FABRICIANO-PJ-01PJ 11.008,33 2.201,67 0,00 0,00 0,00 0,00 0,00 2.602,30 15.812,30 927,17 2.382,14 0,00 0,00 3.309,31 12.502,99 30/04/2022
283 382100 ANDREIA NATALI PEREIRA DE OLIVEIRA OFICIAL DO MP PRADOS - COMARCA; PRADOS-PJ-UNPJ 9.999,62 1.999,92 0,00 0,00 0,00 0,00 0,00 1.717,00 13.716,54 1.713,14 1.959,40 0,00 0,00 3.672,54 10.044,00 30/04/2022
284 275200 ANDREIA RIBEIRO FREITAS OFICIAL DO MP VIÇOSA - COMARCA; VICOSA-PJ-04PJ 11.008,33 3.302,50 0,00 0,00 0,00 0,00 0,00 1.717,00 16.027,83 2.082,95 2.441,17 0,00 0,00 4.524,12 11.503,71 30/04/2022
285 352200 ANDREIA XAVIER PEREIRA OFICIAL DO MP CLÁUDIO - COMARCA; CLAUDIO-PJ-UNPJ 11.008,33 3.302,50 0,00 0,00 0,00 0,00 0,00 1.717,00 16.027,83 2.082,95 2.493,31 0,00 0,00 4.576,26 11.451,57 30/04/2022
286 638500 ANDRESA ALVES FEITOSA CASAGRANDE ANALISTA DO MP LAVRAS - COMARCA; COORD REG DO MA DA BACIA DO RIO GRANDE 9.223,00 922,30 0,00 0,00 0,00 0,00 0,00 1.717,00 11.862,30 927,17 1.665,63 0,00 0,00 2.592,80 9.269,50 30/04/2022
287 383700 ANDRESSA EDUARDO SOUZA ANALISTA DO MP OURO BRANCO - COMARCA; OURO BRANCO-PJ-SECRETARIA 16.169,47 3.233,89 0,00 0,00 0,00 0,00 0,00 2.602,30 22.005,66 2.897,75 3.669,68 0,00 0,00 6.567,43 15.438,23 30/04/2022
288 678400 ANDRESSA LUIZA SILVA LOPES ASSESSOR PROMOTOR JUSTICA CARMO DO PARANAÍBA - COMARCA; CARMO DO PARANAIBA-PJ-02PJ 0,00 0,00 7.857,77 0,00 2.619,26 0,00 0,00 1.717,00 12.194,03 828,38 2.113,47 0,00 0,00 2.941,85 9.252,18 30/04/2022
289 426200 ANDRESSA MENDES CASAL OFICIAL DO MP BELO HORIZONTE - COMARCA; DIR ESTRUTURA E PROCESSOS ORGANIZACIONAIS 8.377,76 1.675,55 0,00 0,00 0,00 0,00 0,00 2.602,30 12.655,61 1.401,74 1.457,68 0,00 0,00 2.859,42 9.796,19 30/04/2022
290 390100 ANDRESSA RIBEIRO PUCCI OFICIAL DO MP UBERABA - COMARCA; UBERABA-PJ-14PJ 7.609,96 1.521,99 0,00 0,00 0,00 0,00 0,00 1.717,00 10.848,95 1.254,33 1.296,99 0,00 0,00 2.551,32 8.297,63 30/04/2022
291 462500 ANDREZA APARECIDA COSTA E SILVA ANALISTA DO MP CONSELHEIRO LAFAIETE - COMARCA; CONSELHEIRO LAFAIETE-PJ-02PJ 11.008,33 2.201,67 0,00 0,00 0,00 0,00 0,00 1.717,00 14.927,00 927,17 2.382,14 0,00 0,00 3.309,31 11.617,69 30/04/2022
292 677700 ANDREZA DE LOURDES FERREIRA DE PAIVA ASSESSOR PROMOTOR JUSTICA ABRE CAMPO - COMARCA; ABRE CAMPO-PJ-01PJ 0,00 0,00 7.857,77 0,00 0,00 0,00 0,00 1.717,00 9.574,77 828,38 1.393,17 0,00 0,00 2.221,55 7.353,22 30/04/2022
293 537800 ANDREZZA LUZIA DE OLIVEIRA ALVES ANALISTA DO MP PATOS DE MINAS - COMARCA; COORD REG PJ DEF EDU DIR CRI ADO AL PAR NOROE 11.008,33 1.100,83 0,00 0,00 0,00 0,00 0,00 1.717,00 13.826,16 1.730,68 1.932,58 0,00 0,00 3.663,26 10.162,90 30/04/2022
294 491600 ANE PATRICIA RIBEIRO DUARTE ANALISTA DO MP SETE LAGOAS - COMARCA; SETE LAGOAS-PJ-11PJ 11.008,33 2.201,67 0,00 0,00 4.403,33 0,00 0,00 1.717,00 19.330,33 1.906,81 3.397,79 0,00 0,00 5.304,60 14.025,73 30/04/2022
295 465800 ANELISE GAMA ASSESSOR BELO HORIZONTE - COMARCA; BH-18PJ VIOLENCIA DOMESTICA-SECRETARIA 0,00 0,00 8.932,15 0,00 0,00 0,00 229,26 4.218,00 13.379,41 828,38 1.688,63 0,00 0,00 2.517,01 10.862,40 30/04/2022
296 535200 ANELIZE FERNANDA ALVES VILARINHO OFICIAL DO MP CAPINÓPOLIS - COMARCA; CAPINOPOLIS-PJ-UNPJ 6.694,66 669,47 0,00 0,00 0,00 0,00 0,00 3.487,60 10.851,73 971,47 888,62 0,00 0,00 1.860,09 8.991,64 30/04/2022
297 197200 ANGELA COELHO SALDANHA OFICIAL DO MP PARÁ DE MINAS - COMARCA; PARA DE MINAS-PJ-03PJ 18.312,36 7.324,94 0,00 0,00 0,00 0,00 0,00 1.717,00 27.354,30 3.895,18 5.109,72 0,00 0,00 9.004,90 18.349,40 30/04/2022
298 307400 ANGELA CRISTINA GONCALVES MUNIZ ANALISTA DO MP UBERLÂNDIA - COMARCA; UBERLANDIA-PJ-SEC FAMILIA 19.791,01 7.916,40 0,00 0,00 0,00 0,00 0,00 1.717,00 29.424,41 4.226,40 5.535,78 0,00 0,00 9.762,18 19.662,23 30/04/2022
299 191800 ANGELA MARIA DE OLIVEIRA OFICIAL DO MP GUARANÉSIA - COMARCA; GUARANESIA-PJ-SECRETARIA 18.312,36 12.818,66 0,00 0,00 0,00 4.774,18 456,59 6.697,96 43.059,75 4.774,18 7.691,67 0,00 0,00 12.465,85 30.593,90 30/04/2022
300 497400 ANGELA MARIA HENRIQUES ANALISTA DO MP BELO HORIZONTE - COMARCA; COORD REG BACIAS RIO VELHAS E PARAOPEBA 11.008,33 2.201,67 0,00 0,00 0,00 0,00 48,44 2.245,40 15.503,84 1.906,81 2.239,02 0,00 0,00 4.145,83 11.358,01 30/04/2022
301 260700 ANGELICA CRISTINA AZEVEDO MOREIRA MOUCO OFICIAL DO MP UBÁ - COMARCA; UBA-PJ-05PJ 14.224,47 4.267,34 0,00 0,00 0,00 0,00 67,80 2.456,67 21.016,28 2.751,90 3.459,11 0,00 0,00 6.211,01 14.805,27 30/04/2022
302 708300 ANGELICA NUNES VIEIRA DA SILVA ASSESSOR PROMOTOR JUSTICA IBIRITÉ - COMARCA; IBIRITE-PJ-02PJ 0,00 0,00 7.857,77 0,00 0,00 0,00 0,00 1.717,00 9.574,77 828,38 1.393,17 0,00 0,00 2.221,55 7.353,22 30/04/2022
303 334600 ANGELICA PANISSA DE FREITAS GALLATI OFICIAL DO MP GUAXUPÉ - COMARCA; GUAXUPE-PJ-02PJ 11.008,33 3.302,50 0,00 0,00 0,00 0,00 0,00 2.602,30 16.913,13 2.082,95 2.441,17 0,00 0,00 4.524,12 12.389,01 30/04/2022
304 521100 ANGELICA SALES MOREIRA OFICIAL DO MP BELO HORIZONTE - COMARCA; BH-02PJ FAMILIA-SECRETARIA 8.377,76 1.675,55 0,00 0,00 0,00 0,00 0,00 1.717,00 11.770,31 1.401,74 1.509,82 0,00 0,00 2.911,56 8.858,75 30/04/2022
305 466500 ANGELLO MARQUES AGRELLI ANALISTA DO MP MAR DE ESPANHA - COMARCA; MAR DE ESPANHA-PJ-UNPJ 11.008,33 2.201,67 0,00 0,00 0,00 0,00 0,00 1.717,00 14.927,00 1.906,81 2.239,02 0,00 0,00 4.145,83 10.781,17 30/04/2022
306 363300 ANGELO VERDOLIN HENRIQUES ANALISTA DO MP SETE LAGOAS - COMARCA; SETE LAGOAS-PJ-04PJ 18.312,36 7.324,94 0,00 0,00 0,00 0,00 470,02 6.844,46 32.951,78 3.895,18 5.109,72 0,00 0,00 9.004,90 23.946,88 30/04/2022
307 250900 ANISIO APARECIDO SANTOS OFICIAL DO MP BETIM - COMARCA; BETIM - SECRETARIA DAS PJS CRIMINAIS 6.694,66 2.677,86 0,00 0,00 0,00 0,00 0,00 1.717,00 11.089,52 1.292,82 684,69 0,00 0,00 1.977,51 9.112,01 30/04/2022
308 651200 ANITA MARIA SANT ANA DE MATTOS FONTES OFICIAL DO MP ERVÁLIA - COMARCA; ERVALIA-PJ-UNPJ 5.703,71 3.992,60 0,00 0,00 0,00 1.344,62 0,00 1.717,00 12.757,93 1.344,62 1.744,99 0,00 0,00 3.089,61 9.668,32 30/04/2022
309 698100 ANNA CAROLINA POLICARIO BERTOLIN ASSESSOR PROCURADOR JUSTICA BELO HORIZONTE - COMARCA; PROC. JUSTICA DIR. DIFUSOS E COLETIVOS-SEC 0,00 0,00 7.857,77 0,00 2.619,26 0,00 0,00 1.717,00 12.194,03 828,38 2.113,47 0,00 0,00 2.941,85 9.252,18 30/04/2022
310 253400 ANNA FLAVIA LEHMAN DIRETOR/ANALISTA BELO HORIZONTE - COMARCA; SUPRIN DE PLANEJAMENTO E COORDENACAO 20.574,59 6.172,38 3.807,46 0,00 0,00 0,00 448,13 6.605,71 37.608,27 4.072,73 6.256,70 0,00 0,00 10.329,43 27.278,84 30/04/2022
311 688800 ANNA LUIZA MATTOS DUARTE ASSESSOR PROCURADOR JUSTICA BELO HORIZONTE - COMARCA; GABINETE DE PROCURADOR DE JUSTIÇA - SALA 305 0,00 0,00 7.857,77 0,00 0,00 0,00 0,00 1.717,00 9.574,77 828,38 1.393,17 0,00 0,00 2.221,55 7.353,22 30/04/2022
312 447600 ANNGELUCE ALCANTARA DE CAMPOS OFICIAL DO MP DIVINÓPOLIS - COMARCA; DIVINOPOLIS-PJ-SECRETARIA 8.932,15 1.786,43 0,00 0,00 0,00 0,00 0,00 1.717,00 12.435,58 1.508,19 1.663,50 0,00 0,00 3.171,69 9.263,89 30/04/2022
313 119600 ANSELMO BORGES PARREIRAS OFICIAL DO MP BONFIM - COMARCA; BONFIM-PJ-UNPJ 8.932,15 7.145,73 0,00 0,00 0,00 2.365,67 0,00 1.717,00 20.160,55 2.365,67 3.499,92 0,00 0,00 5.865,59 14.294,96 30/04/2022
314 630300 ANTONIA GOMES RAMALHO OFICIAL DO MP NOVO CRUZEIRO - COMARCA; NOVO CRUZEIRO-PJ-UNPJ 6.483,63 648,36 0,00 0,00 0,00 0,00 0,00 3.487,60 10.619,59 934,33 835,00 0,00 0,00 1.769,33 8.850,26 30/04/2022
315 401600 ANTONIO CARLOS GUEDES AROUCA ANALISTA DO MP BELO HORIZONTE - COMARCA; ASSESSORIA JURIDICO-ADMINISTRATIVA 14.224,47 2.844,89 0,00 0,00 0,00 0,00 0,00 1.717,00 18.786,36 2.524,31 3.130,53 0,00 0,00 5.654,84 13.131,52 30/04/2022
316 333900 ANTONIO GONCALVES DE SOUZA FILHO OFICIAL DO MP BELO HORIZONTE - COMARCA; DIRETORIA DE CONTABILIDADE 11.008,33 3.302,50 0,00 0,00 0,00 0,00 0,00 1.717,00 16.027,83 2.082,95 2.493,31 0,00 0,00 4.576,26 11.451,57 30/04/2022
317 176100 ANTONIO MARCELO CAMPOS CAMPANELLA OFICIAL DO MP BELO HORIZONTE - COMARCA; COORD DE GABINETE DO PGJ 18.312,36 9.156,18 0,00 0,00 0,00 0,00 503,59 7.210,71 35.182,84 4.188,18 5.532,74 0,00 0,00 9.720,92 25.461,92 30/04/2022
318 321001 ANTONIO OLINTO VIEIRA MACHADO ANALISTA DO MP BELO HORIZONTE - COMARCA; CENTRAL DE APOIO TECN-SETOR DE MEIO AMBIENTE 16.169,47 3.233,89 0,00 0,00 0,00 0,00 71,15 2.493,13 21.967,64 2.897,75 3.565,41 0,00 0,00 6.463,16 15.504,48 30/04/2022
319 356200 ANTONIO PAULA DA SILVA OFICIAL DO MP JUIZ DE FORA - COMARCA; JUIZ DE FORA-PJ-20PJ 10.325,15 3.097,55 0,00 0,00 0,00 0,00 49,22 2.253,91 15.725,83 1.940,85 2.288,15 0,00 0,00 4.229,00 11.496,83 30/04/2022
320 119900 ANTONIO RODRIGUES DE PINHO OFICIAL DO MP GUANHÃES - COMARCA; GUANHAES-PJ-01PJ 16.695,70 11.686,99 0,00 0,00 0,00 0,00 520,35 7.393,54 36.296,58 4.334,44 5.639,63 0,00 0,00 9.974,07 26.322,51 30/04/2022
321 373300 ANTONIO SERGIO ANANIAS OFICIAL DO MP SÃO JOÃO NEPOMUCENO - COMARCA; SAO JOAO NEPOMUCENO-PJ-01PJ 9.684,23 1.936,85 0,00 0,00 0,00 0,00 0,00 1.717,00 13.338,08 927,17 2.019,33 0,00 0,00 2.946,50 10.391,58 30/04/2022
322 608100 ANTONIO SIDINEY VIEIRA LEMOS ANALISTA DO MP PIRAPORA - COMARCA; PIRAPORA-PJ-01PJ 10.325,15 4.130,06 0,00 0,00 0,00 0,00 0,00 2.602,30 17.057,51 2.106,05 2.474,52 0,00 0,00 4.580,57 12.476,94 30/04/2022
323 374700 ANTONIO SILVA NETO OFICIAL DO MP BELO HORIZONTE - COMARCA; GAECO - SECRETARIA 9.999,62 1.999,92 0,00 0,00 0,00 0,00 0,00 2.602,30 14.601,84 1.713,14 1.959,40 0,00 0,00 3.672,54 10.929,30 30/04/2022
324 636700 ANTONIUS VITORIANO FERNANDES OFICIAL DO MP BELO HORIZONTE - COMARCA; ASSESSORIA JURIDICA DO PROCON-MG 5.889,39 588,94 0,00 0,00 0,00 0,00 0,00 1.717,00 8.195,33 832,79 683,16 0,00 0,00 1.515,95 6.679,38 30/04/2022
325 413200 ANY PEREIRA SILVA ANALISTA DO MP TRÊS PONTAS - COMARCA; TRES PONTAS-PJ-01PJ 14.224,47 2.844,89 0,00 0,00 0,00 0,00 0,00 1.717,00 18.786,36 2.524,31 3.130,53 0,00 0,00 5.654,84 13.131,52 30/04/2022
326 151401 APARECIDA DE FATIMA MENDES DE ALMEIDA ASSESSOR JUIZ DE FORA - COMARCA; JUIZ DE FORA-PJ-SECRETARIA 0,00 0,00 5.615,13 0,00 0,00 0,00 0,00 1.717,00 7.332,13 790,01 787,00 0,00 0,00 1.577,01 5.755,12 30/04/2022
327 329300 APARECIDA MARIA MELO DE ASSIS OFICIAL DO MP BELO HORIZONTE - COMARCA; BH-18PJ DIREITOS HUMANOS-SECRETARIA 11.008,33 3.302,50 0,00 0,00 0,00 0,00 0,00 1.717,00 16.027,83 2.082,95 2.493,31 0,00 0,00 4.576,26 11.451,57 30/04/2022
328 475300 APARECIDA MARLENE FREIRE ROSA ANALISTA DO MP BELO HORIZONTE - COMARCA; BH-02PJ FAMILIA-SECRETARIA 13.776,02 12.398,42 0,00 0,00 0,00 3.981,12 0,00 1.717,00 31.872,56 3.981,12 6.328,61 0,00 0,00 10.309,73 21.562,83 30/04/2022
329 653000 APARECIDA ROSA DE LIMA ASSESSOR BELO HORIZONTE - COMARCA; SECRETARIA PROCESSOS DISCIPES ADMINISTRATIVOS 0,00 0,00 8.932,15 0,00 0,00 0,00 0,00 1.717,00 10.649,15 828,38 1.688,63 0,00 0,00 2.517,01 8.132,14 30/04/2022
330 354500 APARECIDA VIEIRA DE CARVALHO OFICIAL DO MP BELO HORIZONTE - COMARCA; DIVISÃO DE EDUCAÇÃO PARA O CONSUMO 8.650,50 2.595,15 0,00 0,00 0,00 0,00 0,00 1.717,00 12.962,65 1.592,52 1.785,25 0,00 0,00 3.377,77 9.584,88 30/04/2022
331 551000 ARACELES BICALHO FELIX ANALISTA DO MP MANHUAÇU - COMARCA; MANHUACU-PJ-02PJ 10.325,15 1.032,52 0,00 0,00 0,00 0,00 0,00 1.717,00 13.074,67 1.610,44 1.811,13 0,00 0,00 3.421,57 9.653,10 30/04/2022
332 286200 ARACELI MEDRADO DOS SANTOS LIMA OFICIAL DO MP PARACATU - COMARCA; PARACATU-PJ-03PJ 6.694,66 2.008,40 0,00 0,00 0,00 0,00 0,00 1.717,00 10.420,06 1.185,70 1.197,91 0,00 0,00 2.383,61 8.036,45 30/04/2022
333 112200 ARAQUEM AUGUSTO DE MATOS AGENTE DO MP BELO HORIZONTE - COMARCA; BH-23PJ CIVEL-SEC EXP CIVEIS 9.999,62 7.999,70 0,00 0,00 0,00 2.673,10 0,00 1.717,00 22.389,42 2.673,10 3.924,04 0,00 0,00 6.597,14 15.792,28 30/04/2022
334 280600 ARDUINO FRATTEZI ANALISTA DO MP BELO HORIZONTE - COMARCA; CENTRAL DE APOIO TECNICO-SETOR CONTABIL 19.791,01 5.937,30 0,00 0,00 0,00 0,00 471,69 6.862,66 33.062,66 3.909,74 5.130,75 0,00 0,00 9.040,49 24.022,17 30/04/2022
335 520201 ARIANE DE FATIMA CARVALHO ALMEIDA RODRIGUES ANALISTA DO MP VESPASIANO - COMARCA; VESPASIANO-PJ-SECRETARIA 9.999,62 999,96 0,00 0,00 0,00 0,00 0,00 3.044,95 14.044,53 1.553,15 1.572,00 0,00 0,00 3.125,15 10.919,38 30/04/2022
336 537600 ARIELA FREIRE MONTIJO ANALISTA DO MP ARCOS - COMARCA; ARCOS-PJ-01PJ 11.008,33 1.100,83 0,00 0,00 0,00 0,00 0,00 2.602,30 14.711,46 1.730,68 1.880,45 0,00 0,00 3.611,13 11.100,33 30/04/2022
337 182000 ARILSON ALEXANDRE MARTINS MAGALHAES OFICIAL DO MP JOÃO MONLEVADE - COMARCA; JOAO MONLEVADE-PJ-01PJ 16.695,70 8.347,85 0,00 0,00 0,00 0,00 459,13 9.411,12 34.913,80 3.800,18 4.764,02 0,00 0,00 8.564,20 26.349,60 30/04/2022
338 511000 ARISLANE CAROLINA DA SILVA ANALISTA DO MP MONTE CARMELO - COMARCA; MONTE CARMELO-PJ-02PJ 11.008,33 2.201,67 0,00 0,00 0,00 0,00 0,00 3.487,60 16.697,60 1.906,81 2.239,02 0,00 0,00 4.145,83 12.551,77 30/04/2022
339 170000 ARLEY BRITES DA SILVA ASSESSOR BELO HORIZONTE - COMARCA; BH-14PJ DEFESA CONSUMIDOR-SECRETARIA 0,00 1.345,22 3.363,05 0,00 0,00 0,00 0,00 1.717,00 6.425,27 663,05 165,42 0,00 0,00 828,47 5.596,80 30/04/2022
340 120400 ARLINDO CASSIO DA CRUZ OFICIAL DO MP SÃO GONÇALO DO SAPUCAÍ - COMARCA; SAO GONCALO DO SAPUCAI-PJ-01PJ 20.574,59 16.459,68 0,00 0,00 0,00 5.467,17 520,11 7.598,85 50.620,40 5.467,17 8.778,48 1.572,05 0,00 15.817,70 34.802,70 30/04/2022
341 243700 ARLINDO MARCIO LACERDA OFICIAL DO MP CONTAGEM - COMARCA; CONTAGEM-PJ-SECRETARIA 14.224,47 5.689,79 0,00 0,00 0,00 0,00 1.580,00 1.717,00 23.211,26 2.979,50 4.222,20 0,00 0,00 7.201,70 16.009,56 30/04/2022
342 392100 ARNALDO DE ANDRADE OFICIAL DO MP DIVINÓPOLIS - COMARCA; DIVINOPOLIS-PJ-02PJ 9.999,62 1.999,92 0,00 0,00 4.526,51 0,00 1.580,00 2.602,30 20.708,35 1.713,14 3.586,55 0,00 0,00 5.299,69 15.408,66 30/04/2022
343 642400 ARTANE INARDE DE SIQUEIRA DAMASCENO ANALISTA DO MP BELO HORIZONTE - COMARCA; SECRETARIA DE ASSUNTOS INTERNACIONAIS 8.932,15 893,22 0,00 0,00 -2.995,85 0,00 0,00 1.717,00 8.546,52 927,17 697,31 0,00 0,00 1.624,48 6.922,04 30/04/2022
344 712100 ARTUR FONTE BOA TEOFILO ASSESSOR BELO HORIZONTE - COMARCA; DIRET DE ESTAGIOS E CONVENIOS ACADEMICOS 0,00 0,00 3.363,05 0,00 0,00 0,00 0,00 1.717,00 5.080,05 474,72 283,29 0,00 0,00 758,01 4.322,04 30/04/2022
345 302100 AUGUSTO ROUSSEAU DE CASTRO ANALISTA DO MP CATAGUASES - COMARCA; CATAGUASES-PJ-02PJ 20.574,59 6.172,38 0,00 0,00 0,00 0,00 0,00 1.717,00 28.463,97 4.072,73 5.366,06 0,00 0,00 9.438,79 19.025,18 30/04/2022
346 540200 AUREA AVELAR BITTENCOURT OFICIAL DO MP BELO HORIZONTE - COMARCA; GRUPO ESP PROM JUST DEF PROB ADM PAT PUB 6.694,66 669,47 0,00 0,00 0,00 0,00 0,00 1.717,00 9.081,13 927,17 846,00 0,00 0,00 1.773,17 7.307,96 30/04/2022
347 633501 AUREA GONTIJO BIRCHAL ASSESSOR BELO HORIZONTE - COMARCA; PROCURADOR-GERAL DE JUSTIÇA 0,00 0,00 13.776,02 0,00 0,00 0,00 0,00 1.717,00 15.493,02 828,38 3.020,69 0,00 0,00 3.849,07 11.643,95 30/04/2022
348 183200 AURELIANO MAGELA DE REZENDE COORDENADOR/OFICIAL BELO HORIZONTE - COMARCA; COORD DE GABINETE DO PGJ 17.614,89 7.045,96 2.937,52 0,00 0,00 0,00 505,97 7.236,67 35.341,01 3.738,95 5.691,98 0,00 0,00 9.430,93 25.910,08 30/04/2022
349 629400 AYESKA DA COSTA VAL MOURA DABIEN OFICIAL DO MP BELO HORIZONTE - COMARCA; BH-09PJ AUDITORIA MILITAR-SECRETARIA 5.889,39 588,94 0,00 0,00 0,00 0,00 0,00 1.717,00 8.195,33 832,79 683,16 0,00 0,00 1.515,95 6.679,38 30/04/2022
350 707400 AYMEE JOHANSSENN TYNEE CORREIA ALVES ASSESSOR PROMOTOR JUSTICA NOVA LIMA - COMARCA; NOVA LIMA-PJ-01PJ 0,00 0,00 7.857,77 0,00 0,00 0,00 0,00 1.717,00 9.574,77 828,38 1.393,17 0,00 0,00 2.221,55 7.353,22 30/04/2022
351 701600 BARBARA CHAVES OLIVEIRA ASSESSOR PROCURADOR JUSTICA BELO HORIZONTE - COMARCA; PROC. JUSTICA DIR. DIFUSOS E COLETIVOS-SEC 0,00 0,00 7.857,77 0,00 0,00 0,00 0,00 1.717,00 9.574,77 828,38 1.393,17 0,00 0,00 2.221,55 7.353,22 30/04/2022
352 691900 BARBARA COUTINHO REIS ASSESSOR PROCURADOR JUSTICA BELO HORIZONTE - COMARCA; GABINETE DE PROCURADOR DE JUSTIÇA - SALA 912 0,00 0,00 7.857,77 0,00 2.619,26 0,00 0,00 1.717,00 12.194,03 828,38 2.113,47 0,00 0,00 2.941,85 9.252,18 30/04/2022
353 692200 BARBARA CRISTINA MENDES BANDEIRA DE MELO DUTRA ASSESSOR PROCURADOR JUSTICA BELO HORIZONTE - COMARCA; GABINETE DE PROCURADOR DE JUSTIÇA - SALA 1009 0,00 0,00 7.857,77 0,00 0,00 0,00 0,00 1.717,00 9.574,77 828,38 1.393,17 0,00 0,00 2.221,55 7.353,22 30/04/2022
354 652800 BARBARA JULIANNE MOREIRA CASTRO ASSESSOR PROCURADOR JUSTICA BELO HORIZONTE - COMARCA; ASSESS TECNICO-JUR JUNTO AS PROC. DE JUST 0,00 0,00 7.857,77 0,00 0,00 0,00 0,00 1.717,00 9.574,77 828,38 1.393,17 0,00 0,00 2.221,55 7.353,22 30/04/2022
355 707700 BARBARA LOUISE PUFF DE OLIVEIRA ASSESSOR PROMOTOR JUSTICA RIBEIRÃO DAS NEVES - COMARCA; RIBEIRAO DAS NEVES-PJ-02PJ 0,00 0,00 7.857,77 0,00 0,00 0,00 0,00 1.717,00 9.574,77 828,38 1.393,17 0,00 0,00 2.221,55 7.353,22 30/04/2022
356 663600 BARBARA REGINA PEREIRA DE PINHO MAGALHAES ASSESSOR PROMOTOR JUSTICA BELO HORIZONTE - COMARCA; CAO-DH CONT EXT ATIV POLIC E AP COMUNIT 0,00 0,00 7.857,77 0,00 0,00 0,00 0,00 1.717,00 9.574,77 828,38 1.393,17 0,00 0,00 2.221,55 7.353,22 30/04/2022
357 692400 BARBARA SOUZA OLIVEIRA ASSESSOR PROMOTOR JUSTICA DIVINO - COMARCA; DIVINO-PJ-UNPJ 0,00 0,00 7.857,77 0,00 0,00 0,00 0,00 1.717,00 9.574,77 828,38 1.393,17 0,00 0,00 2.221,55 7.353,22 30/04/2022
358 546500 BARBARA ZACARONI GOULART OFICIAL DO MP BETIM - COMARCA; BETIM-PJ-08PJ 6.694,66 669,47 0,00 0,00 0,00 0,00 0,00 1.717,00 9.081,13 971,47 888,62 0,00 0,00 1.860,09 7.221,04 30/04/2022
359 316500 BEATRIZ ABILVIA DA SILVA ANALISTA DO MP GOVERNADOR VALADARES - COMARCA; GOVERNADOR VALADARES-PJ-07PJ 19.037,29 5.711,19 0,00 0,00 0,00 0,00 544,47 7.656,64 32.949,59 3.752,97 4.904,41 0,00 0,00 8.657,38 24.292,21 30/04/2022
360 311800 BEATRIZ APARECIDA SOARES GANEM OFICIAL DO MP ITAMBACURI - COMARCA; ITAMBACURI-PJ-02PJ 11.736,91 3.521,07 0,00 0,00 0,00 0,00 0,00 1.717,00 16.974,98 2.234,49 2.555,69 0,00 0,00 4.790,18 12.184,80 30/04/2022
361 266800 BEATRIZ AUGUSTA VILACA GOMES DE HUBER OFICIAL DO MP BELO HORIZONTE - COMARCA; BH-05PJ-JUÍZO SUCESSÕES-SEC 11.008,33 3.302,50 0,00 0,00 0,00 0,00 524,73 7.441,33 22.276,89 2.082,95 2.493,31 0,00 0,00 4.576,26 17.700,63 30/04/2022
362 235200 BEATRIZ BOTELHO BATISTA OFICIAL DO MP BELO HORIZONTE - COMARCA; BH-21PJ TUTELA FUNDACOES-SECRETARIA 11.008,33 4.403,33 0,00 0,00 0,00 0,00 0,00 1.717,00 17.128,66 2.259,08 2.747,60 0,00 0,00 5.006,68 12.121,98 30/04/2022
363 182300 BEATRIZ PAULA SOUSA RAMOS OFICIAL DO MP MARIANA - COMARCA; MARIANA-PJ-01PJ 16.695,70 8.347,85 0,00 0,00 0,00 0,00 459,13 6.725,71 32.228,39 3.800,18 4.972,57 0,00 0,00 8.772,75 23.455,64 30/04/2022
364 507000 BELCHIOR FRANKLIN AMARAL LEITE ANALISTA DO MP BELO HORIZONTE - COMARCA; CAO ORGAOS MPMG DESIG FUNC ELEITORAIS-SEC 11.736,91 2.347,38 0,00 0,00 0,00 0,00 0,00 2.602,30 16.686,59 2.046,70 2.284,57 0,00 0,00 4.331,27 12.355,32 30/04/2022
365 345100 BENITO ELIAS RODRIGUES ANALISTA DO MP BARBACENA - COMARCA; BARBACENA - SECRETARIA DAS PJS CRIMINAIS 18.312,36 5.493,71 0,00 0,00 0,00 0,00 523,73 7.430,46 31.760,26 3.602,18 4.634,57 0,00 0,00 8.236,75 23.523,51 30/04/2022
366 207300 BENITO VIEIRA DOS SANTOS ANALISTA DO MP BELO HORIZONTE - COMARCA; PROC JUST ESP ACOES COMP ORIG CRIMINAL-ASSESS 20.574,59 8.229,84 0,00 0,00 0,00 4.401,92 528,08 7.477,89 41.212,32 4.401,92 5.745,46 0,00 0,00 10.147,38 31.064,94 30/04/2022
367 480200 BERNADETE NUNES DOS SANTOS ANALISTA DO MP GUANHÃES - COMARCA; GUANHAES-PJ-02PJ 11.008,33 3.302,50 0,00 0,00 0,00 0,00 524,73 7.441,33 22.276,89 2.082,95 2.493,31 0,00 0,00 4.576,26 17.700,63 30/04/2022
368 378400 BETANIA FARNESI DE SOUZA E SILVA OFICIAL DO MP CURVELO - COMARCA; CURVELO-PJ-01PJ 9.999,62 3.999,85 0,00 0,00 0,00 0,00 513,31 7.316,79 21.829,57 2.033,13 2.369,25 0,00 0,00 4.402,38 17.427,19 30/04/2022
369 387400 BETANIA MENDONCA DE ASSIS CARVALHO ANALISTA DO MP JUIZ DE FORA - COMARCA; JUIZ DE FORA-PJ-03PJ 16.169,47 3.233,89 0,00 0,00 0,00 0,00 0,00 2.602,30 22.005,66 2.897,75 3.617,55 0,00 0,00 6.515,30 15.490,36 30/04/2022
370 714400 BIANCA DE CASTRO RAMOS ASSESSOR PROMOTOR JUSTICA BETIM - COMARCA; BETIM-PJ-07PJ 0,00 0,00 7.857,77 0,00 0,00 0,00 0,00 1.717,00 9.574,77 828,38 1.393,17 0,00 0,00 2.221,55 7.353,22 30/04/2022
371 712700 BIANCA DE JESUS SOUZA ASSESSOR GOVERNADOR VALADARES - COMARCA; COOR REG APOIO COM INC MOB VALE DO RIO DOCE 0,00 0,00 3.363,05 0,00 0,00 0,00 0,00 1.717,00 5.080,05 474,72 283,29 0,00 0,00 758,01 4.322,04 30/04/2022
372 450300 BIANCA OLIVEIRA DE ALBUQUERQUE ANALISTA DO MP BELO HORIZONTE - COMARCA; BH-10PJ EXECUÇÃO PENAL-SECRETARIA 11.008,33 2.201,67 0,00 0,00 0,00 0,00 0,00 2.602,30 15.812,30 1.906,81 2.239,02 0,00 0,00 4.145,83 11.666,47 30/04/2022
373 535400 BIANCA SALOTO ROSSI ANALISTA DO MP SANTOS DUMONT - COMARCA; SANTOS DUMONT-PJ-01PJ 11.008,33 1.100,83 0,00 0,00 -3.692,19 0,00 0,00 2.602,30 11.019,27 1.730,68 969,37 0,00 0,00 2.700,05 8.319,22 30/04/2022
374 120800 BRAS MARQUES DE SOUZA ANALISTA DO MP BELO HORIZONTE - COMARCA; SUPERINTENDENCIA DE GESTAO ADMINISTRATIVA 25.971,96 20.777,57 0,00 0,00 0,00 5.467,17 520,11 7.390,95 60.127,76 5.467,17 8.778,48 11.287,31 0,00 25.532,96 34.594,80 30/04/2022
375 710500 BRENNO VINICIUS MAGESTE ROSA ASSESSOR PROMOTOR JUSTICA MANHUAÇU - COMARCA; MANHUACU-PJ-02PJ 0,00 0,00 7.857,77 0,00 0,00 0,00 0,00 1.717,00 9.574,77 828,38 1.393,17 0,00 0,00 2.221,55 7.353,22 30/04/2022
376 460900 BRENO CRISTIANO DE SOUZA REZENDE ANALISTA DO MP ITAÚNA - COMARCA; ITAUNA-PJ-02PJ 11.008,33 2.201,67 0,00 0,00 0,00 0,00 0,00 1.717,00 14.927,00 1.906,81 2.239,02 0,00 0,00 4.145,83 10.781,17 30/04/2022
377 239000 BRENO VENANCIO ROMANINI OFICIAL DO MP BELO HORIZONTE - COMARCA; BH-20PJ ORD ECON TRIBUTARIA-SECRETARIA 11.008,33 3.302,50 0,00 0,00 0,00 0,00 0,00 1.717,00 16.027,83 2.082,95 2.493,31 0,00 0,00 4.576,26 11.451,57 30/04/2022
378 722700 BRUNA DE SA FERREIRA LIMA ASSESSOR PROMOTOR JUSTICA JAIBA - COMARCA; JAIBA-PJ-UNPJ 0,00 0,00 7.857,77 0,00 0,00 0,00 2.156,31 2.617,18 12.631,26 828,38 2.090,98 0,00 0,00 2.919,36 9.711,90 30/04/2022
379 722100 BRUNA HENRIQUE DE SOUZA ASSESSOR PROMOTOR JUSTICA PIRAPETINGA - COMARCA; PIRAPETINGA-PJ-UNPJ 0,00 0,00 7.857,77 0,00 0,00 0,00 4.452,74 2.943,91 15.254,42 828,38 2.812,35 0,00 0,00 3.640,73 11.613,69 30/04/2022
380 642300 BRUNA IZABELITA DE FATIMA OLIVEIRA COSTA OFICIAL DO MP BELO HORIZONTE - COMARCA; BH-02PJ FAMILIA-SECRETARIA 5.889,39 588,94 0,00 0,00 0,00 0,00 0,00 1.717,00 8.195,33 832,79 683,16 0,00 0,00 1.515,95 6.679,38 30/04/2022
381 513600 BRUNA KARLA MARTINS CARVALHO ANALISTA DO MP GOVERNADOR VALADARES - COMARCA; GOVERNADOR VALADARES-PJ-14PJ 11.008,33 2.201,67 0,00 0,00 0,00 0,00 0,00 1.717,00 14.927,00 927,17 2.382,14 0,00 0,00 3.309,31 11.617,69 30/04/2022
382 415100 BRUNA MARIA SOARES OLIVEIRA COSTA RAMOS ANALISTA DO MP UBÁ - COMARCA; COORD REG BACIA DO RIO PARAIBA DO SUL 15.659,55 3.131,91 0,00 0,00 0,00 0,00 0,00 1.717,00 20.508,46 927,17 3.801,92 0,00 0,00 4.729,09 15.779,37 30/04/2022
383 692900 BRUNA MENDES COELHO ASSESSOR PROCURADOR JUSTICA BELO HORIZONTE - COMARCA; GABINETE DE PROCURADOR DE JUSTIÇA - SALA 801 0,00 0,00 7.857,77 0,00 0,00 0,00 0,00 1.717,00 9.574,77 828,38 1.393,17 0,00 0,00 2.221,55 7.353,22 30/04/2022
384 470000 BRUNA MORAES ANALISTA DO MP TOMBOS - COMARCA; TOMBOS-PJ-UNPJ 13.776,02 2.755,20 0,00 0,00 0,00 0,00 0,00 1.717,00 18.248,22 2.438,21 2.849,81 0,00 0,00 5.288,02 12.960,20 30/04/2022
385 614700 BRUNA NATTANY DE LIMA OFICIAL DO MP MANTENA - COMARCA; MANTENA-PJ-01PJ 6.483,63 648,36 0,00 0,00 0,00 0,00 0,00 2.602,30 9.734,29 934,33 835,00 0,00 0,00 1.769,33 7.964,96 30/04/2022
386 631800 BRUNA RAPOSO JORGE OFICIAL DO MP JUIZ DE FORA - COMARCA; JUIZ DE FORA-PJ-06PJ 6.483,63 648,36 0,00 0,00 0,00 0,00 0,00 1.717,00 8.848,99 934,33 835,00 0,00 0,00 1.769,33 7.079,66 30/04/2022
387 707800 BRUNA ROMIE WERDINE ASSESSOR PROMOTOR JUSTICA IBIRITÉ - COMARCA; IBIRITE-PJ-06PJ 0,00 0,00 7.857,77 0,00 0,00 0,00 0,00 1.717,00 9.574,77 828,38 1.393,17 0,00 0,00 2.221,55 7.353,22 30/04/2022
388 697400 BRUNA SILVA SANTOS ASSESSOR PROMOTOR JUSTICA TIMÓTEO - COMARCA; TIMOTEO-PJ-04PJ 0,00 0,00 7.857,77 0,00 0,00 0,00 0,00 1.717,00 9.574,77 828,38 1.393,17 0,00 0,00 2.221,55 7.353,22 30/04/2022
389 699300 BRUNA URSINE TIMO ASSESSOR PROCURADOR JUSTICA BELO HORIZONTE - COMARCA; PROC JUST ESP ACOES COMP ORIG CRIMINAL-ASSESS 0,00 0,00 7.857,77 0,00 0,00 0,00 0,00 1.717,00 9.574,77 828,38 1.393,17 0,00 0,00 2.221,55 7.353,22 30/04/2022
390 463800 BRUNO ALVES TEIXEIRA ANALISTA DO MP UBERLÂNDIA - COMARCA; UBERLANDIA-PJ-04PJ 11.008,33 2.201,67 0,00 0,00 0,00 0,00 0,00 1.717,00 14.927,00 1.906,81 2.239,02 0,00 0,00 4.145,83 10.781,17 30/04/2022
391 538500 BRUNO AUGUSTO DA SILVA OFICIAL DO MP SANTA LUZIA - COMARCA; SANTA LUZIA-PJ-03PJ 6.694,66 669,47 0,00 0,00 0,00 0,00 0,00 1.717,00 9.081,13 971,47 888,62 0,00 0,00 1.860,09 7.221,04 30/04/2022
392 318200 BRUNO BARROS DE SOUZA OFICIAL DO MP UBÁ - COMARCA; UBA-PJ-04PJ 11.008,33 3.302,50 0,00 0,00 0,00 0,00 0,00 1.717,00 16.027,83 927,17 2.202,36 0,00 0,00 3.129,53 12.898,30 30/04/2022
393 459600 BRUNO CASTELAR LUGAO MENDES OFICIAL DO MP BELO HORIZONTE - COMARCA; PROC JUST ATUACAO TRIBUNAIS SUPERIORES-GAB001 9.378,86 1.875,77 0,00 0,00 0,00 0,00 0,00 2.602,30 13.856,93 927,17 1.884,74 0,00 0,00 2.811,91 11.045,02 30/04/2022
394 427400 BRUNO CESAR RIBEIRO DE PAIVA ANALISTA DO MP BELO HORIZONTE - COMARCA; ASSESS JUR DO CONS SUPERIOR DO MINISTERIO PUB 15.659,55 3.131,91 0,00 0,00 0,00 0,00 0,00 1.717,00 20.508,46 2.799,85 3.528,33 0,00 0,00 6.328,18 14.180,28 30/04/2022
395 380900 BRUNO CIRILO ANTUNES OFICIAL DO MP VARGINHA - COMARCA; VARGINHA-PJ-05PJ 10.325,15 2.065,03 0,00 0,00 0,00 0,00 0,00 1.717,00 14.107,18 1.775,64 2.049,64 0,00 0,00 3.825,28 10.281,90 30/04/2022
396 329000 BRUNO DE MELO REIS ANALISTA DO MP PATROCÍNIO - COMARCA; PATROCINIO-PJ-02PJ 19.037,29 5.711,19 0,00 0,00 0,00 0,00 544,47 9.427,24 34.720,19 3.752,97 4.800,13 0,00 0,00 8.553,10 26.167,09 30/04/2022
397 697800 BRUNO GAZZOLA BEZERRA FALCAO ASSESSOR PROCURADOR JUSTICA BELO HORIZONTE - COMARCA; PROCURADOR-GERAL ADJUNTO JURIDICO- GABINETE 0,00 0,00 7.857,77 0,00 0,00 0,00 0,00 1.717,00 9.574,77 828,38 1.393,17 0,00 0,00 2.221,55 7.353,22 30/04/2022
398 378300 BRUNO HERDY LOPES DE OLIVEIRA ANALISTA DO MP GOVERNADOR VALADARES - COMARCA; GOVERNADOR VALADARES-PJ-03PJ 16.169,47 3.233,89 0,00 0,00 6.467,79 0,00 71,15 2.493,13 28.435,43 2.897,75 5.448,32 0,00 0,00 8.346,07 20.089,36 30/04/2022
399 529700 BRUNO JOSE BUENO DIAS OFICIAL DO MP SÃO SEBASTIÃO DO PARAÍSO - COMARCA; SAO SEBASTIAO DO PARAISO-PJ-02PJ 6.694,66 669,47 0,00 0,00 0,00 0,00 0,00 1.717,00 9.081,13 971,47 836,48 0,00 0,00 1.807,95 7.273,18 30/04/2022
400 691600 BRUNO JOSE RIBEIRO ASSESSOR PROMOTOR JUSTICA CLÁUDIO - COMARCA; CLAUDIO-PJ-UNPJ 0,00 0,00 7.857,77 0,00 0,00 0,00 0,00 1.717,00 9.574,77 828,38 1.393,17 0,00 0,00 2.221,55 7.353,22 30/04/2022
401 350100 BRUNO LAUD SERRANO DOS REIS OFICIAL DO MP UBÁ - COMARCA; UBA-PJ-02PJ 11.008,33 3.302,50 0,00 0,00 0,00 0,00 0,00 1.717,00 16.027,83 2.082,95 2.441,17 0,00 0,00 4.524,12 11.503,71 30/04/2022
402 373800 BRUNO MARTINO DE ALBUQUERQUE ANALISTA DO MP PONTE NOVA - COMARCA; PONTE NOVA-PJ-03PJ 16.169,47 3.233,89 0,00 0,00 0,00 0,00 71,15 2.493,13 21.967,64 2.897,75 3.565,41 0,00 0,00 6.463,16 15.504,48 30/04/2022
403 470400 BRUNO NOVAIS CABRAL ANALISTA DO MP MUTUM - COMARCA; MUTUM-PJ-UNPJ 11.008,33 2.201,67 0,00 0,00 0,00 0,00 0,00 979,25 14.189,25 1.906,81 2.134,74 0,00 0,00 4.041,55 10.147,70 30/04/2022
404 648600 BRUNO RIBEIRO E MELO ASSESSOR BELO HORIZONTE - COMARCA; DIR RELACOES INSTITUCIONAIS 0,00 0,00 8.932,15 0,00 0,00 0,00 0,00 1.717,00 10.649,15 828,38 1.688,63 0,00 0,00 2.517,01 8.132,14 30/04/2022
405 369200 BRUNO ROBERTO DIAS DE OLIVEIRA OFICIAL DO MP BELO HORIZONTE - COMARCA; BH-22PJ PES COM DEF E IDOSOS-SECRETARIA 11.008,33 3.302,50 0,00 0,00 0,00 0,00 0,00 1.717,00 16.027,83 927,17 2.662,16 0,00 0,00 3.589,33 12.438,50 30/04/2022
406 547700 BRUNO ROBERTO SOUZA GONCALVES ANALISTA DO MP PARACATU - COMARCA; PARACATU-PJ-03PJ 10.325,15 1.032,52 0,00 0,00 0,00 0,00 0,00 3.399,07 14.756,74 1.610,44 1.811,13 0,00 0,00 3.421,57 11.335,17 30/04/2022
407 546100 BRUNO SA VIEIRA ANALISTA DO MP BARBACENA - COMARCA; BARBACENA-PJ-SECRETARIA 11.008,33 1.100,83 0,00 0,00 -3.692,19 0,00 0,00 2.602,30 11.019,27 1.730,68 865,10 0,00 0,00 2.595,78 8.423,49 30/04/2022
408 438200 BRUNO SALES PEREIRA ANALISTA DO MP BELO HORIZONTE - COMARCA; CENTRAL DE APOIO TECNICO-SETOR CONTABIL 13.776,02 2.755,20 0,00 0,00 0,00 0,00 0,00 2.602,30 19.133,52 2.438,21 2.954,08 0,00 0,00 5.392,29 13.741,23 30/04/2022
409 537400 BRUNO SANT'ANA CESAR ANALISTA DO MP BELO HORIZONTE - COMARCA; BH-12PJ JUIZO CRIMINAL-GAB 105PJ 11.008,33 1.100,83 0,00 0,00 -3.692,19 0,00 0,00 1.717,00 10.133,97 1.730,68 969,37 0,00 0,00 2.700,05 7.433,92 30/04/2022
410 405800 CAIO FERNANDO RODRIGUES DE OLIVEIRA ANALISTA DO MP BELO HORIZONTE - COMARCA; GABINETE DE PROCURADOR DE JUSTIÇA - SALA 805 15.659,55 3.131,91 0,00 0,00 0,00 0,00 68,90 2.468,66 21.329,02 927,17 3.930,67 0,00 0,00 4.857,84 16.471,18 30/04/2022
411 530000 CAIO GUEDES DE OLIVEIRA ANALISTA DO MP DIAMANTINA - COMARCA; DIAMANTINA-PJ-02PJ 11.008,33 1.100,83 0,00 0,00 4.036,39 0,00 0,00 1.717,00 17.862,55 1.730,68 3.042,59 0,00 0,00 4.773,27 13.089,28 30/04/2022
412 491400 CAIO MIRANDA JUNQUEIRA ANALISTA DO MP BUENO BRANDAO - COMARCA; BUENO BRANDAO-PJ-UNPJ 11.008,33 2.201,67 0,00 0,00 0,00 0,00 0,00 1.717,00 14.927,00 1.906,81 2.134,74 0,00 0,00 4.041,55 10.885,45 30/04/2022
413 415800 CAMILA ALVES DA SILVA ANALISTA DO MP CAETÉ - COMARCA; CAETE-PJ-01PJ 15.659,55 3.131,91 0,00 0,00 0,00 0,00 68,90 2.468,66 21.329,02 2.799,85 3.528,33 0,00 0,00 6.328,18 15.000,84 30/04/2022
414 555800 CAMILA CAROLINE ROCHA CHAVES OFICIAL DO MP SALINAS - COMARCA; SALINAS-PJ-01PJ 6.694,66 669,47 0,00 0,00 2.454,71 0,00 0,00 1.717,00 11.535,84 971,47 1.563,67 0,00 0,00 2.535,14 9.000,70 30/04/2022
415 445200 CAMILA CONDE ROCHA ANALISTA DO MP CONTAGEM - COMARCA; CONTAGEM-PJ-21PJ 11.736,91 2.347,38 0,00 0,00 0,00 0,00 0,00 1.717,00 15.801,29 2.046,70 2.440,98 0,00 0,00 4.487,68 11.313,61 30/04/2022
416 419900 CAMILA CUNNINGHAM PIMENTA DE PADUA ANALISTA DO MP BELO HORIZONTE - COMARCA; ASSESSORIA PSICOSSOCIAL 15.659,55 3.131,91 0,00 0,00 0,00 0,00 0,00 1.717,00 20.508,46 2.799,85 3.528,33 0,00 0,00 6.328,18 14.180,28 30/04/2022
417 714200 CAMILA DE SOUSA CUNHA ASSESSOR PROMOTOR JUSTICA PRADOS - COMARCA; PRADOS-PJ-UNPJ 0,00 0,00 7.857,77 0,00 0,00 0,00 0,00 1.717,00 9.574,77 828,38 1.393,17 0,00 0,00 2.221,55 7.353,22 30/04/2022
418 507700 CAMILA ELIZABETH RODRIGUES ANALISTA DO MP BELO HORIZONTE - COMARCA; BH-02PJ FAMILIA-SECRETARIA 12.118,97 2.423,79 0,00 0,00 0,00 0,00 159,97 3.462,13 18.164,86 2.120,06 2.546,88 0,00 0,00 4.666,94 13.497,92 30/04/2022
419 372700 CAMILA FONSECA LIMONGE ANALISTA DO MP BETIM - COMARCA; BETIM-PJ-01PJ 16.169,47 3.233,89 0,00 0,00 0,00 0,00 71,15 2.493,13 21.967,64 2.897,75 3.669,68 0,00 0,00 6.567,43 15.400,21 30/04/2022
420 621300 CAMILA GOLFETO DE SOUSA VALENTE OFICIAL DO MP CARANGOLA - COMARCA; CARANGOLA-PJ-SECRETARIA 6.483,63 648,36 0,00 0,00 0,00 0,00 0,00 3.044,95 10.176,94 934,33 730,72 0,00 0,00 1.665,05 8.511,89 30/04/2022
421 409800 CAMILA GONCALVES COSTA RIBEIRO ANALISTA DO MP INHAPIM - COMARCA; INHAPIM-PJ-02PJ 11.008,33 2.201,67 0,00 0,00 0,00 0,00 0,00 2.602,30 15.812,30 1.906,81 2.186,88 0,00 0,00 4.093,69 11.718,61 30/04/2022
422 335000 CAMILA GONTIJO DE PAIVA ANALISTA DO MP BELO HORIZONTE - COMARCA; COORD DE CONTROLE CONSTITUCIONALIDADE 18.312,36 5.493,71 0,00 0,00 0,00 0,00 523,73 7.430,46 31.760,26 3.602,18 4.634,57 0,00 0,00 8.236,75 23.523,51 30/04/2022
423 693400 CAMILA HECKSHER MONTEIRO ASSESSOR PROCURADOR JUSTICA BELO HORIZONTE - COMARCA; GABINETE DE PROCURADOR DE JUSTIÇA - SALA 613 0,00 0,00 7.857,77 0,00 0,00 0,00 0,00 1.717,00 9.574,77 828,38 1.393,17 0,00 0,00 2.221,55 7.353,22 30/04/2022
424 696000 CAMILA IMACULADA OLIVEIRA ASSESSOR PROCURADOR JUSTICA BELO HORIZONTE - COMARCA; GABINETE DE PROCURADOR DE JUSTIÇA - SALA 816 0,00 0,00 7.857,77 0,00 5.238,52 0,00 547,43 7.688,91 21.332,63 825,29 2.834,61 0,00 0,00 3.659,90 17.672,73 30/04/2022
425 547800 CAMILA MATTARELLI DE ABREU E SILVA ANALISTA DO MP BELO HORIZONTE - COMARCA; CAO-VIOLENCIA DOMESTICA E FAMILIAR 10.325,15 1.032,52 0,00 0,00 0,00 0,00 0,00 1.717,00 13.074,67 1.610,44 1.811,13 0,00 0,00 3.421,57 9.653,10 30/04/2022
426 430000 CANDIDA MARINA COSTA ANALISTA DO MP BELO HORIZONTE - COMARCA; DIRET DE INFORMACAO E CONHECIMENTO-DINC/CEAF 15.659,55 3.131,91 0,00 0,00 6.263,82 0,00 0,00 1.717,00 26.772,28 2.799,85 5.250,88 0,00 0,00 8.050,73 18.721,55 30/04/2022
427 614300 CARINA CORTIELHA OFICIAL DO MP BELO HORIZONTE - COMARCA; BH-23PJ CIVEL-FISC AC POL PUB I 5.889,39 588,94 0,00 0,00 0,00 0,00 0,00 1.717,00 8.195,33 832,79 683,16 0,00 0,00 1.515,95 6.679,38 30/04/2022
428 380400 CARINA DIAS FACANHA DE SOUZA ANALISTA DO MP SANTA RITA DO SAPUCAÍ - COMARCA; SANTA RITA DO SAPUCAI-PJ-SECRETARIA 16.169,47 3.233,89 0,00 0,00 0,00 0,00 0,00 1.717,00 21.120,36 2.897,75 3.669,68 0,00 0,00 6.567,43 14.552,93 30/04/2022
429 698300 CARINA ESTEPHANY FAVATO FERREIRA JUSTE ASSESSOR PROCURADOR JUSTICA BELO HORIZONTE - COMARCA; PROC. JUSTICA DIR. DIFUSOS E COLETIVOS-SEC 0,00 0,00 7.857,77 0,00 0,00 0,00 0,00 1.717,00 9.574,77 828,38 1.393,17 0,00 0,00 2.221,55 7.353,22 30/04/2022
430 255000 CARLA ADRIANA DE MENEZES OFICIAL DO MP BELO HORIZONTE - COMARCA; CENT DE APOIO TEC-SETOR DEF,IDOSO E INFANC 11.008,33 3.302,50 0,00 0,00 0,00 0,00 0,00 1.717,00 16.027,83 2.082,95 2.493,31 0,00 0,00 4.576,26 11.451,57 30/04/2022
431 425100 CARLA ADRIANA DINIZ AMARAL OFICIAL DO MP CONTAGEM - COMARCA; CONTAGEM-PJ-SECRETARIA 9.684,23 1.936,85 0,00 0,00 0,00 0,00 0,00 1.717,00 13.338,08 1.652,59 1.871,98 0,00 0,00 3.524,57 9.813,51 30/04/2022
432 508100 CARLA ALESSANDRA FONSECA ANALISTA DO MP BELO HORIZONTE - COMARCA; CAO-ORDEM ECONOMICA E TRIBUTARIA-SECRETARIA 11.008,33 2.201,67 0,00 0,00 0,00 0,00 0,00 1.717,00 14.927,00 1.906,81 2.239,02 0,00 0,00 4.145,83 10.781,17 30/04/2022
433 607100 CARLA ANGELICA DIAS MIRANDA OFICIAL DO MP JABOTICATUBAS - COMARCA; JABOTICATUBAS-PJ-UNPJ 6.694,66 669,47 0,00 0,00 2.454,71 0,00 0,00 1.717,00 11.535,84 971,47 1.407,25 0,00 0,00 2.378,72 9.157,12 30/04/2022
434 351500 CARLA APARECIDA MENDES RAMIRIO OFICIAL DO MP PASSOS - COMARCA; PASSOS-PJ-01PJ 11.008,33 3.302,50 0,00 0,00 0,00 0,00 0,00 1.717,00 16.027,83 2.082,95 2.441,17 0,00 0,00 4.524,12 11.503,71 30/04/2022
435 713100 CARLA DOS SANTOS SOUZA ASSESSOR PROMOTOR JUSTICA ESPERA FELIZ - COMARCA; ESPERA FELIZ-PJ-UNPJ 0,00 0,00 7.857,77 0,00 0,00 0,00 0,00 1.717,00 9.574,77 828,38 1.393,17 0,00 0,00 2.221,55 7.353,22 30/04/2022
436 442800 CARLA GONCALVES COSTA SOALHEIRO ANALISTA DO MP GOVERNADOR VALADARES - COMARCA; GOVERNADOR VALADARES-PJ-11PJ 11.008,33 2.201,67 0,00 0,00 4.403,33 0,00 0,00 2.602,30 20.215,63 1.906,81 3.397,79 0,00 0,00 5.304,60 14.911,03 30/04/2022
437 321500 CARLA GONCALVES MASSOTE OFICIAL DO MP CAMPO BELO - COMARCA; CAMPO BELO-PJ-02PJ 11.008,33 3.302,50 0,00 0,00 0,00 0,00 524,73 7.441,33 22.276,89 2.082,95 2.493,31 0,00 0,00 4.576,26 17.700,63 30/04/2022
438 429200 CARLA HAUTEQUESTT BECHARA ANALISTA DO MP BELO HORIZONTE - COMARCA; DIRET DE INFORMACAO E CONHECIMENTO-DINC/CEAF 15.659,55 3.131,91 -1.566,68 0,00 0,00 0,00 0,00 1.717,00 18.941,78 2.799,85 3.097,50 0,00 0,00 5.897,35 13.044,43 30/04/2022
439 247500 CARLA MATILDE GUIMARAES DE OLIVEIRA OFICIAL DO MP ITAJUBA - COMARCA; ITAJUBA-PJ-SECRETARIA 11.008,33 4.403,33 0,00 0,00 0,00 0,00 0,00 1.717,00 17.128,66 2.259,08 2.695,46 0,00 0,00 4.954,54 12.174,12 30/04/2022
440 226100 CARLA MERLI DA CONCEICAO ANALISTA DO MP BELO HORIZONTE - COMARCA; CENTRAL DE APOIO TECNICO-SETOR CONTABIL 20.574,59 6.172,38 0,00 0,00 0,00 0,00 490,36 7.066,39 34.303,72 4.072,73 5.313,92 0,00 0,00 9.386,65 24.917,07 30/04/2022
441 181401 CARLO MICHEL GAUDENSI COELHO ANALISTA DO MP BELO HORIZONTE - COMARCA; BH-08PJ JUIZADO ESPECIAL-SECRETARIA 14.224,47 5.689,79 0,00 0,00 0,00 0,00 146,04 3.310,14 23.370,44 2.979,50 3.787,70 0,00 0,00 6.767,20 16.603,24 30/04/2022
442 634000 CARLOS ALBERTO AMORMINO TRIGUEIRO ANALISTA DO MP BELO HORIZONTE - COMARCA; DIRET DE APOIO AS PROCURADORIAS DE JUSTICA 9.999,62 999,96 0,00 0,00 0,00 0,00 0,00 2.602,30 13.601,88 927,17 1.767,72 0,00 0,00 2.694,89 10.906,99 30/04/2022
443 637900 CARLOS ALBERTO DE MOURA OFICIAL DO MP SETE LAGOAS - COMARCA; SETE LAGOAS-PJ-07PJ 5.889,39 588,94 0,00 0,00 2.159,44 0,00 0,00 1.717,00 10.354,77 832,79 1.224,87 0,00 0,00 2.057,66 8.297,11 30/04/2022
444 638700 CARLOS ALBERTO FERREIRA BRAGA ANALISTA DO MP VESPASIANO - COMARCA; VESPASIANO-PJ-06PJ 9.223,00 922,30 0,00 0,00 0,00 0,00 0,00 1.717,00 11.862,30 927,17 1.561,35 0,00 0,00 2.488,52 9.373,78 30/04/2022
445 375801 CARLOS ALBERTO ROCHA ANALISTA DO MP VARGINHA - COMARCA; GAECO REGIONAL DE VARGINHA 11.008,33 1.100,83 0,00 0,00 0,00 0,00 0,00 2.602,30 14.711,46 1.730,68 1.984,72 0,00 0,00 3.715,40 10.996,06 30/04/2022
446 462800 CARLOS ANDREI SOARES FAGUNDES ANALISTA DO MP MONTES CLAROS - COMARCA; MONTES CLAROS-PJ-09PJ 11.008,33 2.201,67 0,00 0,00 0,00 0,00 0,00 1.717,00 14.927,00 1.906,81 2.186,88 0,00 0,00 4.093,69 10.833,31 30/04/2022
447 370300 CARLOS AUGUSTO BUENO DIAS ASSESSOR BELO HORIZONTE - COMARCA; SUPERINTENDÊNCIA DE ENGENHARIA E ARQUITETURA 0,00 0,00 11.366,79 0,00 0,00 0,00 0,00 1.717,00 13.083,79 828,38 1.656,10 0,00 0,00 2.484,48 10.599,31 30/04/2022
448 505100 CARLOS CEZAR CARVALHO ANALISTA DO MP CONTAGEM - COMARCA; CONTAGEM-PJ-02PJ 11.008,33 4.403,33 0,00 0,00 0,00 0,00 508,59 7.265,20 23.185,45 2.259,08 2.643,33 0,00 0,00 4.902,41 18.283,04 30/04/2022
449 195900 CARLOS DE SOUZA FERREIRA OFICIAL DO MP COROMANDEL - COMARCA; COROMANDEL-PJ-01PJ 11.008,33 8.806,67 0,00 0,00 0,00 2.963,61 0,00 1.717,00 24.495,61 2.963,61 4.579,77 0,00 0,00 7.543,38 16.952,23 30/04/2022
450 196800 CARLOS EDUARDO DE OLIVEIRA MARINHO OFICIAL DO MP ALPINÓPOLIS - COMARCA; ALPINOPOLIS-PJ-UNPJ 18.312,36 12.818,66 0,00 0,00 0,00 0,00 456,59 6.697,96 38.285,57 4.774,18 6.326,63 0,00 0,00 11.100,81 27.184,76 30/04/2022
451 650800 CARLOS EDUARDO NIZA DA SILVA OFICIAL DO MP IGARAPÉ - COMARCA; IGARAPE-PJ-01PJ 5.266,66 526,67 0,00 0,00 0,00 0,00 0,00 2.602,30 8.395,63 729,60 418,89 0,00 0,00 1.148,49 7.247,14 30/04/2022
452 491800 CARLOS EDUARDO ROMAN OFICIAL DO MP BARBACENA - COMARCA; BARBACENA-PJ-09PJ 8.650,50 1.730,10 0,00 0,00 0,00 0,00 0,00 1.717,00 12.097,60 1.454,11 1.585,42 0,00 0,00 3.039,53 9.058,07 30/04/2022
453 299300 CARLOS HENRIQUE BICALHO ANALISTA DO MP BELO HORIZONTE - COMARCA; BH-17PJ PATRIMONIO PUBLICO-SECRETARIA 19.791,01 7.916,40 0,00 0,00 0,00 0,00 507,97 8.143,78 36.359,16 4.226,40 5.587,92 0,00 0,00 9.814,32 26.544,84 30/04/2022
454 205100 CARLOS HENRIQUE ESTEVES OFICIAL DO MP ITAMBACURI - COMARCA; ITAMBACURI-PJ-01PJ 18.312,36 7.324,94 0,00 0,00 0,00 0,00 470,02 6.844,46 32.951,78 3.895,18 5.057,59 0,00 0,00 8.952,77 23.999,01 30/04/2022
455 351600 CARLOS HENRIQUE FELICIO DA FONSECA OFICIAL DO MP JUIZ DE FORA - COMARCA; JUIZ DE FORA-PJ-21PJ 11.008,33 3.302,50 0,00 0,00 0,00 0,00 0,00 1.717,00 16.027,83 2.082,95 2.441,17 0,00 0,00 4.524,12 11.503,71 30/04/2022
456 85400 CARLOS JOSE VIEIRA OFICIAL DO MP BELO HORIZONTE - COMARCA; DIRETORIA DO COLEGIO E DA CAMARA DE PJ 25.971,96 20.777,57 0,00 0,00 0,00 0,00 520,11 7.390,95 54.660,59 5.467,17 7.379,28 11.287,31 0,00 24.133,76 30.526,83 30/04/2022
457 229100 CARLOS MERCES DE OLIVEIRA ANALISTA DO MP BELO HORIZONTE - COMARCA; CENTRAL DE APOIO TECN-SETOR DE MEIO AMBIENTE 20.574,59 8.229,84 0,00 0,00 9.601,48 0,00 0,00 1.717,00 40.122,91 4.401,92 7.236,28 0,00 0,00 11.638,20 28.484,71 30/04/2022
458 538300 CARLOS RANGEL SILVA DE MELO ANALISTA DO MP BELO HORIZONTE - COMARCA; DIVISAO DE CONTROLE IMOBILIARIO 11.008,33 3.302,50 0,00 0,00 0,00 0,00 0,00 2.602,30 16.913,13 2.082,95 2.493,31 0,00 0,00 4.576,26 12.336,87 30/04/2022
459 265100 CARLOS REIFF MIRANDA ANALISTA DO MP BELO HORIZONTE - COMARCA; BH-19PJ SAUDE-SECRETARIA 150PJ 20.574,59 6.172,38 0,00 0,00 8.915,66 0,00 0,00 1.717,00 37.379,63 4.072,73 7.817,86 0,00 0,00 11.890,59 25.489,04 30/04/2022
460 305400 CARLOS ROCHA DE SOUZA OFICIAL DO MP MONTALVÂNIA - COMARCA; MONTALVANIA-PJ-SECRETARIA 6.694,66 2.008,40 0,00 0,00 0,00 0,00 0,00 1.717,00 10.420,06 1.185,70 989,36 0,00 0,00 2.175,06 8.245,00 30/04/2022
461 399900 CARMELITA EVANGELISTA DE SOUZA OFICIAL DO MP JOÃO PINHEIRO - COMARCA; JOAO PINHEIRO-PJ-01PJ 9.378,86 1.875,77 0,00 0,00 0,00 0,00 0,00 1.717,00 12.971,63 1.593,95 1.787,33 0,00 0,00 3.381,28 9.590,35 30/04/2022
462 202000 CARMEN LUCIA MARIZ DE MACEDO OFICIAL DO MP BELO HORIZONTE - COMARCA; DIRETORIA GESTAO COMPRAS LICITACOES 16.695,70 11.686,99 0,00 0,00 0,00 0,00 0,00 1.717,00 30.099,69 4.334,44 5.639,63 0,00 0,00 9.974,07 20.125,62 30/04/2022
463 701900 CAROLINA CARVALHO COSTA ASSESSOR PROCURADOR JUSTICA BELO HORIZONTE - COMARCA; GABINETE DE PROCURADOR DE JUSTIÇA - SALA 811 0,00 0,00 7.857,77 0,00 0,00 0,00 0,00 1.717,00 9.574,77 828,38 1.393,17 0,00 0,00 2.221,55 7.353,22 30/04/2022
464 228500 CAROLINA CHIARELLA DOS SANTOS RIBEIRO COORDENADOR/OFICIAL BELO HORIZONTE - COMARCA; DIVISAO TRANSPORTES 11.008,33 3.302,50 2.584,19 0,00 0,00 0,00 0,00 1.717,00 18.612,02 2.082,95 3.099,69 0,00 0,00 5.182,64 13.429,38 30/04/2022
465 446500 CAROLINA COSTA VAL RODRIGUES COORDENADOR/ANALISTA BELO HORIZONTE - COMARCA; DIVISAO DE MATERIAIS 14.224,47 2.844,89 2.584,19 0,00 0,00 0,00 72,06 2.503,14 22.228,75 2.524,31 3.841,18 0,00 0,00 6.365,49 15.863,26 30/04/2022
466 603501 CAROLINA DOMINGOS BRANDAO RABELLO ANALISTA DO MP BARROSO - COMARCA; BARROSO-PJ-01PJ 10.325,15 1.032,52 0,00 0,00 0,00 0,00 0,00 1.717,00 13.074,67 1.610,44 1.811,13 0,00 0,00 3.421,57 9.653,10 30/04/2022
467 404300 CAROLINA DOS SANTOS VIEIRA ANALISTA DO MP BELO HORIZONTE - COMARCA; BH-08PJ JUIZADO ESPECIAL-SECRETARIA 16.169,47 3.233,89 0,00 0,00 0,00 0,00 0,00 1.717,00 21.120,36 2.897,75 3.565,41 0,00 0,00 6.463,16 14.657,20 30/04/2022
468 551200 CAROLINA LOPES ARANTES MASCARENHAS ANALISTA DO MP CAPINÓPOLIS - COMARCA; CAO-CIVEL 10.325,15 1.032,52 0,00 0,00 0,00 0,00 0,00 2.602,30 13.959,97 1.610,44 1.706,85 0,00 0,00 3.317,29 10.642,68 30/04/2022
469 622600 CAROLINA LOREDO LOPES CATIZANI OFICIAL DO MP RIBEIRÃO DAS NEVES - COMARCA; RIBEIRAO DAS NEVES-PJ-12PJ 5.889,39 588,94 0,00 0,00 0,00 0,00 0,00 1.717,00 8.195,33 832,79 683,16 0,00 0,00 1.515,95 6.679,38 30/04/2022
470 382200 CAROLINA MENDES CHAVES LIN ANALISTA DO MP BELO HORIZONTE - COMARCA; BH-12PJ JUIZO CRIMINAL-GAB 088PJ 11.008,33 2.201,67 0,00 0,00 0,00 0,00 0,00 2.602,30 15.812,30 1.906,81 2.186,88 0,00 0,00 4.093,69 11.718,61 30/04/2022
471 461900 CAROLINA MURTA TEIXEIRA DIAS ANALISTA DO MP BELO HORIZONTE - COMARCA; CENTRO AUTOCOMPOSICAO DE CONFLITOS 11.008,33 2.201,67 0,00 0,00 0,00 0,00 0,00 1.717,00 14.927,00 1.906,81 2.239,02 0,00 0,00 4.145,83 10.781,17 30/04/2022
472 509600 CAROLINA PINTO DE OLIVEIRA SOUZA ANALISTA DO MP MURIAÉ - COMARCA; MURIAE-PJ-01PJ 11.008,33 2.201,67 0,00 0,00 0,00 0,00 0,00 2.602,30 15.812,30 1.906,81 2.134,74 0,00 0,00 4.041,55 11.770,75 30/04/2022
473 629100 CAROLINA RODRIGUES AMARAL ANALISTA DO MP BELO HORIZONTE - COMARCA; PROC. JUSTICA DIR. DIFUSOS E COLETIVOS-SEC 9.999,62 999,96 0,00 0,00 3.666,53 0,00 0,00 1.717,00 16.383,11 1.553,15 2.736,70 0,00 0,00 4.289,85 12.093,26 30/04/2022
474 502600 CAROLINA RODRIGUES RUBEN ANALISTA DO MP BELO HORIZONTE - COMARCA; BH-18PJ VIOLENCIA DOMESTICA-GAB 007PJ 11.008,33 2.201,67 0,00 0,00 0,00 0,00 0,00 3.487,60 16.697,60 1.906,81 2.134,74 0,00 0,00 4.041,55 12.656,05 30/04/2022
475 529600 CAROLINA VAZ DE MELO MAMBRINI ANALISTA DO MP BELO HORIZONTE - COMARCA; BH-14PJ DEFESA CONSUMIDOR-GAB 005PJ 11.008,33 1.100,83 0,00 0,00 0,00 0,00 0,00 1.717,00 13.826,16 1.730,68 1.984,72 0,00 0,00 3.715,40 10.110,76 30/04/2022
476 619100 CAROLINA ZAKHIA NARDELLI RODRIGUES ANALISTA DO MP NEPOMUCENO - COMARCA; NEPOMUCENO-PJ-UNPJ 9.999,62 999,96 0,00 0,00 0,00 0,00 0,00 2.602,30 13.601,88 1.553,15 1.728,41 0,00 0,00 3.281,56 10.320,32 30/04/2022
477 517600 CAROLINE ALVES DE OLIVEIRA MULLER ANALISTA DO MP VISCONDE DO RIO BRANCO - COMARCA; VISCONDE DO RIO BRANCO-PJ-01PJ 11.008,33 2.201,67 0,00 0,00 0,00 0,00 0,00 1.717,00 14.927,00 1.906,81 2.186,88 0,00 0,00 4.093,69 10.833,31 30/04/2022
478 373200 CAROLINE ANTUNES RIBEIRO OFICIAL DO MP JACUI - COMARCA; JACUI-PJ-UNPJ 9.999,62 1.999,92 0,00 0,00 0,00 0,00 0,00 1.717,00 13.716,54 1.713,14 1.855,13 0,00 0,00 3.568,27 10.148,27 30/04/2022
479 556800 CAROLINE DE SOUZA CARDOSO DOMINGUES OFICIAL DO MP BRASÍLIA DE MINAS - COMARCA; BRASILIA DE MINAS-PJ-02PJ 6.694,66 669,47 0,00 0,00 0,00 0,00 0,00 1.717,00 9.081,13 971,47 888,62 0,00 0,00 1.860,09 7.221,04 30/04/2022
480 499400 CAROLINE MARQUES DE LOURDES MARZULLO OFICIAL DO MP JUIZ DE FORA - COMARCA; JUIZ DE FORA-PJ-08PJ 8.650,50 1.730,10 0,00 0,00 0,00 0,00 0,00 3.044,95 13.425,55 927,17 1.662,41 0,00 0,00 2.589,58 10.835,97 30/04/2022
481 616800 CAROLINE MONTEIRO DE BARROS ANALISTA DO MP CONTAGEM - COMARCA; CONTAGEM-PJ-11PJ 9.999,62 999,96 0,00 0,00 0,00 0,00 0,00 1.717,00 12.716,58 927,17 1.819,86 0,00 0,00 2.747,03 9.969,55 30/04/2022
482 618100 CAROLINE VASCONCELOS COSTA LANZA ANALISTA DO MP PARAOPEBA - COMARCA; PARAOPEBA-PJ-UNPJ 9.999,62 999,96 0,00 0,00 0,00 0,00 524,31 10.092,68 21.616,57 1.553,15 1.728,41 0,00 0,00 3.281,56 18.335,01 30/04/2022
483 699000 CAROLLINA RODRIGUES SOUTO AMARAL ASSESSOR PROCURADOR JUSTICA BELO HORIZONTE - COMARCA; GABINETE DE PROCURADOR DE JUSTIÇA - SALA 405 0,00 0,00 7.857,77 0,00 -2.395,91 0,00 0,00 1.717,00 7.178,86 828,38 734,30 0,00 0,00 1.562,68 5.616,18 30/04/2022
484 604000 CASSIA APARECIDA DA SILVA OFICIAL DO MP PARACATU - COMARCA; PARACATU-PJ-01PJ 6.694,66 669,47 0,00 0,00 2.454,71 0,00 0,00 1.717,00 11.535,84 971,47 1.563,67 0,00 0,00 2.535,14 9.000,70 30/04/2022
485 268800 CASSIA BEATRIZ TEIXEIRA OFICIAL DO MP BELO HORIZONTE - COMARCA; PROC JUST ESP ACOES COMP ORIG CRIMINAL-SEC 14.224,47 4.267,34 0,00 0,00 0,00 0,00 67,80 2.456,67 21.016,28 2.751,90 3.459,11 0,00 0,00 6.211,01 14.805,27 30/04/2022
486 500000 CASSIA DE OLIVEIRA COSTA VIANA ANALISTA DO MP SETE LAGOAS - COMARCA; SETE LAGOAS-PJ-09PJ 11.008,33 5.504,16 0,00 0,00 0,00 0,00 0,00 1.717,00 18.229,49 2.435,21 3.001,89 0,00 0,00 5.437,10 12.792,39 30/04/2022
487 368800 CASSIA LUISA BATISTA MENDONCA WEBER OFICIAL DO MP BELO HORIZONTE - COMARCA; DIVISÃO DE EDUCAÇÃO PARA O CONSUMO 9.223,00 2.766,90 0,00 0,00 0,00 0,00 0,00 1.717,00 13.706,90 1.711,60 1.957,17 0,00 0,00 3.668,77 10.038,13 30/04/2022
488 622200 CASSIA VAZ DE AZEVEDO LISBOA MARZANO ASSESSOR BELO HORIZONTE - COMARCA; CGMP-SECRETARIA DA CORREGEDORIA-GERAL DO MP 0,00 0,00 3.363,05 0,00 0,00 0,00 0,00 2.602,30 5.965,35 474,72 172,83 0,00 0,00 647,55 5.317,80 30/04/2022
489 121000 CASSIO HENRIQUE AFONSO DA SILVA OFICIAL DO MP BELO HORIZONTE - COMARCA; CGMP-ASSESSORIA JURIDICA 20.574,59 14.402,22 0,00 0,00 0,00 0,00 512,99 7.313,29 42.803,09 5.389,50 7.162,87 0,00 0,00 12.552,37 30.250,72 30/04/2022
490 512001 CATARINA NATALINO CALIXTO COORDENADOR/ANALISTA BELO HORIZONTE - COMARCA; DIRETORIA GESTAO TRANSPORTES 0,00 1.468,76 14.687,60 0,00 0,00 0,00 0,00 1.717,00 17.873,36 1.553,15 3.146,52 0,00 0,00 4.699,67 13.173,69 30/04/2022
491 606200 CATARINE DE SIQUEIRA DE QUADROS ANALISTA DO MP CONTAGEM - COMARCA; CONTAGEM-PJ-07PJ 10.325,15 1.032,52 0,00 0,00 0,00 0,00 0,00 2.602,30 13.959,97 1.610,44 1.706,85 0,00 0,00 3.317,29 10.642,68 30/04/2022
492 622300 CECILIA APARECIDA PEREIRA ASSUNCAO OFICIAL DO MP TRÊS PONTAS - COMARCA; TRES PONTAS-PJ-SECRETARIA 6.483,63 648,36 0,00 0,00 0,00 0,00 0,00 2.602,30 9.734,29 934,33 782,86 0,00 0,00 1.717,19 8.017,10 30/04/2022
493 538000 CECILIA FONTES DE MATOS PIMENTEL ANALISTA DO MP PALMA - COMARCA; PALMA-PJ-UNPJ 11.008,33 1.100,83 0,00 0,00 0,00 0,00 0,00 2.602,30 14.711,46 1.730,68 1.984,72 0,00 0,00 3.715,40 10.996,06 30/04/2022
494 261300 CECILIO ANTONIO CAMPOS DOS REIS ANALISTA DO MP BELO HORIZONTE - COMARCA; AUDITORIA INTERNA 20.574,59 6.172,38 0,00 0,00 0,00 0,00 490,36 7.066,39 34.303,72 4.072,73 5.366,06 0,00 0,00 9.438,79 24.864,93 30/04/2022
495 386400 CEFAS AMORELI DE FIGUEIREDO OFICIAL DO MP CABO VERDE - COMARCA; CABO VERDE-PJ-SECRETARIA 6.694,66 1.338,93 0,00 0,00 0,00 0,00 0,00 1.717,00 9.750,59 1.078,59 1.043,27 0,00 0,00 2.121,86 7.628,73 30/04/2022
496 149000 CELIA MAGALHAES CLAROS SOSSI OFICIAL DO MP GOVERNADOR VALADARES - COMARCA; GAECO REGIONAL DE GOVERNADOR VALADARES 19.037,29 13.326,11 0,00 0,00 0,00 4.971,36 474,66 6.895,14 44.704,56 4.971,36 8.030,58 0,00 0,00 13.001,94 31.702,62 30/04/2022
497 421000 CELINA BENEDITA DE SOUZA ALMEIDA OFICIAL DO MP CAMBUÍ - COMARCA; CAMBUI-PJ-01PJ 9.684,23 4.842,11 0,00 0,00 0,00 0,00 0,00 1.717,00 16.243,34 2.117,43 2.490,95 0,00 0,00 4.608,38 11.634,96 30/04/2022
498 252900 CELIO DE MELO CASTOR ANALISTA DO MP BELO HORIZONTE - COMARCA; DIVISAO FROTA 20.574,59 6.172,38 0,00 0,00 8.915,66 0,00 0,00 1.717,00 37.379,63 4.072,73 7.817,86 0,00 0,00 11.890,59 25.489,04 30/04/2022
499 395700 CELIO FERREIRA LIMA OFICIAL DO MP CONTAGEM - COMARCA; CONTAGEM-PJ-SECRETARIA 10.325,15 2.065,03 0,00 0,00 0,00 0,00 0,00 1.717,00 14.107,18 1.775,64 1.997,50 0,00 0,00 3.773,14 10.334,04 30/04/2022
500 281300 CELMA REGINA PEREIRA SANTOS ANALISTA DO MP BELO HORIZONTE - COMARCA; PROMOT ESTADUAL DE DEF PATRI CULT E TUR DE MG 20.574,59 6.172,38 0,00 0,00 0,00 0,00 0,00 1.717,00 28.463,97 4.072,73 5.366,06 0,00 0,00 9.438,79 19.025,18 30/04/2022
501 535600 CELSO MEDEIROS DE PAIVA OFICIAL DO MP RIO PRETO - COMARCA; RIO PRETO-PJ-SECRETARIA 6.694,66 669,47 0,00 0,00 0,00 0,00 0,00 1.970,26 9.334,39 971,47 836,48 0,00 0,00 1.807,95 7.526,44 30/04/2022
502 367000 CESAR NARVAES DE AVELAR OFICIAL DO MP BELO HORIZONTE - COMARCA; DIRET DE INFORMACAO E CONHECIMENTO-DINC/CEAF 11.008,33 3.302,50 0,00 0,00 0,00 0,00 0,00 1.717,00 16.027,83 2.082,95 2.493,31 0,00 0,00 4.576,26 11.451,57 30/04/2022
503 226500 CESAR SILVEIRA BARROUIN OFICIAL DO MP BELO HORIZONTE - COMARCA; DIRETORIA DE ADMINISTRACAO FINANCEIRA 14.224,47 5.689,79 0,00 0,00 0,00 0,00 73,02 2.513,57 22.500,85 2.979,50 3.787,70 0,00 0,00 6.767,20 15.733,65 30/04/2022
504 121400 CEZAR MORENO CONCEICAO TAVARES OFICIAL DO MP BELO HORIZONTE - COMARCA; COORD DE INCLUSAO E MOBILIZACAO SOCIAIS 19.037,29 13.326,11 0,00 0,00 0,00 0,00 474,66 7.780,44 40.618,50 4.971,36 6.559,18 0,00 0,00 11.530,54 29.087,96 30/04/2022
505 243800 CHARLES MARTINS MUNIZ OFICIAL DO MP BELO HORIZONTE - COMARCA; LAB TECNOLOGIA CONTRA LAVAGEM DINHEIRO 14.224,47 5.689,79 0,00 0,00 0,00 0,00 73,02 1.994,57 21.981,85 2.979,50 3.787,70 0,00 0,00 6.767,20 15.214,65 30/04/2022
506 193500 CHARLIN CESAR KOURLY OFICIAL DO MP ARAGUARI - COMARCA; ARAGUARI-PJ-07PJ 18.312,36 7.324,94 0,00 0,00 0,00 0,00 470,02 6.844,46 32.951,78 3.895,18 5.109,72 0,00 0,00 9.004,90 23.946,88 30/04/2022
507 385500 CHILLEN PEIXOTO DE MOURA OFICIAL DO MP BELO HORIZONTE - COMARCA; DIVISAO DE MATERIAIS 10.325,15 2.065,03 0,00 0,00 0,00 0,00 0,00 2.602,30 14.992,48 1.775,64 2.049,64 0,00 0,00 3.825,28 11.167,20 30/04/2022
508 534500 CHRISTIAN DOUGLAS BRITO RUAS OFICIAL DO MP SÃO JOÃO DA PONTE - COMARCA; SAO JOAO DA PONTE-PJ-SECRETARIA 6.694,66 669,47 0,00 0,00 0,00 0,00 0,00 1.717,00 9.081,13 971,47 888,62 0,00 0,00 1.860,09 7.221,04 30/04/2022
509 370600 CHRISTIAN KARINE FELIX PRATES ASSESSOR BELO HORIZONTE - COMARCA; SUPRIN DE PLANEJAMENTO E COORDENACAO 0,00 0,00 11.366,79 0,00 0,00 0,00 0,00 1.717,00 13.083,79 828,38 2.358,15 0,00 0,00 3.186,53 9.897,26 30/04/2022
510 435800 CHRISTIANA BAHIA ANDRADE PINA ANALISTA DO MP BELO HORIZONTE - COMARCA; LABORATORIO TECNOLOGIA INTELIGENCIA 15.659,55 3.131,91 0,00 0,00 0,00 0,00 68,90 3.353,96 22.214,32 2.799,85 3.528,33 0,00 0,00 6.328,18 15.886,14 30/04/2022
511 516800 CHRISTIANE FERREIRA DO NASCIMENTO ANALISTA DO MP POUSO ALEGRE - COMARCA; POUSO ALEGRE-PJ-08PJ 11.008,33 2.201,67 0,00 0,00 0,00 0,00 0,00 1.717,00 14.927,00 1.906,81 2.239,02 0,00 0,00 4.145,83 10.781,17 30/04/2022
512 176000 CHRISTIANE JUNQUEIRA PULITI ANDRADE DE BARROS ASSESSOR BELO HORIZONTE - COMARCA; PROCURADORIA-GERAL ADJUNTA INSTITUCIONAL 0,00 15.229,84 19.037,29 0,00 0,00 5.275,95 0,00 1.717,00 41.260,08 5.275,95 8.554,10 0,00 0,00 13.830,05 27.430,03 30/04/2022
513 319200 CHRISTIANE MARIA DE ASSIS RUSSO OFICIAL DO MP BELO HORIZONTE - COMARCA; CAO-ORDEM ECONOMICA E TRIBUTARIA-SECRETARIA 13.341,69 4.002,51 0,00 0,00 0,00 0,00 0,00 2.602,30 19.946,50 2.568,29 3.141,88 0,00 0,00 5.710,17 14.236,33 30/04/2022
514 510300 CHRISTIANE MARY DE CARVALHO FERREIRA ANALISTA DO MP BELO HORIZONTE - COMARCA; DIRETORIA DE SISTEMAS DE INFORMACAO 11.008,33 2.201,67 0,00 0,00 0,00 0,00 0,00 1.717,00 14.927,00 1.906,81 2.186,88 0,00 0,00 4.093,69 10.833,31 30/04/2022
515 424900 CHRISTIANE PEREIRA TURNER DE ARAUJO OFICIAL DO MP BELO HORIZONTE - COMARCA; CAO-PATRIMONIO PUBLICO 9.684,23 1.936,85 0,00 0,00 0,00 0,00 0,00 2.602,30 14.223,38 1.652,59 1.767,70 0,00 0,00 3.420,29 10.803,09 30/04/2022
516 513700 CHRISTIANE VIEIRA SOARES PEDERSOLI COORDENADOR/ANALISTA BELO HORIZONTE - COMARCA; ASSESSORIA JURIDICA DO PROCON-MG 11.008,33 2.201,67 2.584,19 0,00 0,00 0,00 0,00 1.717,00 17.511,19 1.906,81 2.949,67 0,00 0,00 4.856,48 12.654,71 30/04/2022
517 412300 CHRYSTIAN MACHADO RIBEIRO ANALISTA DO MP VARGINHA - COMARCA; VARGINHA-PJ-04PJ 15.659,55 3.131,91 0,00 0,00 0,00 0,00 68,90 2.468,66 21.329,02 2.799,85 3.528,33 0,00 0,00 6.328,18 15.000,84 30/04/2022
518 513800 CHRYSTIANE DO NASCIMENTO DE MAGALHAES OFICIAL DO MP UBERLÂNDIA - COMARCA; UBERLANDIA-PJ-10PJ 8.377,76 1.675,55 0,00 0,00 0,00 0,00 0,00 1.717,00 11.770,31 1.401,74 1.405,55 0,00 0,00 2.807,29 8.963,02 30/04/2022
519 497900 CIBELE DE FREITAS SANCHES DIAS ANALISTA DO MP SABARÁ - COMARCA; SABARA-PJ-03PJ 11.008,33 2.201,67 0,00 0,00 0,00 0,00 0,00 1.717,00 14.927,00 927,17 2.330,00 0,00 0,00 3.257,17 11.669,83 30/04/2022
520 500900 CIBELLE SILVA PRADO ALVARENGA ANALISTA DO MP ITANHANDU - COMARCA; ITANHANDU-PJ-UNPJ 11.008,33 2.201,67 0,00 0,00 0,00 0,00 48,44 3.130,70 16.389,14 1.906,81 2.239,02 0,00 0,00 4.145,83 12.243,31 30/04/2022
521 296400 CINTIA APARECIDA MOREIRA NAVES E RODRIGUES ANALISTA DO MP CAMPO BELO - COMARCA; CAMPO BELO-PJ-01PJ 19.791,01 5.937,30 0,00 0,00 0,00 0,00 471,69 6.862,66 33.062,66 3.909,74 5.130,75 0,00 0,00 9.040,49 24.022,17 30/04/2022
522 407900 CINTIA NETO COMELLI ANALISTA DO MP BELO HORIZONTE - COMARCA; CENTRAL DE APOIO TECNICO-SETOR CONTABIL 15.659,55 3.131,91 0,00 0,00 0,00 0,00 0,00 1.717,00 20.508,46 2.799,85 3.476,20 0,00 0,00 6.276,05 14.232,41 30/04/2022
523 304700 CINTIA QUEIROZ OFICIAL DO MP BELO HORIZONTE - COMARCA; OUVIDORIA DO MPMG 11.008,33 3.302,50 0,00 0,00 0,00 0,00 157,42 3.434,30 17.902,55 2.082,95 2.493,31 0,00 0,00 4.576,26 13.326,29 30/04/2022
524 286100 CIRO CANGUSSU CORDEIRO OFICIAL DO MP IPATINGA - COMARCA; IPATINGA-PJ-09PJ 8.650,50 2.595,15 0,00 0,00 3.748,55 0,00 536,04 8.450,04 23.980,28 1.592,52 2.711,83 0,00 0,00 4.304,35 19.675,93 30/04/2022
525 689900 CISSA NOGUEIRA NUNES ASSESSOR PROCURADOR JUSTICA BELO HORIZONTE - COMARCA; GABINETE DE PROCURADOR DE JUSTIÇA - SALA 608 0,00 0,00 7.857,77 0,00 0,00 0,00 0,00 1.717,00 9.574,77 828,38 1.393,17 0,00 0,00 2.221,55 7.353,22 30/04/2022
526 681700 CLARA FERREIRA ALKIMIM ASSESSOR PROMOTOR JUSTICA PEDRA AZUL - COMARCA; PEDRA AZUL-PJ-02PJ 0,00 0,00 7.857,77 0,00 -2.395,91 0,00 0,00 1.717,00 7.178,86 828,38 734,30 0,00 0,00 1.562,68 5.616,18 30/04/2022
527 715500 CLARA ISABELLE SOUSA FARIA ASSESSOR PROCURADOR JUSTICA BELO HORIZONTE - COMARCA; GABINETE DE PROCURADOR DE JUSTIÇA - SALA 712 0,00 0,00 7.857,77 0,00 0,00 0,00 0,00 1.717,00 9.574,77 828,38 1.393,17 0,00 0,00 2.221,55 7.353,22 30/04/2022
528 723100 CLARA PRADO CAMPOS ASSESSOR PROCURADOR JUSTICA BELO HORIZONTE - COMARCA; ASSESS TECNICO-JUR JUNTO AS PROC. DE JUST 0,00 0,00 7.071,99 0,00 0,00 0,00 0,00 1.662,55 8.734,54 828,38 1.162,11 0,00 0,00 1.990,49 6.744,05 30/04/2022
529 695500 CLARA RODRIGUES BLACH ASSESSOR PROCURADOR JUSTICA BELO HORIZONTE - COMARCA; GABINETE DE PROCURADOR DE JUSTIÇA - SALA 1003 0,00 0,00 7.857,77 0,00 0,00 0,00 0,00 1.717,00 9.574,77 828,38 1.393,17 0,00 0,00 2.221,55 7.353,22 30/04/2022
530 412500 CLARICE GOMES MAROTTA ANALISTA DO MP BELO HORIZONTE - COMARCA; COORD ESTADUAL DE DEFESA DOS ANIMAIS 15.659,55 4.697,87 0,00 0,00 0,00 0,00 74,64 2.531,30 22.963,36 3.050,40 3.890,07 0,00 0,00 6.940,47 16.022,89 30/04/2022
531 605300 CLARISSA AZEVEDO ROCHA OFICIAL DO MP BELO HORIZONTE - COMARCA; BH-17PJ PATRIMONIO PUBLICO-SECRETARIA 6.694,66 669,47 0,00 0,00 0,00 0,00 0,00 1.717,00 9.081,13 971,47 888,62 0,00 0,00 1.860,09 7.221,04 30/04/2022
532 308100 CLARISSA DUARTE BELLONI DIRETOR/ANALISTA BELO HORIZONTE - COMARCA; DIRETORIA-GERAL 0,00 8.100,07 27.000,22 0,00 0,00 0,00 514,80 9.988,95 45.604,04 3.909,74 7.603,77 0,00 0,00 11.513,51 34.090,53 30/04/2022
533 497100 CLARISSA ROCHA GUIDI ANALISTA DO MP BELO HORIZONTE - COMARCA; BH-02PJ FAMILIA-SECRETARIA 12.118,97 2.423,79 0,00 0,00 0,00 0,00 0,00 3.487,60 18.030,36 2.120,06 2.494,75 0,00 0,00 4.614,81 13.415,55 30/04/2022
534 641800 CLARISSE TAVARES GONCALVES OFICIAL DO MP BELO HORIZONTE - COMARCA; BH-07PJ 01 TRIBUNAL JURI-SECRETARIA 5.889,39 588,94 0,00 0,00 0,00 0,00 0,00 1.717,00 8.195,33 832,79 683,16 0,00 0,00 1.515,95 6.679,38 30/04/2022
535 463700 CLAUDIA ADRIANA FERRAO DIAS ANALISTA DO MP SETE LAGOAS - COMARCA; SETE LAGOAS-PJ-06PJ 11.008,33 2.201,67 0,00 0,00 0,00 0,00 532,80 7.529,40 21.272,20 1.906,81 2.239,02 0,00 0,00 4.145,83 17.126,37 30/04/2022
536 415400 CLAUDIA ALMEIDA DE VASCONCELLOS BARROS ASSESSOR/OFICIAL BELO HORIZONTE - COMARCA; DIVISAO DE SERVICOS 0,00 2.273,36 11.366,79 0,00 0,00 0,00 50,01 2.262,61 15.952,77 1.975,64 2.338,38 0,00 0,00 4.314,02 11.638,75 30/04/2022
537 207000 CLAUDIA APARECIDA VILELA MACHADO ANALISTA DO MP BELO HORIZONTE - COMARCA; CENTRAL DE APOIO TECNICO-SETOR CONTABIL 20.574,59 8.229,84 0,00 0,00 0,00 0,00 528,08 7.477,89 36.810,40 4.401,92 5.684,92 0,00 0,00 10.086,84 26.723,56 30/04/2022
538 365700 CLAUDIA BREGUEZ CUNHA ANALISTA DO MP VARGINHA - COMARCA; VARGINHA-PJ-07PJ 16.695,70 5.008,71 0,00 0,00 0,00 0,00 318,33 6.075,01 28.097,75 3.265,92 4.201,22 0,00 0,00 7.467,14 20.630,61 30/04/2022
539 430500 CLAUDIA CECILIA SANTANA VENCESLAU OFICIAL DO MP BELO HORIZONTE - COMARCA; LAB TECNOLOGIA CONTRA LAVAGEM DINHEIRO 9.684,23 1.936,85 0,00 0,00 0,00 0,00 0,00 1.717,00 13.338,08 1.652,59 1.819,84 0,00 0,00 3.472,43 9.865,65 30/04/2022
540 213601 CLAUDIA GONCALVES CALIXTO ASSESSOR PROCURADOR JUSTICA BELO HORIZONTE - COMARCA; PROC. JUSTICA DIR. DIFUSOS E COLETIVOS 0,00 0,00 7.857,77 0,00 0,00 0,00 0,00 1.717,00 9.574,77 828,38 1.393,17 0,00 0,00 2.221,55 7.353,22 30/04/2022
541 480400 CLAUDIA GOULART DE SOUZA OFICIAL DO MP PASSOS - COMARCA; PASSOS-PJ-06PJ 8.650,50 1.730,10 0,00 0,00 0,00 0,00 0,00 1.717,00 12.097,60 1.454,11 1.585,42 0,00 0,00 3.039,53 9.058,07 30/04/2022
542 519800 CLAUDIA HELENA CORREA DE ALMEIDA ANALISTA DO MP BELO HORIZONTE - COMARCA; BH-12PJ JUIZO CRIMINAL-GAB 096PJ 11.008,33 2.201,67 0,00 0,00 0,00 0,00 0,00 1.717,00 14.927,00 1.906,81 2.239,02 0,00 0,00 4.145,83 10.781,17 30/04/2022
543 422100 CLAUDIA IACOMINI CABRAL ANALISTA DO MP BELO HORIZONTE - COMARCA; CENT DE APOIO TEC-SETOR DEF,IDOSO E INFANC 15.659,55 10.961,70 0,00 0,00 0,00 0,00 0,00 1.717,00 28.338,25 4.052,61 5.337,01 0,00 0,00 9.389,62 18.948,63 30/04/2022
544 258200 CLAUDIA LAGE MICHALAROS ANALISTA DO MP BELO HORIZONTE - COMARCA; CENTRAL DE APOIO TECN-SETOR DE MEIO AMBIENTE 20.574,59 14.402,22 0,00 0,00 0,00 5.389,50 384,75 5.914,22 46.665,28 5.389,50 8.697,13 0,00 0,00 14.086,63 32.578,65 30/04/2022
545 284600 CLAUDIA LENI DE FREITAS OFICIAL DO MP CONTAGEM - COMARCA; CONTAGEM-PJ-SECRETARIA 6.694,66 2.677,86 0,00 0,00 0,00 0,00 0,00 1.717,00 11.089,52 1.292,82 1.352,56 0,00 0,00 2.645,38 8.444,14 30/04/2022
546 433600 CLAUDIA LUIZA SANTIAGO FELICIO ANALISTA DO MP BELO HORIZONTE - COMARCA; CENT DE APOIO TEC-SETOR DEF,IDOSO E INFANC 15.659,55 3.131,91 0,00 0,00 0,00 0,00 0,00 1.717,00 20.508,46 2.799,85 3.424,06 0,00 0,00 6.223,91 14.284,55 30/04/2022
547 317000 CLAUDIA MACHADO ALVES ASSESSOR/OFICIAL BELO HORIZONTE - COMARCA; DIR GOVERNANCA TECNOLOGIA INFORMACAO 0,00 3.410,04 11.366,79 0,00 0,00 0,00 0,00 1.717,00 16.493,83 1.807,53 2.697,20 0,00 0,00 4.504,73 11.989,10 30/04/2022
548 155300 CLAUDIA MACIEL MIRANDA OFICIAL DO MP CONGONHAS - COMARCA; CONGONHAS-PJ-02PJ 19.037,29 9.518,65 0,00 0,00 0,00 0,00 523,53 7.428,19 36.507,66 4.362,16 5.679,65 0,00 0,00 10.041,81 26.465,85 30/04/2022
549 242200 CLAUDIA MICHELLE DIAS MUNIZ BALEEIRO OFICIAL DO MP MONTE AZUL - COMARCA; MONTE AZUL-PJ-SECRETARIA 14.224,47 5.689,79 0,00 0,00 0,00 0,00 73,02 2.513,57 22.500,85 2.979,50 3.735,56 0,00 0,00 6.715,06 15.785,79 30/04/2022
550 623000 CLAUDIA PATRICIA SILVA RODRIGUES RAPOSEIRAS OFICIAL DO MP PARÁ DE MINAS - COMARCA; PARA DE MINAS-PJ-02PJ 6.483,63 648,36 0,00 0,00 0,00 0,00 0,00 2.602,30 9.734,29 934,33 782,86 0,00 0,00 1.717,19 8.017,10 30/04/2022
551 418400 CLAUDIA REGINA MARTINS BONIFACIO OFICIAL DO MP ITUIUTABA - COMARCA; ITUIUTABA-PJ-06PJ 9.684,23 1.936,85 0,00 0,00 0,00 0,00 0,00 1.717,00 13.338,08 1.652,59 1.767,70 0,00 0,00 3.420,29 9.917,79 30/04/2022
552 498300 CLAUDIA SOUTO FARIAS BRAUN OFICIAL DO MP TEÓFILO OTONI - COMARCA; TEOFILO OTONI-PJ-SECRETARIA 6.694,66 1.338,93 0,00 0,00 0,00 0,00 0,00 1.717,00 9.750,59 1.078,59 938,99 0,00 0,00 2.017,58 7.733,01 30/04/2022
553 206500 CLAUDIA VALERIA FONSECA ANDRADE ANALISTA DO MP BELO HORIZONTE - COMARCA; BH-23PJ INF-FISC MED SOC FEC 20.574,59 10.287,30 0,00 0,00 0,00 4.731,12 452,64 6.654,90 42.700,55 4.731,12 7.617,66 0,00 0,00 12.348,78 30.351,77 30/04/2022
554 277500 CLAUDIO ANTONIO BORGES BRUNSWICK ALVARES OFICIAL DO MP BELO HORIZONTE - COMARCA; BH-15PJ M AMB PAT HIST CULT-GAB 116PJ 11.008,33 3.302,50 0,00 0,00 0,00 0,00 0,00 1.717,00 16.027,83 2.082,95 2.493,31 0,00 0,00 4.576,26 11.451,57 30/04/2022
555 444800 CLAUDIO ARESIO DO CARMO ANALISTA DO MP SETE LAGOAS - COMARCA; SETE LAGOAS-PJ-01PJ 12.118,97 4.847,59 0,00 0,00 0,00 0,00 0,00 1.717,00 18.683,56 2.507,86 3.054,64 0,00 0,00 5.562,50 13.121,06 30/04/2022
556 545100 CLAUDIO HENRIQUE MACEDO DE SOUZA FRANSOZO ANALISTA DO MP OURO PRETO - COMARCA; OURO PRETO-PJ-03PJ 11.008,33 1.100,83 0,00 0,00 0,00 0,00 0,00 2.602,30 14.711,46 927,17 2.102,11 0,00 0,00 3.029,28 11.682,18 30/04/2022
557 353500 CLAUDIO HENRIQUE PEDRO DA ROCHA OFICIAL DO MP BELO HORIZONTE - COMARCA; DIVISAO TRANSPORTES 11.008,33 3.302,50 0,00 0,00 0,00 0,00 524,73 7.441,33 22.276,89 2.082,95 2.389,03 0,00 0,00 4.471,98 17.804,91 30/04/2022
558 265800 CLAUDIO KUPIDLOWSKY FERNANDES OFICIAL DO MP BELO HORIZONTE - COMARCA; SECRETARIA DO PROCON-MG 11.008,33 3.302,50 0,00 0,00 0,00 0,00 0,00 1.717,00 16.027,83 2.082,95 1.633,77 0,00 0,00 3.716,72 12.311,11 30/04/2022
559 193600 CLAUDIO LEITE FONTES OFICIAL DO MP ITUIUTABA - COMARCA; ITUIUTABA-PJ-02PJ 11.008,33 4.403,33 0,00 0,00 0,00 0,00 0,00 1.717,00 17.128,66 2.259,08 2.414,30 0,00 0,00 4.673,38 12.455,28 30/04/2022
560 329400 CLAUDIO MARCIO BERNARDES OFICIAL DO MP ITAÚNA - COMARCA; ITAUNA-PJ-03PJ 11.008,33 7.705,83 0,00 0,00 0,00 0,00 0,00 2.602,30 21.316,46 2.787,48 3.458,34 0,00 0,00 6.245,82 15.070,64 30/04/2022
561 270200 CLAUDIO RABELO ALVES OFICIAL DO MP FORMIGA - COMARCA; FORMIGA-PJ-03PJ 12.118,97 3.635,69 0,00 0,00 0,00 0,00 0,00 1.717,00 17.471,66 2.313,96 2.618,28 0,00 0,00 4.932,24 12.539,42 30/04/2022
562 264700 CLAUDIO ROBERTO KFURI DE ARAUJO ANALISTA DO MP BELO HORIZONTE - COMARCA; CENTRAL DE APOIO TECNICO-SETOR DE INFORMATICA 20.574,59 6.172,38 0,00 0,00 0,00 0,00 0,00 1.717,00 28.463,97 4.072,73 5.261,78 0,00 0,00 9.334,51 19.129,46 30/04/2022
563 188600 CLAUDIO SALES OFICIAL DO MP NEPOMUCENO - COMARCA; NEPOMUCENO-PJ-SECRETARIA 16.695,70 13.356,56 0,00 0,00 0,00 0,00 0,00 1.717,00 31.769,26 4.601,58 6.129,58 0,00 0,00 10.731,16 21.038,10 30/04/2022
564 543300 CLAUDIO SILVA DE CARVALHO ANALISTA DO MP CAMPO BELO - COMARCA; CAMPO BELO-PJ-03PJ 10.325,15 1.032,52 0,00 0,00 0,00 0,00 0,00 1.717,00 13.074,67 1.610,44 1.758,99 0,00 0,00 3.369,43 9.705,24 30/04/2022
565 160700 CLAUDIO VICENTE HESS ASSESSOR BELO HORIZONTE - COMARCA; CENTRAL DE APOIO TECNICO-SETOR DE INFORMATICA 0,00 7.343,80 14.687,60 0,00 0,00 0,00 484,69 7.004,54 29.520,63 828,38 5.186,65 0,00 0,00 6.015,03 23.505,60 30/04/2022
566 312900 CLAUDIO VIEIRA FIRPE OFICIAL DO MP BELO HORIZONTE - COMARCA; DIR RELACOES INSTITUCIONAIS 11.008,33 3.302,50 0,00 0,00 0,00 0,00 0,00 1.717,00 16.027,83 2.082,95 2.493,31 0,00 0,00 4.576,26 11.451,57 30/04/2022
567 634100 CLEA CRISTINA GUERRA DE FREITAS COSTA OFICIAL DO MP BELO HORIZONTE - COMARCA; BH-18PJ VIOLENCIA DOMESTICA-SECRETARIA 6.483,63 648,36 0,00 0,00 0,00 0,00 0,00 2.602,30 9.734,29 934,33 782,86 0,00 0,00 1.717,19 8.017,10 30/04/2022
568 459200 CLEIA ZILLE PEREIRA ANALISTA DO MP BELO HORIZONTE - COMARCA; BH-07PJ 01 TRIBUNAL JURI-SECRETARIA 11.008,33 2.201,67 0,00 0,00 0,00 0,00 532,80 7.529,40 21.272,20 1.906,81 2.239,02 0,00 0,00 4.145,83 17.126,37 30/04/2022
569 481800 CLEIDE CARDOSO DA SILVA ANALISTA DO MP MANHUAÇU - COMARCA; MANHUACU-PJ-04PJ 11.008,33 2.201,67 0,00 0,00 0,00 0,00 0,00 1.717,00 14.927,00 1.906,81 2.134,74 0,00 0,00 4.041,55 10.885,45 30/04/2022
570 347600 CLEIDIMAR DE OLIVEIRA SILVA OFICIAL DO MP PATOS DE MINAS - COMARCA; PATOS DE MINAS-PJ-03PJ 10.661,25 3.198,38 0,00 0,00 0,00 0,00 0,00 1.717,00 15.576,63 2.010,75 2.180,53 0,00 0,00 4.191,28 11.385,35 30/04/2022
571 396500 CLEIDISON BATISTA DE ANDRADE OFICIAL DO MP RESPLENDOR - COMARCA; RESPLENDOR-PJ-UNPJ 9.684,23 1.936,85 0,00 0,00 0,00 0,00 0,00 1.717,00 13.338,08 1.652,59 1.767,70 0,00 0,00 3.420,29 9.917,79 30/04/2022
572 535100 CLEISON ALVES DA SILVA ANALISTA DO MP BOA ESPERANÇA - COMARCA; BOA ESPERANCA-PJ-01PJ 11.008,33 1.100,83 0,00 0,00 0,00 0,00 0,00 1.717,00 13.826,16 1.730,68 1.880,45 0,00 0,00 3.611,13 10.215,03 30/04/2022
573 298100 CLEONICE AUGUSTA BARROS DE OLIVEIRA ANALISTA DO MP JUIZ DE FORA - COMARCA; JUIZ DE FORA-PJ-08PJ 20.574,59 6.172,38 0,00 0,00 0,00 0,00 0,00 1.717,00 28.463,97 4.072,73 5.366,06 0,00 0,00 9.438,79 19.025,18 30/04/2022
574 264100 CLETO HENRIQUE ANDRADE SILVA ANALISTA DO MP BELO HORIZONTE - COMARCA; DIRETORIA DE SISTEMAS DE INFORMACAO 20.574,59 6.172,38 0,00 0,00 0,00 0,00 490,36 7.066,39 34.303,72 4.072,73 5.261,78 0,00 0,00 9.334,51 24.969,21 30/04/2022
575 334400 CLEUBA DE OLIVEIRA BARCELOS GONCALVES OFICIAL DO MP DIVINÓPOLIS - COMARCA; COORD REG SAUDE MACRORREGIAO SANITARIA OESTE 11.008,33 3.302,50 0,00 0,00 0,00 0,00 0,00 1.717,00 16.027,83 2.082,95 2.441,17 0,00 0,00 4.524,12 11.503,71 30/04/2022
576 347500 CLEUSA CORDEIRO DA MATA PIMENTA OFICIAL DO MP CAMPO BELO - COMARCA; CAMPO BELO-PJ-01PJ 11.008,33 8.806,67 0,00 0,00 0,00 2.963,61 72,66 2.509,60 25.360,87 2.963,61 4.475,49 0,00 0,00 7.439,10 17.921,77 30/04/2022
577 510200 CLEZIO SALES SILVA OFICIAL DO MP BRASÓPOLIS - COMARCA; BRASOPOLIS-PJ-UNPJ 6.694,66 1.338,93 0,00 0,00 0,00 0,00 0,00 3.140,65 11.174,24 1.078,59 1.043,27 0,00 0,00 2.121,86 9.052,38 30/04/2022
578 323000 CLOTILDE DE PADUA VIEIRA OFICIAL DO MP BELO HORIZONTE - COMARCA; BH-19PJ SAUDE-SECRETARIA 129PJ 9.999,62 2.999,89 0,00 0,00 0,00 0,00 0,00 1.717,00 14.716,51 1.873,14 2.190,39 0,00 0,00 4.063,53 10.652,98 30/04/2022
579 285200 CLOVIS ANDRE LUDTKE OFICIAL DO MP BELO HORIZONTE - COMARCA; DIVISAO DE MANUTENCAO PREDIAL 11.008,33 3.302,50 0,00 0,00 0,00 0,00 0,00 1.717,00 16.027,83 2.082,95 2.493,31 0,00 0,00 4.576,26 11.451,57 30/04/2022
580 381100 CONCEICAO APARECIDA TEIXEIRA ARANTES ANALISTA DO MP BELO HORIZONTE - COMARCA; BH-23PJ INFRACIONAL-ASS JURIDICA 15.659,55 3.131,91 0,00 0,00 0,00 0,00 3.381,57 7.863,91 30.036,94 3.263,73 4.145,93 0,00 0,00 7.409,66 22.627,28 30/04/2022
581 249900 CONSTANTINO CEZAR GOMES MOTA OFICIAL DO MP MONTES CLAROS - COMARCA; COORD REG BACIA RIOS VERDE GRANDE E PARDO 11.008,33 3.302,50 0,00 0,00 0,00 0,00 0,00 3.487,60 17.798,43 2.082,95 2.389,03 0,00 0,00 4.471,98 13.326,45 30/04/2022
582 481000 CRISHMA ANALIA LOMBELLO ANALISTA DO MP JUIZ DE FORA - COMARCA; JUIZ DE FORA-PJ-13PJ 11.008,33 2.201,67 0,00 0,00 0,00 0,00 0,00 1.717,00 14.927,00 1.906,81 2.186,88 0,00 0,00 4.093,69 10.833,31 30/04/2022
583 523900 CRISTHYANE BAZOLI COSTA GUEDES COUTO OFICIAL DO MP BELO HORIZONTE - COMARCA; BH-04PJ JUIZO REG PÚBLICOS-SECRETARIA 8.377,76 1.675,55 0,00 0,00 0,00 0,00 0,00 1.717,00 11.770,31 1.401,74 1.509,82 0,00 0,00 2.911,56 8.858,75 30/04/2022
584 187000 CRISTIAN DAYVSON EVANGELISTA OFICIAL DO MP JUIZ DE FORA - COMARCA; JUIZ DE FORA-PJ-13PJ 16.695,70 6.678,28 0,00 0,00 0,00 0,00 342,82 5.456,84 29.173,64 3.533,05 4.534,76 0,00 0,00 8.067,81 21.105,83 30/04/2022
585 682100 CRISTIAN TRISTAO DE ANDRADE ASSESSOR PROMOTOR JUSTICA TRÊS CORACOES - COMARCA; TRES CORACOES-PJ-04PJ 0,00 0,00 7.857,77 0,00 2.619,26 0,00 0,00 1.717,00 12.194,03 828,38 2.113,47 0,00 0,00 2.941,85 9.252,18 30/04/2022
586 319800 CRISTIANA GONCALVES DOS SANTOS GUSMAO OFICIAL DO MP PARAOPEBA - COMARCA; PARAOPEBA-PJ-UNPJ 11.008,33 3.302,50 0,00 0,00 0,00 0,00 0,00 1.717,00 16.027,83 2.082,95 2.389,03 0,00 0,00 4.471,98 11.555,85 30/04/2022
587 520600 CRISTIANA JANAINA BARBOZA JUVENCIO DOS SANTOS ANALISTA DO MP BELO HORIZONTE - COMARCA; BH-02PJ FAMILIA-SECRETARIA 11.008,33 2.201,67 0,00 0,00 0,00 0,00 0,00 1.717,00 14.927,00 1.906,81 2.239,02 0,00 0,00 4.145,83 10.781,17 30/04/2022
588 195600 CRISTIANA SOARES HALABI OFICIAL DO MP UBERABA - COMARCA; UBERABA-PJ-01PJ 17.614,89 7.045,96 0,00 0,00 0,00 0,00 542,54 7.635,60 32.838,99 3.738,95 4.884,16 0,00 0,00 8.623,11 24.215,88 30/04/2022
589 218900 CRISTIANE ALVES BELLES OFICIAL DO MP JUIZ DE FORA - COMARCA; JUIZ DE FORA-PJ-10PJ 6.694,66 2.008,40 0,00 0,00 0,00 0,00 0,00 3.044,95 11.748,01 1.185,70 1.093,64 0,00 0,00 2.279,34 9.468,67 30/04/2022
590 263600 CRISTIANE CARVALHO COUTINHO OFICIAL DO MP BELO HORIZONTE - COMARCA; BH-23PJ INFRACIONAL-SEC EXP 11.736,91 3.521,07 0,00 0,00 0,00 0,00 0,00 1.717,00 16.974,98 2.234,49 2.659,96 0,00 0,00 4.894,45 12.080,53 30/04/2022
591 541000 CRISTIANE COELHO ALVES OFICIAL DO MP ITABIRA - COMARCA; ITABIRA-PJ-03PJ 6.694,66 669,47 0,00 0,00 0,00 0,00 81,01 2.600,70 10.045,84 971,47 836,48 0,00 0,00 1.807,95 8.237,89 30/04/2022
592 441700 CRISTIANE CORRADO DE ANDRADE ANALISTA DO MP BELO HORIZONTE - COMARCA; DIRETORIA DE SISTEMAS DE INFORMACAO 15.659,55 3.131,91 0,00 0,00 0,00 0,00 0,00 1.717,00 20.508,46 2.799,85 3.528,33 0,00 0,00 6.328,18 14.180,28 30/04/2022
593 375100 CRISTIANE DAS DORES ERCIO DE LIMA OFICIAL DO MP GOVERNADOR VALADARES - COMARCA; COOR REG APOIO COM INC MOB VALE DO RIO DOCE 9.378,86 1.875,77 0,00 0,00 0,00 0,00 0,00 1.717,00 12.971,63 1.593,95 1.787,33 0,00 0,00 3.381,28 9.590,35 30/04/2022
594 178800 CRISTIANE DE LIMA HOSKEN OFICIAL DO MP BELO HORIZONTE - COMARCA; BH-14PJ DEFESA CONSUMIDOR-GAB 110PJ 18.312,36 7.324,94 0,00 0,00 0,00 0,00 470,02 6.844,46 32.951,78 3.895,18 5.057,59 0,00 0,00 8.952,77 23.999,01 30/04/2022
595 494000 CRISTIANE DE MELO MARQUEZ OLIVEIRA ANALISTA DO MP UBERLÂNDIA - COMARCA; UBERLANDIA-PJ-06PJ 13.341,69 2.668,34 0,00 0,00 0,00 0,00 0,00 2.602,30 18.612,33 2.354,82 2.885,82 0,00 0,00 5.240,64 13.371,69 30/04/2022
596 266100 CRISTIANE DE OLIVEIRA CASTRO OFICIAL DO MP BELO HORIZONTE - COMARCA; BH-14PJ DEFESA CONSUMIDOR-SECRETARIA 14.224,47 4.267,34 0,00 0,00 0,00 0,00 1.580,00 1.717,00 21.788,81 2.751,90 3.789,34 0,00 0,00 6.541,24 15.247,57 30/04/2022
597 329500 CRISTIANE DOS REIS SILVA OFICIAL DO MP ARAXÁ - COMARCA; ARAXA-PJ-04PJ 11.008,33 3.302,50 0,00 0,00 0,00 0,00 0,00 1.717,00 16.027,83 2.082,95 2.441,17 0,00 0,00 4.524,12 11.503,71 30/04/2022
598 301600 CRISTIANE GODINHO PIRES ANALISTA DO MP BETIM - COMARCA; BETIM-PJ-06PJ 20.574,59 6.172,38 0,00 0,00 0,00 0,00 490,36 7.066,39 34.303,72 4.072,73 5.366,06 0,00 0,00 9.438,79 24.864,93 30/04/2022
599 406100 CRISTIANE GONCALVES CHAVES ANALISTA DO MP BELO HORIZONTE - COMARCA; BH-14PJ DEFESA CONSUMIDOR-GAB 112PJ 16.169,47 4.850,84 0,00 0,00 7.006,77 0,00 0,00 1.717,00 29.744,08 3.156,46 5.970,06 0,00 0,00 9.126,52 20.617,56 30/04/2022
600 487600 CRISTIANE LOPES DE OLIVEIRA OFICIAL DO MP DIVINÓPOLIS - COMARCA; DIVINOPOLIS-PJ-03PJ 6.694,66 1.338,93 0,00 0,00 0,00 0,00 0,00 1.717,00 9.750,59 1.078,59 1.043,27 0,00 0,00 2.121,86 7.628,73 30/04/2022
601 502500 CRISTIANE MACIEL DE OLIVEIRA GOMES ANALISTA DO MP JUIZ DE FORA - COMARCA; JUIZ DE FORA-PJ-05PJ 11.008,33 2.201,67 0,00 0,00 0,00 0,00 0,00 2.602,30 15.812,30 1.906,81 2.239,02 0,00 0,00 4.145,83 11.666,47 30/04/2022
602 285500 CRISTIANE MAGALHAES LOURENCO ANALISTA DO MP BELO HORIZONTE - COMARCA; CENTRAL DE APOIO TECNICO-SETOR CONTABIL 19.791,01 5.937,30 0,00 0,00 0,00 0,00 471,69 6.862,66 33.062,66 3.909,74 5.078,61 0,00 0,00 8.988,35 24.074,31 30/04/2022
603 536500 CRISTIANE MICHELE DE SOUZA ANALISTA DO MP BARÃO DE COCAIS - COMARCA; BARAO DE COCAIS-PJ-UNPJ 11.008,33 1.100,83 0,00 0,00 0,00 0,00 0,00 1.717,00 13.826,16 1.730,68 1.880,45 0,00 0,00 3.611,13 10.215,03 30/04/2022
604 346600 CRISTIANE NOGUEIRA ANDRADE ANALISTA DO MP BELO HORIZONTE - COMARCA; CENTRAL DE APOIO TECNICO-SETOR CONTABIL 18.312,36 5.493,71 0,00 0,00 0,00 0,00 0,00 1.717,00 25.523,07 3.602,18 4.686,71 0,00 0,00 8.288,89 17.234,18 30/04/2022
605 234000 CRISTIANE OLIVEIRA TOSTES OFICIAL DO MP JUIZ DE FORA - COMARCA; JUIZ DE FORA-PJ-08PJ 16.169,47 4.850,84 0,00 0,00 0,00 0,00 308,30 5.965,55 27.294,16 3.156,46 4.043,20 0,00 0,00 7.199,66 20.094,50 30/04/2022
606 445800 CRISTIANE ORZIL COSTA OFICIAL DO MP SANTA LUZIA - COMARCA; SANTA LUZIA-PJ-05PJ 7.857,77 1.571,55 0,00 0,00 0,00 0,00 0,00 2.602,30 12.031,62 1.301,90 1.365,68 0,00 0,00 2.667,58 9.364,04 30/04/2022
607 616100 CRISTIANE PAES RODRIGUES MARCICANO ANALISTA DO MP CATAGUASES - COMARCA; CATAGUASES-PJ-05PJ 9.223,00 922,30 0,00 0,00 -3.093,39 0,00 0,00 2.602,30 9.654,21 1.416,46 680,39 0,00 0,00 2.096,85 7.557,36 30/04/2022
608 612300 CRISTIANE RIBEIRO DOS REIS ARCANJO OFICIAL DO MP BELO HORIZONTE - COMARCA; DIRETORIA DE PAGAMENTO DE PESSOAL-DPAG 6.694,66 669,47 0,00 0,00 0,00 0,00 0,00 0,00 7.364,13 971,47 784,35 0,00 0,00 1.755,82 5.608,31 30/04/2022
609 257700 CRISTIANE RODRIGUES PAES NUNES ANALISTA DO MP BELO HORIZONTE - COMARCA; BH-22PJ PES COM DEF E IDOSOS-ORIENTACAO PSIC 20.574,59 6.172,38 0,00 0,00 0,00 0,00 490,36 7.951,69 35.189,02 4.072,73 5.313,92 0,00 0,00 9.386,65 25.802,37 30/04/2022
610 510800 CRISTIANE SANTOS FERNANDES ORNELES ANALISTA DO MP BELO HORIZONTE - COMARCA; BH-03PJ EMPRESARIAL-SECRETARIA 11.008,33 2.201,67 0,00 0,00 4.403,33 0,00 0,00 1.717,00 19.330,33 1.906,81 3.449,93 0,00 0,00 5.356,74 13.973,59 30/04/2022
611 535701 CRISTIANE SANTOS MIRANDA ANALISTA DO MP CONTAGEM - COMARCA; CONTAGEM-PJ-20PJ 8.932,15 893,22 0,00 0,00 3.275,12 0,00 0,00 1.717,00 14.817,49 1.365,27 2.357,82 0,00 0,00 3.723,09 11.094,40 30/04/2022
612 536200 CRISTIANO DE OLIVEIRA ANALISTA DO MP CONCEIÇÃO DO MATO DENTRO - COMARCA; CONCEICAO DO MATO DENTRO-PJ-UNPJ 11.008,33 1.100,83 0,00 0,00 0,00 0,00 0,00 2.602,30 14.711,46 1.730,68 1.932,58 0,00 0,00 3.663,26 11.048,20 30/04/2022
613 477400 CRISTIANO SOARES ELEUTERIO ANALISTA DO MP BELO HORIZONTE - COMARCA; GABINETE DE PROCURADOR DE JUSTIÇA - SALA 812 13.341,69 2.668,34 0,00 0,00 0,00 0,00 528,33 7.480,61 24.018,97 2.354,82 2.885,82 0,00 0,00 5.240,64 18.778,33 30/04/2022
614 449400 CRISTIANO TEIXEIRA RODRIGUES LANA ANALISTA DO MP BELO HORIZONTE - COMARCA; BH-18PJ VIOLENCIA DOMESTICA-GAB 185PJ 11.736,91 2.347,38 0,00 0,00 0,00 0,00 0,00 1.717,00 15.801,29 2.046,70 2.440,98 0,00 0,00 4.487,68 11.313,61 30/04/2022
615 239400 CRISTINA DE FATIMA CRUZ E SILVA OFICIAL DO MP MONTE SANTO DE MINAS - COMARCA; MONTE SANTO DE MINAS-PJ-SECRETARIA 14.224,47 4.267,34 0,00 0,00 0,00 0,00 0,00 1.717,00 20.208,81 2.751,90 3.459,11 0,00 0,00 6.211,01 13.997,80 30/04/2022
616 544000 CRISTINA DE OLIVEIRA TERRA ANALISTA DO MP BELO HORIZONTE - COMARCA; BH-18PJ VIOLENCIA DOMESTICA 11.008,33 1.100,83 0,00 0,00 0,00 0,00 0,00 1.717,00 13.826,16 1.730,68 1.984,72 0,00 0,00 3.715,40 10.110,76 30/04/2022
617 356800 CRISTINA DE PINHO BARROSO OFICIAL DO MP SABINÓPOLIS - COMARCA; SABINOPOLIS-PJ-UNPJ 9.223,00 2.766,90 0,00 0,00 0,00 0,00 0,00 2.602,30 14.592,20 1.711,60 1.852,90 0,00 0,00 3.564,50 11.027,70 30/04/2022
618 649500 CRISTINA DO DIVINO ESPIRITO SANTOS OFICIAL DO MP DIVINÓPOLIS - COMARCA; DIVINOPOLIS-PJ-12PJ 5.703,71 570,37 0,00 0,00 0,00 0,00 0,00 1.717,00 7.991,08 801,71 583,40 0,00 0,00 1.385,11 6.605,97 30/04/2022
619 348201 CRISTINA MARIA DA SILVA ANALISTA DO MP ARAXÁ - COMARCA; ARAXA-PJ-06PJ 11.008,33 2.201,67 0,00 0,00 0,00 0,00 0,00 2.602,30 15.812,30 1.906,81 2.239,02 0,00 0,00 4.145,83 11.666,47 30/04/2022
620 434900 CRISTINA MELO DE MADUREIRA ANALISTA DO MP BELO HORIZONTE - COMARCA; BH-07PJ 01 TRIBUNAL JURI-SECRETARIA 15.659,55 3.131,91 0,00 0,00 0,00 0,00 0,00 1.717,00 20.508,46 2.799,85 3.528,33 0,00 0,00 6.328,18 14.180,28 30/04/2022
621 307700 CRISTINA TEIXEIRA MARQUES OFICIAL DO MP BELO HORIZONTE - COMARCA; CENTRAL DE APOIO TECNICO-SETOR CONTABIL 9.999,62 2.999,89 0,00 0,00 0,00 0,00 0,00 1.717,00 14.716,51 1.873,14 2.190,39 0,00 0,00 4.063,53 10.652,98 30/04/2022
622 265300 CRISTOVAO SANCHES DE MEDEIROS ANALISTA DO MP BELO HORIZONTE - COMARCA; DIRETORIA DE CONTABILIDADE 19.037,29 5.711,19 0,00 0,00 0,00 0,00 0,00 1.717,00 26.465,48 3.752,97 4.904,41 0,00 0,00 8.657,38 17.808,10 30/04/2022
623 349800 CROZEIR LUIZ DA SILVA OFICIAL DO MP UNAÍ - COMARCA; UNAI-PJ-SECRETARIA 10.661,25 2.132,25 0,00 0,00 0,00 0,00 0,00 2.493,79 15.287,29 1.840,17 2.090,67 0,00 0,00 3.930,84 11.356,45 30/04/2022
624 490500 CYNTHIA CRISTINA DE SOUZA OLIVEIRA VALENTE ANALISTA DO MP BELO HORIZONTE - COMARCA; BH-09PJ AUDITORIA MILITAR-SECRETARIA 11.008,33 2.201,67 0,00 0,00 0,00 0,00 0,00 1.717,00 14.927,00 1.906,81 2.239,02 0,00 0,00 4.145,83 10.781,17 30/04/2022
625 389800 CYNTHIA GARIGLIO DOS SANTOS OFICIAL DO MP PERDIZES - COMARCA; PERDIZES-PJ-SECRETARIA 8.932,15 1.786,43 0,00 0,00 3.572,86 0,00 0,00 2.071,12 16.362,56 1.508,19 2.489,62 0,00 0,00 3.997,81 12.364,75 30/04/2022
626 335101 CYNTHIA GONTIJO D ASSUNCAO ANALISTA DO MP BELO HORIZONTE - COMARCA; FEPDC-SECRETARIA EXECUTIVA 11.008,33 2.201,67 0,00 0,00 0,00 0,00 0,00 2.602,30 15.812,30 1.906,81 2.239,02 0,00 0,00 4.145,83 11.666,47 30/04/2022
627 269700 CYNTIA ROCHA CAVALCANTI OFICIAL DO MP UBERLÂNDIA - COMARCA; UBERLANDIA-PJ-06PJ 14.224,47 4.267,34 0,00 0,00 0,00 0,00 67,80 3.341,97 21.901,58 2.751,90 3.459,11 0,00 0,00 6.211,01 15.690,57 30/04/2022
628 278000 DAIRTON LOPES MARTINS FILHO COORDENADOR/ANALISTA BELO HORIZONTE - COMARCA; DIRETORIA DE SISTEMAS DE INFORMACAO 0,00 4.406,28 14.687,60 0,00 0,00 0,00 70,01 2.480,76 21.644,65 2.082,95 3.808,65 0,00 0,00 5.891,60 15.753,05 30/04/2022
629 392700 DALIANA CHAVES IBRAIM MARINHO OFICIAL DO MP ITAÚNA - COMARCA; ITAUNA-PJ-04PJ 8.113,66 1.622,73 0,00 0,00 0,00 0,00 0,00 1.717,00 11.453,39 1.351,04 1.436,61 0,00 0,00 2.787,65 8.665,74 30/04/2022
630 558101 DALLEY TASSIA SILVA ANALISTA DO MP MORADA NOVA DE MINAS - COMARCA; MORADA NOVA DE MINAS-PJ-UNPJ 10.325,15 1.032,52 0,00 0,00 0,00 0,00 0,00 2.602,30 13.959,97 1.610,44 1.706,85 0,00 0,00 3.317,29 10.642,68 30/04/2022
631 476700 DALTON DAUD ANALISTA DO MP ARAGUARI - COMARCA; ARAGUARI-PJ-05PJ 11.008,33 2.201,67 0,00 0,00 0,00 0,00 0,00 1.717,00 14.927,00 1.906,81 2.134,74 0,00 0,00 4.041,55 10.885,45 30/04/2022
632 426900 DANIEL ALVES DA SILVA OFICIAL DO MP BELO HORIZONTE - COMARCA; DIVISAO TRANSPORTES 6.694,66 1.338,93 0,00 0,00 0,00 0,00 0,00 1.717,00 9.750,59 1.078,59 938,99 0,00 0,00 2.017,58 7.733,01 30/04/2022
633 122000 DANIEL ANTONIO VIEIRA OFICIAL DO MP ENTRE-RIOS DE MINAS - COMARCA; ENTRE RIOS DE MINAS-PJ-SECRETARIA 11.008,33 8.806,67 0,00 0,00 0,00 0,00 0,00 1.717,00 21.532,00 2.963,61 3.556,22 0,00 0,00 6.519,83 15.012,17 30/04/2022
634 714000 DANIEL FERREIRA CAMARA ASSESSOR PROMOTOR JUSTICA RIBEIRÃO DAS NEVES - COMARCA; RIBEIRAO DAS NEVES-PJ-12PJ 0,00 0,00 7.857,77 0,00 0,00 0,00 0,00 1.717,00 9.574,77 828,38 1.393,17 0,00 0,00 2.221,55 7.353,22 30/04/2022
635 411000 DANIEL FERREIRA DA SILVA ANALISTA DO MP GOVERNADOR VALADARES - COMARCA; GOVERNADOR VALADARES-PJ-15PJ 14.224,47 4.267,34 0,00 0,00 0,00 0,00 0,00 3.487,60 21.979,41 2.751,90 3.250,57 0,00 0,00 6.002,47 15.976,94 30/04/2022
636 703500 DANIEL FILIPE DE DEUS SOARES ASSESSOR PROMOTOR JUSTICA ITABIRITO - COMARCA; ITABIRITO-PJ-02PJ 0,00 0,00 7.857,77 0,00 0,00 0,00 0,00 1.717,00 9.574,77 828,38 1.393,17 0,00 0,00 2.221,55 7.353,22 30/04/2022
637 309000 DANIEL GOMES DOS SANTOS ANALISTA DO MP POÇOS DE CALDAS - COMARCA; POCOS DE CALDAS-PJ-05PJ 19.791,01 5.937,30 0,00 0,00 0,00 0,00 471,69 6.862,66 33.062,66 3.909,74 5.130,75 0,00 0,00 9.040,49 24.022,17 30/04/2022
638 554500 DANIEL GOMES PEREIRA OFICIAL DO MP NANUQUE - COMARCA; NANUQUE-PJ-02PJ 6.694,66 669,47 0,00 0,00 -2.245,39 0,00 0,00 1.717,00 6.835,74 971,47 271,14 0,00 0,00 1.242,61 5.593,13 30/04/2022
639 453000 DANIEL GONCALVES PEREIRA ANALISTA DO MP UNAÍ - COMARCA; UNAI-PJ-02PJ 11.008,33 2.201,67 0,00 0,00 0,00 0,00 0,00 3.930,25 17.140,25 1.906,81 2.239,02 0,00 0,00 4.145,83 12.994,42 30/04/2022
640 495500 DANIEL GUIMARAES CABRAL OFICIAL DO MP BELO HORIZONTE - COMARCA; BH-17PJ PATRIMONIO PUBLICO-SECRETARIA 8.113,66 1.622,73 0,00 0,00 0,00 0,00 0,00 1.717,00 11.453,39 1.351,04 1.436,61 0,00 0,00 2.787,65 8.665,74 30/04/2022
641 442900 DANIEL GUIMARAES GONCALVES ANALISTA DO MP UBERLÂNDIA - COMARCA; UBERLANDIA-PJ-03PJ 14.224,47 2.844,89 0,00 0,00 0,00 0,00 0,00 1.717,00 18.786,36 927,17 3.363,86 0,00 0,00 4.291,03 14.495,33 30/04/2022
642 655900 DANIEL LUIZ DA SILVA ASSESSOR BELO HORIZONTE - COMARCA; DIV FISCAL ADM CONT TERCEIRIZACAO 0,00 0,00 5.615,13 0,00 0,00 0,00 0,00 1.717,00 7.332,13 790,01 787,00 0,00 0,00 1.577,01 5.755,12 30/04/2022
643 464600 DANIEL PIACENTINI STIVANIN ANALISTA DO MP ANDRADAS - COMARCA; ANDRADAS-PJ-02PJ 11.008,33 2.201,67 0,00 0,00 0,00 0,00 0,00 1.717,00 14.927,00 1.906,81 2.239,02 0,00 0,00 4.145,83 10.781,17 30/04/2022
644 417000 DANIEL QUEIROZ FERREIRA ANALISTA DO MP PASSOS - COMARCA; PASSOS-PJ-06PJ 14.224,47 2.844,89 0,00 0,00 0,00 0,00 0,00 2.602,30 19.671,66 927,17 3.363,86 0,00 0,00 4.291,03 15.380,63 30/04/2022
645 396700 DANIEL SILVA CARNEVALLI DIRETOR/ANALISTA BELO HORIZONTE - COMARCA; SUPERINTENDENCIA DE TECNOLOGIA DA INFORMACAO 16.169,47 3.233,89 3.807,46 0,00 0,00 0,00 510,64 8.172,90 31.894,36 2.897,75 4.716,73 0,00 0,00 7.614,48 24.279,88 30/04/2022
646 489300 DANIEL TABOZA ROCHA ANALISTA DO MP IPATINGA - COMARCA; IPATINGA-PJ-08PJ 11.008,33 2.201,67 0,00 0,00 4.403,33 0,00 0,00 2.602,30 20.215,63 927,17 3.593,05 0,00 0,00 4.520,22 15.695,41 30/04/2022
647 414100 DANIEL TARDELI VALADAO ANALISTA DO MP TRÊS CORACOES - COMARCA; TRES CORACOES-PJ-02PJ 14.224,47 2.844,89 0,00 0,00 0,00 0,00 0,00 3.487,60 20.556,96 927,17 3.155,31 0,00 0,00 4.082,48 16.474,48 30/04/2022
648 446601 DANIEL VIEIRA BUENO ANALISTA DO MP SÃO DOMINGOS DO PRATA - COMARCA; SAO DOMINGOS DO PRATA-PJ-UNPJ 9.999,62 999,96 0,00 0,00 0,00 0,00 0,00 2.602,30 13.601,88 1.553,15 1.676,27 0,00 0,00 3.229,42 10.372,46 30/04/2022
649 253200 DANIELA BATISTA LIMA BARBOSA ASSESSOR BELO HORIZONTE - COMARCA; CENTRAL DE APOIO TECN-SETOR DE MEIO AMBIENTE 0,00 1.684,54 5.615,13 0,00 0,00 0,00 0,00 1.717,00 9.016,67 828,38 1.239,69 0,00 0,00 2.068,07 6.948,60 30/04/2022
650 505800 DANIELA BORGES DE MATTOS RESENDE ANALISTA DO MP JUIZ DE FORA - COMARCA; JUIZ DE FORA-PJ-20PJ 11.008,33 2.201,67 0,00 0,00 0,00 0,00 0,00 1.717,00 14.927,00 1.906,81 2.239,02 0,00 0,00 4.145,83 10.781,17 30/04/2022
651 478000 DANIELA CARVALHO SOARES ANALISTA DO MP SÃO JOÃO DEL REI - COMARCA; SAO JOAO DEL REI-PJ-01PJ 11.008,33 2.201,67 0,00 0,00 4.403,33 0,00 0,00 1.717,00 19.330,33 1.906,81 3.449,93 0,00 0,00 5.356,74 13.973,59 30/04/2022
652 275900 DANIELA CHAGAS SODRE ANALISTA DO MP BELO HORIZONTE - COMARCA; CENTRAL DE APOIO TECNICO-SETOR CONTABIL 19.791,01 5.937,30 0,00 0,00 0,00 0,00 471,69 6.862,66 33.062,66 3.909,74 5.078,61 0,00 0,00 8.988,35 24.074,31 30/04/2022
653 234301 DANIELA CRUZ SOARES ANALISTA DO MP BELO HORIZONTE - COMARCA; LABORATORIO TECNOLOGIA INTELIGENCIA 20.574,59 6.172,38 0,00 0,00 0,00 0,00 490,36 7.066,39 34.303,72 4.072,73 5.366,06 0,00 0,00 9.438,79 24.864,93 30/04/2022
654 638000 DANIELA DE ALMEIDA BATISTA ANALISTA DO MP ANDRELÂNDIA - COMARCA; ANDRELANDIA-PJ-UNPJ 9.223,00 922,30 0,00 0,00 0,00 0,00 0,00 2.602,30 12.747,60 927,17 1.665,63 0,00 0,00 2.592,80 10.154,80 30/04/2022
655 301000 DANIELA DE ALMEIDA E OLIVEIRA ANALISTA DO MP BELO HORIZONTE - COMARCA; DIRETORIA DE SISTEMAS DE INFORMACAO 19.791,01 5.937,30 0,00 0,00 8.576,10 0,00 0,00 1.717,00 36.021,41 3.909,74 7.489,17 0,00 0,00 11.398,91 24.622,50 30/04/2022
656 296000 DANIELA DE AZEVEDO SILVA ANALISTA DO MP BRASÓPOLIS - COMARCA; BRASOPOLIS-PJ-UNPJ 20.574,59 6.172,38 0,00 0,00 8.915,66 0,00 294,22 4.926,64 40.883,49 4.072,73 7.817,86 0,00 0,00 11.890,59 28.992,90 30/04/2022
657 453500 DANIELA DE CASTRO SOUSA BARBOSA ANALISTA DO MP BELO HORIZONTE - COMARCA; BH-08PJ JUIZADO ESPECIAL-SECRETARIA 11.736,91 2.347,38 0,00 0,00 0,00 0,00 0,00 1.717,00 15.801,29 2.046,70 2.440,98 0,00 0,00 4.487,68 11.313,61 30/04/2022
658 506000 DANIELA DE OLIVEIRA CAVALIERI ANALISTA DO MP BELO HORIZONTE - COMARCA; BH-14PJ DEFESA CONSUMIDOR-GAB 005PJ 11.008,33 2.201,67 0,00 0,00 0,00 0,00 0,00 1.717,00 14.927,00 1.906,81 2.239,02 0,00 0,00 4.145,83 10.781,17 30/04/2022
659 546200 DANIELA DE VILHENA LEMES GONCALVES OFICIAL DO MP TRÊS CORACOES - COMARCA; TRES CORACOES-PJ-05PJ 6.694,66 669,47 0,00 0,00 -2.245,39 0,00 0,00 1.717,00 6.835,74 971,47 166,86 0,00 0,00 1.138,33 5.697,41 30/04/2022
660 356400 DANIELA LEAL FERRAZ ANALISTA DO MP MONTES CLAROS - COMARCA; COORD REG PJ DEF EDUC DIR CRIANCA ADOL NORTE 16.695,70 5.008,71 0,00 0,00 0,00 0,00 318,33 5.189,71 27.212,45 3.265,92 4.201,22 0,00 0,00 7.467,14 19.745,31 30/04/2022
661 501000 DANIELA LOURENCO SANTOS DA SILVA GUIMARAES ANALISTA DO MP BELO HORIZONTE - COMARCA; BH-12PJ JUIZO CRIMINAL-GAB 095PJ 11.008,33 2.201,67 0,00 0,00 0,00 0,00 0,00 1.717,00 14.927,00 1.906,81 2.186,88 0,00 0,00 4.093,69 10.833,31 30/04/2022
662 195801 DANIELA MARIA DE OLIVEIRA QUEIROZ ANALISTA DO MP ARAGUARI - COMARCA; ARAGUARI-PJ-06PJ 15.659,55 6.263,82 0,00 0,00 0,00 0,00 241,16 4.347,80 26.512,33 3.300,95 4.251,80 0,00 0,00 7.552,75 18.959,58 30/04/2022
663 511400 DANIELA MARIA LARA DE OLIVEIRA ANALISTA DO MP BOA ESPERANÇA - COMARCA; BOA ESPERANCA-PJ-02PJ 11.008,33 2.201,67 0,00 0,00 0,00 0,00 0,00 2.602,30 15.812,30 1.906,81 2.186,88 0,00 0,00 4.093,69 11.718,61 30/04/2022
664 252101 DANIELA PAULA ALVES PENA ANALISTA DO MP CONTAGEM - COMARCA; CONTAGEM-PJ-APO TECNICO 16.169,47 6.467,79 0,00 0,00 0,00 0,00 332,01 5.338,96 28.308,23 3.415,18 4.416,71 0,00 0,00 7.831,89 20.476,34 30/04/2022
665 604700 DANIELA PEIXOTO NOGUEIRA COORDENADOR/OFICIAL BELO HORIZONTE - COMARCA; DIRET DE FORMACAO, APERFEIC. E POS-GRADUACAO 0,00 1.468,76 14.687,60 0,00 0,00 0,00 1.682,82 2.602,30 20.441,48 971,49 3.769,26 0,00 0,00 4.740,75 15.700,73 30/04/2022
666 662000 DANIELA RIBAS DE AVILA ASSESSOR BELO HORIZONTE - COMARCA; CENTRO AUTOCOMPOSICAO DE CONFLITOS 0,00 0,00 8.932,15 0,00 0,00 0,00 0,00 1.717,00 10.649,15 828,38 1.688,63 0,00 0,00 2.517,01 8.132,14 30/04/2022
667 462000 DANIELA SOUSA GOMES DO AMARAL ANALISTA DO MP BETIM - COMARCA; BETIM-PJ-04PJ 12.118,97 2.423,79 0,00 0,00 0,00 0,00 0,00 1.717,00 16.259,76 2.120,06 2.546,88 0,00 0,00 4.666,94 11.592,82 30/04/2022
668 427000 DANIELA TEIXEIRA DINIZ ANDRADE ANALISTA DO MP BELO HORIZONTE - COMARCA; DIRETORIA DE PROJETOS DE EDIFICACOES 11.008,33 2.201,67 0,00 0,00 0,00 0,00 0,00 1.717,00 14.927,00 1.906,81 2.186,88 0,00 0,00 4.093,69 10.833,31 30/04/2022
669 337200 DANIELA TOLEDO SENIUK ANALISTA DO MP BELO HORIZONTE - COMARCA; GABINETE DE PROCURADOR DE JUSTIÇA - SALA 412 18.312,36 5.493,71 0,00 0,00 0,00 0,00 0,00 1.717,00 25.523,07 3.602,18 4.686,71 0,00 0,00 8.288,89 17.234,18 30/04/2022
670 605600 DANIELE ALZIRA SILVA CABRAL MOREIRA OFICIAL DO MP BELO HORIZONTE - COMARCA; BH-10PJ EXECUÇÃO PENAL-SECRETARIA 6.694,66 669,47 0,00 0,00 0,00 0,00 0,00 1.717,00 9.081,13 971,47 888,62 0,00 0,00 1.860,09 7.221,04 30/04/2022
671 195500 DANIELE CHAVES FONSECA OFICIAL DO MP BELO HORIZONTE - COMARCA; EXTINTA-CGMP-DIV APOIO FISC ORIENT FUNCIONAL 17.614,89 7.045,96 0,00 0,00 0,00 0,00 542,54 7.635,60 32.838,99 3.738,95 4.884,16 0,00 0,00 8.623,11 24.215,88 30/04/2022
672 323400 DANIELE MEGALE SANTINI OFICIAL DO MP BELO HORIZONTE - COMARCA; EXTINTA-CGMP-DIV APOIO FISC ORIENT FUNCIONAL 11.736,91 3.521,07 0,00 0,00 0,00 0,00 0,00 1.717,00 16.974,98 2.234,49 2.659,96 0,00 0,00 4.894,45 12.080,53 30/04/2022
673 357900 DANIELE REJANE PINTO VERSIEUX OFICIAL DO MP PEDRO LEOPOLDO - COMARCA; PEDRO LEOPOLDO-PJ-03PJ 11.008,33 3.302,50 0,00 0,00 0,00 0,00 0,00 1.717,00 16.027,83 2.082,95 2.493,31 0,00 0,00 4.576,26 11.451,57 30/04/2022
674 389500 DANIELE VASCONCELOS AMORIM OFICIAL DO MP SÃO SEBASTIÃO DO PARAÍSO - COMARCA; SAO SEBASTIAO DO PARAISO-PJ-04PJ 9.999,62 1.999,92 0,00 0,00 0,00 0,00 0,00 1.717,00 13.716,54 1.713,14 1.959,40 0,00 0,00 3.672,54 10.044,00 30/04/2022
675 629700 DANIELLA BASTOS MARTINS BICALHO OFICIAL DO MP GOVERNADOR VALADARES - COMARCA; GOVERNADOR VALADARES-PJ-16PJ 6.483,63 648,36 0,00 0,00 -2.174,61 0,00 0,00 1.717,00 6.674,38 934,33 236,99 0,00 0,00 1.171,32 5.503,06 30/04/2022
676 265000 DANIELLE CASTANHEIRA SCALABRINI OFICIAL DO MP BELO HORIZONTE - COMARCA; JUNTA RECURSAL DO PROCON ESTADUAL 11.008,33 3.302,50 0,00 0,00 0,00 0,00 0,00 1.717,00 16.027,83 2.082,95 2.441,17 0,00 0,00 4.524,12 11.503,71 30/04/2022
677 490100 DANIELLE DE AVILA SILVA LOPES ANALISTA DO MP BELO HORIZONTE - COMARCA; PROC. JUSTICA DIR. DIFUSOS E COLETIVOS-SEC 11.008,33 3.302,50 0,00 0,00 0,00 0,00 0,00 2.602,30 16.913,13 2.082,95 2.493,31 0,00 0,00 4.576,26 12.336,87 30/04/2022
678 711100 DANIELLE DOMINGOS LOPES DE MELO ASSESSOR PROCURADOR JUSTICA BELO HORIZONTE - COMARCA; GABINETE DE PROCURADOR DE JUSTIÇA - SALA 703 0,00 0,00 7.857,77 0,00 0,00 0,00 0,00 1.717,00 9.574,77 828,38 1.393,17 0,00 0,00 2.221,55 7.353,22 30/04/2022
679 549600 DANIELLE GOMES LOPES RODRIGUES OFICIAL DO MP VESPASIANO - COMARCA; VESPASIANO-PJ-02PJ 6.694,66 669,47 0,00 0,00 0,00 0,00 0,00 1.717,00 9.081,13 971,47 888,62 0,00 0,00 1.860,09 7.221,04 30/04/2022
680 613000 DANIELLE SILVA OLIVEIRA FRANKLIN ASSESSOR/OFICIAL BELO HORIZONTE - COMARCA; DIRETORIA DE ORCAMENTO-DIOR/SPC 0,00 1.136,68 11.366,79 0,00 0,00 0,00 0,00 2.602,30 15.105,77 971,47 2.301,94 0,00 0,00 3.273,41 11.832,36 30/04/2022
681 722800 DANIELLE VALENTIM SOUZA ASSESSOR PROCURADOR JUSTICA BELO HORIZONTE - COMARCA; GABINETE DE PROCURADOR DE JUSTIÇA - SALA 606 0,00 0,00 7.857,77 0,00 0,00 0,00 1.833,48 2.508,27 12.199,52 828,38 1.972,25 0,00 0,00 2.800,63 9.398,89 30/04/2022
682 380800 DANILLO RIBEIRO ANTUNES ANALISTA DO MP MONTES CLAROS - COMARCA; MONTES CLAROS-PJ-SECRETARIA 16.169,47 3.233,89 0,00 0,00 0,00 0,00 71,15 2.493,13 21.967,64 2.897,75 3.617,55 0,00 0,00 6.515,30 15.452,34 30/04/2022
683 453700 DANILO BOTELHO DE CARVALHO DIRETOR/ANALISTA BELO HORIZONTE - COMARCA; SUPERINTENDENCIA DE FINANCAS 0,00 3.807,46 19.037,29 0,00 0,00 0,00 475,20 7.786,34 31.106,29 2.524,31 4.718,76 0,00 0,00 7.243,07 23.863,22 30/04/2022
684 391200 DANILO D'AVILA MENDES ANALISTA DO MP MONTES CLAROS - COMARCA; GAECO REGIONAL DE MONTES CLAROS 16.169,47 3.233,89 0,00 0,00 0,00 0,00 71,15 3.378,43 22.852,94 2.897,75 3.669,68 0,00 0,00 6.567,43 16.285,51 30/04/2022
685 710900 DANILO DE SOUZA RODRIGUES ASSESSOR PROMOTOR JUSTICA IPANEMA - COMARCA; IPANEMA-PJ-01PJ 0,00 0,00 7.857,77 0,00 0,00 0,00 0,00 1.717,00 9.574,77 828,38 1.393,17 0,00 0,00 2.221,55 7.353,22 30/04/2022
686 494900 DANILO GAVIAO AVELINO DE MELLO ANALISTA DO MP POUSO ALEGRE - COMARCA; GAECO REGIONAL DE POUSO ALEGRE 11.008,33 2.201,67 0,00 0,00 0,00 0,00 0,00 1.717,00 14.927,00 1.906,81 2.239,02 0,00 0,00 4.145,83 10.781,17 30/04/2022
687 604300 DANILO NASCIMENTO SALGADO ANALISTA DO MP JANAÚBA - COMARCA; JANAUBA-PJ-01PJ 10.325,15 1.032,52 0,00 0,00 0,00 0,00 0,00 1.717,00 13.074,67 1.610,44 1.811,13 0,00 0,00 3.421,57 9.653,10 30/04/2022
688 298300 DANUZA MONICA DE SOUZA DINIZ ANALISTA DO MP BELO HORIZONTE - COMARCA; CAO-FUNDACOES-ASSESSORIA JURIDICA 19.037,29 5.711,19 0,00 0,00 0,00 0,00 544,47 7.656,64 32.949,59 3.752,97 4.852,27 0,00 0,00 8.605,24 24.344,35 30/04/2022
689 398700 DARCY LUIZ MILEO GREGATTI OFICIAL DO MP LAMBARI - COMARCA; LAMBARI-PJ-SECRETARIA 10.325,15 2.065,03 0,00 0,00 4.130,06 0,00 545,17 7.664,29 24.729,70 1.775,64 3.185,40 0,00 0,00 4.961,04 19.768,66 30/04/2022
690 406200 DARIANA AUGUSTA DE TOLEDO PATROCINIO RUIZ COORDENADOR/OFICIAL BELO HORIZONTE - COMARCA; DIRETORIA GESTAO COMPRAS LICITACOES 0,00 2.937,52 14.687,60 0,00 0,00 0,00 0,00 2.602,30 20.227,42 1.713,14 3.506,43 0,00 0,00 5.219,57 15.007,85 30/04/2022
691 586901 DARIO VITORINO DE CARVALHO SILVA ASSESSOR BELO HORIZONTE - COMARCA; DIRETORIA DE SEGURANCA 0,00 0,00 19.037,29 0,00 0,00 0,00 69,80 2.478,49 21.585,58 828,38 4.415,40 0,00 0,00 5.243,78 16.341,80 30/04/2022
692 305000 DARLI LEITE DE OLIVEIRA OFICIAL DO MP ARAÇUAÍ - COMARCA; ARACUAI-PJ-01PJ 6.694,66 2.008,40 0,00 0,00 0,00 0,00 0,00 1.717,00 10.420,06 1.185,70 1.041,50 0,00 0,00 2.227,20 8.192,86 30/04/2022
693 703700 DAVID ALVES DOS SANTOS ASSESSOR PROMOTOR JUSTICA BELO HORIZONTE - COMARCA; CENTRO AUTOCOMPOSICAO DE CONFLITOS 0,00 0,00 7.857,77 0,00 0,00 0,00 0,00 1.717,00 9.574,77 828,38 1.393,17 0,00 0,00 2.221,55 7.353,22 30/04/2022
694 122200 DAVID RIBEIRO DOS SANTOS ANALISTA DO MP BORDA DA MATA - COMARCA; BORDA DA MATA-PJ-UNPJ 20.574,59 16.459,68 0,00 0,00 0,00 5.467,17 520,11 7.390,95 50.412,50 5.467,17 8.882,75 1.572,05 0,00 15.921,97 34.490,53 30/04/2022
695 389400 DAWSON CANEDO MARQUES OFICIAL DO MP TRÊS CORACOES - COMARCA; TRES CORACOES-PJ-01PJ 9.999,62 1.999,92 0,00 0,00 0,00 0,00 0,00 2.602,30 14.601,84 1.713,14 1.159,48 0,00 0,00 2.872,62 11.729,22 30/04/2022
696 537200 DAYANE TEIXEIRA DE OLIVEIRA CASELLI ANALISTA DO MP BELO HORIZONTE - COMARCA; ASSESS TECNICO-JUR JUNTO AS PROC. DE JUST 8.932,15 893,22 0,00 0,00 3.275,12 0,00 0,00 1.717,00 14.817,49 1.365,27 2.357,82 0,00 0,00 3.723,09 11.094,40 30/04/2022
697 256100 DAYSE ROSALY PEREIRA BATISTA OFICIAL DO MP BELO HORIZONTE - COMARCA; BH-08PJ JUIZADO ESPECIAL-SECRETARIA 11.008,33 3.302,50 0,00 0,00 0,00 0,00 0,00 1.717,00 16.027,83 2.082,95 2.493,31 0,00 0,00 4.576,26 11.451,57 30/04/2022
698 311901 DEBORA APARECIDA DA SILVA ASSESSOR BELO HORIZONTE - COMARCA; BH-23PJ CIVEL-SETOR ATEND PUB 0,00 0,00 3.363,05 0,00 0,00 0,00 0,00 1.717,00 5.080,05 474,72 283,29 0,00 0,00 758,01 4.322,04 30/04/2022
699 194301 DEBORA APARECIDA DOS SANTOS ANALISTA DO MP UBERLÂNDIA - COMARCA; UBERLANDIA-PJ-SEC FAMILIA 20.574,59 8.229,84 0,00 0,00 0,00 0,00 528,08 7.477,89 36.810,40 4.401,92 5.841,33 0,00 0,00 10.243,25 26.567,15 30/04/2022
700 518800 DEBORA CARVALHO FIORATTO COORDENADOR/OFICIAL BELO HORIZONTE - COMARCA; DIRETORIA MATERIAIS E SERVICOS 0,00 2.937,52 14.687,60 0,00 0,00 0,00 0,00 1.717,00 19.342,12 1.401,74 3.592,07 0,00 0,00 4.993,81 14.348,31 30/04/2022
701 444900 DEBORA CLAUDIA PEREIRA ALVES ANALISTA DO MP BELO HORIZONTE - COMARCA; BH-08PJ JUIZADO ESPECIAL-SECRETARIA 11.736,91 2.347,38 0,00 0,00 0,00 0,00 0,00 1.717,00 15.801,29 2.046,70 2.440,98 0,00 0,00 4.487,68 11.313,61 30/04/2022
702 617700 DEBORA COMANDUCI SCHREIDER ANALISTA DO MP BICAS - COMARCA; BICAS-PJ-UNPJ 9.999,62 999,96 0,00 0,00 0,00 0,00 0,00 1.717,00 12.716,58 1.553,15 1.676,27 0,00 0,00 3.229,42 9.487,16 30/04/2022
703 555700 DEBORA CRISTINA BUITRAGO PEREIRA ANALISTA DO MP BELO HORIZONTE - COMARCA; DIRETORIA GESTAO CONTRATOS CONVENIOS 10.325,15 1.032,52 0,00 0,00 0,00 0,00 0,00 3.487,60 14.845,27 1.610,44 1.811,13 0,00 0,00 3.421,57 11.423,70 30/04/2022
704 513100 DEBORA CRISTINA PEREIRA DE OLIVEIRA ANALISTA DO MP BELO HORIZONTE - COMARCA; BH-23PJ CIVEL-SETOR JURIDICO 11.736,91 2.347,38 0,00 0,00 0,00 0,00 0,00 2.602,30 16.686,59 2.046,70 2.440,98 0,00 0,00 4.487,68 12.198,91 30/04/2022
705 612100 DEBORA DUARTE SILVA DE SOUZA OFICIAL DO MP RIBEIRÃO DAS NEVES - COMARCA; RIBEIRAO DAS NEVES-PJ-06PJ 6.694,66 2.008,40 0,00 0,00 0,00 0,00 0,00 1.717,00 10.420,06 1.185,70 1.093,64 0,00 0,00 2.279,34 8.140,72 30/04/2022
706 717500 DEBORA ENDREFFY ORSI PARENZI ASSESSOR PROMOTOR JUSTICA MATEUS LEME - COMARCA; MATEUS LEME-PJ-01PJ 0,00 0,00 7.857,77 0,00 0,00 0,00 0,00 1.717,00 9.574,77 828,38 1.393,17 0,00 0,00 2.221,55 7.353,22 30/04/2022
707 539700 DEBORA SALES CARVALHO ANALISTA DO MP PATOS DE MINAS - COMARCA; COORD REG PJ DEF EDU DIR CRI ADO AL PAR NOROE 11.008,33 1.100,83 0,00 0,00 0,00 0,00 0,00 1.717,00 13.826,16 927,17 2.102,11 0,00 0,00 3.029,28 10.796,88 30/04/2022
708 424100 DEBORA SANTOS E ALVES ANALISTA DO MP JANUÁRIA - COMARCA; JANUARIA-PJ-01PJ 15.659,55 3.131,91 0,00 0,00 0,00 0,00 68,90 4.239,26 23.099,62 2.799,85 3.528,33 0,00 0,00 6.328,18 16.771,44 30/04/2022
709 426301 DEBORA SCUCATO MACHADO SOARES OFICIAL DO MP ITABIRITO - COMARCA; ITABIRITO-PJ-01PJ 6.694,66 1.338,93 0,00 0,00 0,00 0,00 0,00 2.602,30 10.635,89 1.078,59 1.043,27 0,00 0,00 2.121,86 8.514,03 30/04/2022
710 678100 DEBORA SOUZA COSTA ASSESSOR PROMOTOR JUSTICA BOTELHOS - COMARCA; BOTELHOS-PJ-UNPJ 0,00 0,00 7.857,77 0,00 0,00 0,00 0,00 2.602,30 10.460,07 828,38 1.341,04 0,00 0,00 2.169,42 8.290,65 30/04/2022
711 550200 DEBORA TRINDADE LEITE ANALISTA DO MP MANHUAÇU - COMARCA; MANHUACU-PJ-05PJ 10.325,15 1.032,52 0,00 0,00 0,00 0,00 0,00 1.717,00 13.074,67 1.610,44 1.706,85 0,00 0,00 3.317,29 9.757,38 30/04/2022
712 438000 DEBORAH COSTA LAGE ANALISTA DO MP BELO HORIZONTE - COMARCA; PROC JUST ATUACAO TRIBUNAIS SUPERIORES-GAB006 15.659,55 3.131,91 0,00 0,00 6.263,82 0,00 482,31 6.978,61 32.516,20 2.799,85 5.250,88 0,00 0,00 8.050,73 24.465,47 30/04/2022
713 475700 DEBORAH LOBAO LACERDA ASSESSOR/OFICIAL BELO HORIZONTE - COMARCA; BH-17PJ PATRIMONIO PUBLICO-SECRETARIA 0,00 1.786,43 8.932,15 0,00 0,00 0,00 393,01 6.004,43 17.116,02 1.078,59 1.781,64 0,00 0,00 2.860,23 14.255,79 30/04/2022
714 613700 DEISER MARIA FERREIRA ROSCOE OFICIAL DO MP BELO HORIZONTE - COMARCA; DIVISÃO DE EDUCAÇÃO PARA O CONSUMO 6.694,66 669,47 0,00 0,00 0,00 0,00 0,00 1.717,00 9.081,13 971,47 888,62 0,00 0,00 1.860,09 7.221,04 30/04/2022
715 551900 DEISY ROCHA DA SILVA ANALISTA DO MP CARMO DO PARANAÍBA - COMARCA; CARMO DO PARANAIBA-PJ-01PJ 10.325,15 1.032,52 0,00 0,00 0,00 0,00 0,00 1.717,00 13.074,67 1.610,44 1.811,13 0,00 0,00 3.421,57 9.653,10 30/04/2022
716 501900 DELI RAQUEL RODRIGUES ANALISTA DO MP ITUIUTABA - COMARCA; ITUIUTABA-PJ-04PJ 11.008,33 2.201,67 0,00 0,00 0,00 0,00 0,00 1.717,00 14.927,00 1.906,81 2.239,02 0,00 0,00 4.145,83 10.781,17 30/04/2022
717 378600 DELIANE LOPES VIEIRA BREIJAO ANALISTA DO MP JUIZ DE FORA - COMARCA; JUIZ DE FORA-PJ-12PJ 16.169,47 3.233,89 0,00 0,00 0,00 0,00 71,15 2.493,13 21.967,64 2.897,75 3.617,55 0,00 0,00 6.515,30 15.452,34 30/04/2022
718 487700 DENIA FERREIRA MAIA SILVA OFICIAL DO MP TRÊS CORACOES - COMARCA; TRES CORACOES-PJ-04PJ 6.694,66 1.338,93 0,00 0,00 0,00 0,00 0,00 1.884,27 9.917,86 1.078,59 938,99 0,00 0,00 2.017,58 7.900,28 30/04/2022
719 424800 DENIS APARECIDO CAMPOS DELFINO ANALISTA DO MP LUZ - COMARCA; LUZ-PJ-UNPJ 14.224,47 2.844,89 0,00 0,00 0,00 0,00 0,00 2.602,30 19.671,66 2.524,31 2.921,98 0,00 0,00 5.446,29 14.225,37 30/04/2022
720 381400 DENISE ANGELICA MELLO DE PAULA OFICIAL DO MP BELO HORIZONTE - COMARCA; BH-18PJ DIREITOS HUMANOS-SECRETARIA 9.999,62 1.999,92 0,00 0,00 0,00 0,00 0,00 2.602,30 14.601,84 1.713,14 1.959,40 0,00 0,00 3.672,54 10.929,30 30/04/2022
721 702100 DENISE CANDIDO LIMA MACEDO KATOPODIS ASSESSOR PROCURADOR JUSTICA BELO HORIZONTE - COMARCA; GABINETE DE PROCURADOR DE JUSTIÇA - SALA 514 0,00 0,00 7.857,77 0,00 0,00 0,00 0,00 1.717,00 9.574,77 828,38 1.393,17 0,00 0,00 2.221,55 7.353,22 30/04/2022
722 196300 DENISE DE ALMEIDA VILELA FURTADO OFICIAL DO MP BELO HORIZONTE - COMARCA; CENTRAL DE APOIO TECNICO-SECRETARIA 16.695,70 6.678,28 0,00 0,00 0,00 0,00 514,23 8.654,71 32.542,92 3.533,05 4.586,90 0,00 0,00 8.119,95 24.422,97 30/04/2022
723 271100 DENISE ELOY PEIXOTO OFICIAL DO MP BELO HORIZONTE - COMARCA; DIRETORIA DE INTELIGENCIA 14.224,47 4.267,34 0,00 0,00 0,00 0,00 67,80 2.456,67 21.016,28 2.751,90 3.459,11 0,00 0,00 6.211,01 14.805,27 30/04/2022
724 385400 DENISE FREITAS DE ASSIS ASSESSOR/OFICIAL CARATINGA - COMARCA; CARATINGA-PJ-SECRETARIA 0,00 2.273,36 11.366,79 0,00 0,00 0,00 0,00 1.717,00 15.357,15 1.652,59 2.427,22 0,00 0,00 4.079,81 11.277,34 30/04/2022
725 437100 DENISE NOGUEIRA MAGRI MENDES ANALISTA DO MP BELO HORIZONTE - COMARCA; LAB TECNOLOGIA CONTRA LAVAGEM DINHEIRO 15.659,55 4.697,87 0,00 0,00 0,00 0,00 0,00 1.717,00 22.074,42 3.050,40 3.733,66 0,00 0,00 6.784,06 15.290,36 30/04/2022
726 524700 DENISE RAMOS GUIMARAES OFICIAL DO MP BELO HORIZONTE - COMARCA; BH-07PJ 01 TRIBUNAL JURI-SECRETARIA 6.694,66 1.338,93 0,00 0,00 0,00 0,00 0,00 1.717,00 9.750,59 1.078,59 1.043,27 0,00 0,00 2.121,86 7.628,73 30/04/2022
727 239100 DENISE RIBEIRO DOS SANTOS CAETANO OFICIAL DO MP ITANHANDU - COMARCA; ITANHANDU-PJ-SECRETARIA 14.224,47 4.267,34 0,00 0,00 0,00 0,00 67,80 2.456,67 21.016,28 2.751,90 3.406,98 0,00 0,00 6.158,88 14.857,40 30/04/2022
728 325500 DENISE ROSA TORRES OFICIAL DO MP BELO HORIZONTE - COMARCA; DIRETORIA DE PESSOAL ADMINISTRATIVO - DPAD 11.736,91 3.521,07 0,00 0,00 0,00 0,00 0,00 1.717,00 16.974,98 2.234,49 2.712,10 0,00 0,00 4.946,59 12.028,39 30/04/2022
729 437200 DENISE VIVIANE DOS SANTOS ANALISTA DO MP BELO HORIZONTE - COMARCA; CGMP-ASSESSORIA JURIDICA 13.341,69 2.668,34 0,00 0,00 0,00 0,00 0,00 3.044,95 19.054,98 2.354,82 2.781,55 0,00 0,00 5.136,37 13.918,61 30/04/2022
730 267900 DENISIA ALMEIDA SALES OFICIAL DO MP BELO HORIZONTE - COMARCA; BH-18PJ DIREITOS HUMANOS-SECRETARIA 11.008,33 3.302,50 0,00 0,00 0,00 0,00 0,00 1.717,00 16.027,83 2.082,95 2.441,17 0,00 0,00 4.524,12 11.503,71 30/04/2022
731 480300 DESIREE ARANTES FERREIRA GOUVEA OFICIAL DO MP PRATÁPOLIS - COMARCA; PRATAPOLIS-PJ-UNPJ 6.694,66 1.338,93 0,00 0,00 0,00 1.078,59 147,28 3.323,72 12.583,18 1.078,59 1.339,88 0,00 0,00 2.418,47 10.164,71 30/04/2022
732 355300 DEYSE CRISTINA MORAIS OFICIAL DO MP PASSOS - COMARCA; PASSOS-PJ-02PJ 10.661,25 3.198,38 0,00 0,00 0,00 0,00 0,00 1.717,00 15.576,63 2.010,75 2.389,08 0,00 0,00 4.399,83 11.176,80 30/04/2022
733 523700 DIANA CAMPOS RESENDE OFICIAL DO MP SÃO JOÃO DEL REI - COMARCA; SAO JOAO DEL REI-PJ-04PJ 8.377,76 4.188,88 0,00 0,00 0,00 0,00 0,00 1.717,00 14.283,64 1.803,88 2.038,26 0,00 0,00 3.842,14 10.441,50 30/04/2022
734 241900 DIANA CARDOSO MARTINS OFICIAL DO MP BELO HORIZONTE - COMARCA; CAO-CRIMINAL 11.008,33 3.302,50 0,00 0,00 0,00 0,00 0,00 1.717,00 16.027,83 2.082,95 2.493,31 0,00 0,00 4.576,26 11.451,57 30/04/2022
735 410100 DIANA GORDILHO SILVEIRA SENA ANALISTA DO MP BELO HORIZONTE - COMARCA; BH-06PJ JUIZO CIVEL-SECRETARIA 15.659,55 3.131,91 0,00 0,00 6.263,82 0,00 68,90 2.468,66 27.592,84 2.799,85 5.250,88 0,00 0,00 8.050,73 19.542,11 30/04/2022
736 553000 DIANA MARIA MARQUES ANALISTA DO MP BETIM - COMARCA; BETIM-PJ-13PJ 10.325,15 1.032,52 0,00 0,00 0,00 0,00 0,00 1.717,00 13.074,67 1.610,44 1.758,99 0,00 0,00 3.369,43 9.705,24 30/04/2022
737 520000 DIARLE TOSTE DOS SANTOS ANALISTA DO MP RIO POMBA - COMARCA; RIO POMBA-PJ-UNPJ 11.008,33 2.201,67 0,00 0,00 0,00 0,00 0,00 1.717,00 14.927,00 1.906,81 1.520,28 0,00 0,00 3.427,09 11.499,91 30/04/2022
738 539800 DIEGO CAMARGOS RODRIGUES OFICIAL DO MP CONTAGEM - COMARCA; CONTAGEM-PJ-05PJ 6.694,66 669,47 0,00 0,00 0,00 0,00 0,00 1.717,00 9.081,13 971,47 888,62 0,00 0,00 1.860,09 7.221,04 30/04/2022
739 607300 DIEGO CERVEIRA DE SOUZA ANALISTA DO MP PATOS DE MINAS - COMARCA; COORD REG BACIAS PARACATU,URUCUIA E ABAETE 11.008,33 1.100,83 0,00 0,00 0,00 0,00 0,00 1.717,00 13.826,16 927,17 2.102,11 0,00 0,00 3.029,28 10.796,88 30/04/2022
740 446900 DIEGO DE FREITAS OFICIAL DO MP UBERABA - COMARCA; UBERABA-PJ-06PJ 9.223,00 1.844,60 0,00 0,00 0,00 0,00 0,00 1.717,00 12.784,60 1.564,03 1.744,12 0,00 0,00 3.308,15 9.476,45 30/04/2022
741 288800 DILENE NEPOMUCENO ALVES OFICIAL DO MP BELO HORIZONTE - COMARCA; DIRETORIA DE PESSOAL ADMINISTRATIVO - DPAD 11.008,33 3.302,50 0,00 0,00 0,00 0,00 0,00 1.717,00 16.027,83 2.082,95 2.493,31 0,00 0,00 4.576,26 11.451,57 30/04/2022
742 681200 DILLIANY PAULA LOPES SERRANO ASSESSOR PROMOTOR JUSTICA RESPLENDOR - COMARCA; RESPLENDOR-PJ-UNPJ 0,00 0,00 9.055,77 0,00 0,00 0,00 0,00 519,00 9.574,77 828,38 1.393,17 0,00 0,00 2.221,55 7.353,22 30/04/2022
743 270101 DILSON DO AMARAL ANALISTA DO MP RIO CASCA - COMARCA; RIO CASCA-PJ-UNPJ 11.008,33 1.100,83 0,00 0,00 0,00 0,00 0,00 1.717,00 13.826,16 1.730,68 1.984,72 0,00 0,00 3.715,40 10.110,76 30/04/2022
744 466000 DIMITRI GUDE MARCIAL ANALISTA DO MP NANUQUE - COMARCA; NANUQUE-PJ-02PJ 11.008,33 2.201,67 0,00 0,00 0,00 0,00 0,00 2.602,30 15.812,30 1.906,81 2.082,60 0,00 0,00 3.989,41 11.822,89 30/04/2022
745 516300 DINORA APARECIDA MACEDO BRANDAO ANALISTA DO MP BELO HORIZONTE - COMARCA; BH-19PJ SAUDE-SECRETARIA 150PJ 10.661,25 2.132,25 0,00 0,00 0,00 0,00 0,00 1.717,00 14.510,50 1.840,17 2.142,80 0,00 0,00 3.982,97 10.527,53 30/04/2022
746 511700 DIOGENES HENRIQUES PEREIRA LOURENCO ANALISTA DO MP BELO HORIZONTE - COMARCA; BH-03PJ EMPRESARIAL-SECRETARIA 11.008,33 2.201,67 0,00 0,00 0,00 0,00 0,00 2.602,30 15.812,30 927,17 2.382,14 0,00 0,00 3.309,31 12.502,99 30/04/2022
747 604100 DIOGO CESAR DE OLIVEIRA HONORIO ASSESSOR PIUMHI - COMARCA; PIUMHI-PJ-02PJ 0,00 0,00 8.932,15 0,00 0,00 0,00 0,00 1.717,00 10.649,15 828,38 1.688,63 0,00 0,00 2.517,01 8.132,14 30/04/2022
748 259600 DIOGO MESQUITA MAIA ANALISTA DO MP BELO HORIZONTE - COMARCA; DIRET DE APOIO AS PROCURADORIAS DE JUSTICA 19.037,29 15.229,84 0,00 0,00 0,00 5.275,95 502,58 7.199,74 47.245,40 5.275,95 8.501,96 0,00 0,00 13.777,91 33.467,49 30/04/2022
749 386700 DIRCIMAR FERNANDES CARNEIRO OFICIAL DO MP VISCONDE DO RIO BRANCO - COMARCA; VISCONDE DO RIO BRANCO-PJ-03PJ 9.999,62 6.999,73 0,00 0,00 0,00 0,00 0,00 1.717,00 18.716,35 2.513,11 3.114,36 0,00 0,00 5.627,47 13.088,88 30/04/2022
750 113800 DIRSON APARECIDO GUIMARAES ASSESSOR BELO HORIZONTE - COMARCA; DIVISAO DE MANUTENCAO PREDIAL 0,00 5.053,61 5.615,13 0,00 0,00 0,00 0,00 1.717,00 12.385,74 828,38 2.166,19 0,00 0,00 2.994,57 9.391,17 30/04/2022
751 216700 DOMICIO VALDETE PEREIRA OFICIAL DO MP TEÓFILO OTONI - COMARCA; COORD REG PJ DEF EDU DIR CRIAN ADOL JEQUI MUC 16.695,70 6.678,28 0,00 0,00 0,00 0,00 342,82 5.456,84 29.173,64 3.533,05 4.482,62 0,00 0,00 8.015,67 21.157,97 30/04/2022
752 192701 DONIZETTI APARECIDO AMORIM ANALISTA DO MP PRATÁPOLIS - COMARCA; PRATAPOLIS-PJ-UNPJ 11.008,33 4.403,33 0,00 0,00 0,00 0,00 508,59 7.265,20 23.185,45 2.259,08 2.695,46 0,00 0,00 4.954,54 18.230,91 30/04/2022
753 558700 DORCILIA FATIMA DE OLIVEIRA OFICIAL DO MP DIVINÓPOLIS - COMARCA; DIVINOPOLIS-PJ-02PJ 6.694,66 669,47 0,00 0,00 0,00 971,47 0,00 1.717,00 10.052,60 971,47 1.103,64 0,00 0,00 2.075,11 7.977,49 30/04/2022
754 555300 DOUGLAS CUNHA DE SOUZA ANALISTA DO MP VARZEA DA PALMA - COMARCA; VARZEA DA PALMA-PJ-01PJ 10.325,15 1.032,52 0,00 0,00 0,00 0,00 0,00 2.602,30 13.959,97 927,17 1.910,95 0,00 0,00 2.838,12 11.121,85 30/04/2022
755 265900 DOUGLAS GOMES MOREIRA ANALISTA DO MP BELO HORIZONTE - COMARCA; CENTRAL DE APOIO TECNICO-SETOR DE ENGENHARIA 20.574,59 6.172,38 0,00 0,00 0,00 0,00 0,00 1.717,00 28.463,97 4.072,73 5.366,06 0,00 0,00 9.438,79 19.025,18 30/04/2022
756 241000 DOUGLAS MEIRELLES DE CASTRO OFICIAL DO MP CONCEIÇÃO DO RIO VERDE - COMARCA; CONCEICAO DO RIO VERDE-PJ-UNPJ 14.224,47 5.689,79 0,00 0,00 0,00 0,00 73,02 2.513,57 22.500,85 2.979,50 3.683,43 0,00 0,00 6.662,93 15.837,92 30/04/2022
757 534900 DOUGLAS SILVA E SOUZA ANALISTA DO MP CAMPOS GERAIS - COMARCA; CAMPOS GERAIS-PJ-01PJ 11.008,33 1.100,83 0,00 0,00 0,00 0,00 0,00 1.717,00 13.826,16 927,17 2.049,97 0,00 0,00 2.977,14 10.849,02 30/04/2022
758 638900 DOUGLAS WALLAS CONCEICAO NEVES OFICIAL DO MP RIBEIRÃO DAS NEVES - COMARCA; RIBEIRAO DAS NEVES-PJ-SEC CIVEL 5.438,14 543,81 0,00 0,00 3.987,96 0,00 0,00 1.717,00 11.686,91 757,89 1.663,95 0,00 0,00 2.421,84 9.265,07 30/04/2022
759 146800 DUCINALVA AMARAL LOPES REIS OFICIAL DO MP PARAISÓPOLIS - COMARCA; PARAISOPOLIS-PJ-UNPJ 20.574,59 14.402,22 0,00 0,00 0,00 5.389,50 512,99 7.313,29 48.192,59 5.389,50 8.644,99 0,00 0,00 14.034,49 34.158,10 30/04/2022
760 122500 DUILIO CARLOS FERREIRA UTSCH OFICIAL DO MP CONCEIÇÃO DO MATO DENTRO - COMARCA; CONCEICAO DO MATO DENTRO-PJ-UNPJ 16.695,70 13.356,56 0,00 0,00 0,00 4.601,58 0,00 1.717,00 36.370,84 4.601,58 7.395,01 0,00 0,00 11.996,59 24.374,25 30/04/2022
761 201800 DULCINEIA ANDRE DE SOUZA OFICIAL DO MP JEQUITINHONHA - COMARCA; JEQUITINHONHA-PJ-SECRETARIA 16.695,70 6.678,28 0,00 0,00 0,00 0,00 0,00 1.717,00 25.090,98 3.533,05 4.430,48 0,00 0,00 7.963,53 17.127,45 30/04/2022
762 395800 DUVIDIER MEDIRCIO JUNIOR ANALISTA DO MP BELO HORIZONTE - COMARCA; CENTRAL DE APOIO TECNICO-SETOR DE ENGENHARIA 16.944,07 3.388,81 0,00 0,00 0,00 0,00 0,00 1.717,00 22.049,88 3.046,47 3.884,40 0,00 0,00 6.930,87 15.119,01 30/04/2022
763 604800 ECIA RAMILIS ISSA DE ABREU ANALISTA DO MP BRASÍLIA DE MINAS - COMARCA; BRASILIA DE MINAS-PJ-01PJ 10.325,15 1.032,52 0,00 0,00 0,00 0,00 0,00 2.602,30 13.959,97 1.610,44 1.811,13 0,00 0,00 3.421,57 10.538,40 30/04/2022
764 273000 EDELFINA APARECIDA GUIMARAES OFICIAL DO MP CACHOEIRA DE MINAS - COMARCA; CACHOEIRA DE MINAS-PJ-UNPJ 11.736,91 8.215,84 0,00 0,00 0,00 0,00 0,00 1.717,00 21.669,75 2.985,65 3.744,45 0,00 0,00 6.730,10 14.939,65 30/04/2022
765 523300 EDER DOS SANTOS PATRICIO ANALISTA DO MP NOVA SERRANA - COMARCA; NOVA SERRANA-PJ-03PJ 11.008,33 2.201,67 0,00 0,00 0,00 0,00 0,00 2.602,30 15.812,30 927,17 2.330,00 0,00 0,00 3.257,17 12.555,13 30/04/2022
766 356700 EDER JOSE PACHECO OFICIAL DO MP CAMPO BELO - COMARCA; CAMPO BELO-PJ-SECRETARIA 11.008,33 3.302,50 0,00 0,00 0,00 0,00 1.580,00 2.602,30 18.493,13 2.082,95 2.823,53 0,00 0,00 4.906,48 13.586,65 30/04/2022
767 507900 EDERSON SILVA LOPES OFICIAL DO MP BELO HORIZONTE - COMARCA; LABORATORIO TECNOLOGIA INTELIGENCIA 7.857,77 1.571,55 0,00 0,00 0,00 0,00 0,00 1.717,00 11.146,32 1.301,90 1.261,40 0,00 0,00 2.563,30 8.583,02 30/04/2022
768 296200 EDGARD GOULART MATOSINHO DE LAET JR ANALISTA DO MP GOVERNADOR VALADARES - COMARCA; GOVERNADOR VALADARES-PJ-12PJ 19.037,29 5.711,19 0,00 0,00 0,00 0,00 544,47 7.656,64 32.949,59 3.752,97 4.800,13 0,00 0,00 8.553,10 24.396,49 30/04/2022
769 295000 EDILA MARIA DA SILVEIRA OFICIAL DO MP FORMIGA - COMARCA; FORMIGA-PJ-01PJ 9.999,62 2.999,89 0,00 0,00 0,00 0,00 0,00 1.717,00 14.716,51 1.873,14 2.190,39 0,00 0,00 4.063,53 10.652,98 30/04/2022
770 332300 EDILA MARILAC MIRANDA PRADO OFICIAL DO MP DIAMANTINA - COMARCA; DIAMANTINA-PJ-01PJ 11.008,33 5.504,17 0,00 0,00 0,00 0,00 544,91 9.432,10 26.489,51 2.435,21 2.897,62 0,00 0,00 5.332,83 21.156,68 30/04/2022
771 376600 EDILANE CONSOLACAO ROSA NAZARETH ANALISTA DO MP BETIM - COMARCA; BETIM-PJ-10PJ 16.169,47 3.233,89 0,00 0,00 0,00 0,00 0,00 1.717,00 21.120,36 927,17 3.957,57 0,00 0,00 4.884,74 16.235,62 30/04/2022
772 309800 EDILZA DOS REIS OFICIAL DO MP UBERLÂNDIA - COMARCA; UBERLANDIA-PJ-03PJ 11.008,33 3.302,50 0,00 0,00 0,00 0,00 0,00 1.717,00 16.027,83 2.082,95 2.441,17 0,00 0,00 4.524,12 11.503,71 30/04/2022
773 200500 EDINEIA MARIA DE OLIVEIRA ANTUNES OFICIAL DO MP MONTES CLAROS - COMARCA; MONTES CLAROS-PJ-10PJ 16.695,70 6.678,28 0,00 0,00 0,00 0,00 514,23 7.326,76 31.214,97 3.533,05 4.586,90 0,00 0,00 8.119,95 23.095,02 30/04/2022
774 427700 EDISANGELA SOARES LOPES OFICIAL DO MP PIRAPORA - COMARCA; PIRAPORA-PJ-02PJ 6.694,66 1.338,93 0,00 0,00 0,00 0,00 0,00 1.717,00 9.750,59 1.078,59 1.043,27 0,00 0,00 2.121,86 7.628,73 30/04/2022
775 555400 EDISON MONTEIRO SAMPAIO NETO ANALISTA DO MP BELO HORIZONTE - COMARCA; BH-12PJ JUIZO CRIMINAL-GAB 094PJ 10.325,15 1.032,52 0,00 0,00 0,00 0,00 0,00 1.717,00 13.074,67 1.610,44 1.811,13 0,00 0,00 3.421,57 9.653,10 30/04/2022
776 517700 EDMILSON TADEU FERNANDES OFICIAL DO MP POUSO ALEGRE - COMARCA; GAECO REGIONAL DE POUSO ALEGRE 8.113,66 1.622,73 0,00 0,00 0,00 0,00 0,00 1.717,00 11.453,39 1.351,04 1.436,61 0,00 0,00 2.787,65 8.665,74 30/04/2022
777 358400 EDNA APARECIDA SILVA FERREIRA OFICIAL DO MP CORONEL FABRICIANO - COMARCA; CORONEL FABRICIANO-PJ-02PJ 11.736,91 3.521,07 0,00 0,00 0,00 0,00 0,00 1.717,00 16.974,98 2.234,49 2.607,83 0,00 0,00 4.842,32 12.132,66 30/04/2022
778 331800 EDNA MARCIA CAMILO DA SILVA OFICIAL DO MP SETE LAGOAS - COMARCA; SETE LAGOAS-PJ-SEC CRIMINAIS 11.008,33 3.302,50 0,00 0,00 0,00 0,00 0,00 1.717,00 16.027,83 2.082,95 2.441,17 0,00 0,00 4.524,12 11.503,71 30/04/2022
779 327900 EDRIEL SANTANA PEREIRA OFICIAL DO MP TUPACIGUARA - COMARCA; TUPACIGUARA-PJ-01PJ 11.008,33 3.302,50 0,00 0,00 0,00 0,00 0,00 2.692,42 17.003,25 2.082,95 2.493,31 0,00 0,00 4.576,26 12.426,99 30/04/2022
780 482400 EDSON GARCIA OFICIAL DO MP MACHADO - COMARCA; MACHADO-PJ-02PJ 6.694,66 1.338,93 0,00 0,00 2.677,86 0,00 0,00 2.602,30 13.313,75 1.078,59 1.675,40 0,00 0,00 2.753,99 10.559,76 30/04/2022
781 225601 EDSON LABRE FILHO ANALISTA DO MP VARGINHA - COMARCA; VARGINHA-PJ-01PJ 19.037,29 5.711,19 0,00 0,00 0,00 0,00 544,47 7.656,64 32.949,59 3.752,97 4.852,27 0,00 0,00 8.605,24 24.344,35 30/04/2022
782 602700 EDSON NOGUEIRA BUENO OFICIAL DO MP PITANGUI - COMARCA; PITANGUI-PJ-02PJ 6.081,20 608,12 0,00 0,00 -2.039,63 0,00 0,00 1.717,00 6.366,69 865,50 171,29 0,00 0,00 1.036,79 5.329,90 30/04/2022
783 716500 EDUARDA CORREA MOREIRA ASSESSOR BELO HORIZONTE - COMARCA; DIRET DE FORMACAO, APERFEIC. E POS-GRADUACAO 0,00 0,00 3.363,05 0,00 0,00 0,00 0,00 2.602,30 5.965,35 474,72 283,29 0,00 0,00 758,01 5.207,34 30/04/2022
784 414400 EDUARDO ABRANTES CAMPOS ANALISTA DO MP SÃO JOÃO DEL REI - COMARCA; SAO JOAO DEL REI-PJ-02PJ 15.659,55 3.131,91 0,00 0,00 0,00 0,00 482,31 6.978,61 26.252,38 2.799,85 3.528,33 0,00 0,00 6.328,18 19.924,20 30/04/2022
785 476800 EDUARDO ALVES DE MOURA ANALISTA DO MP UBERLÂNDIA - COMARCA; UBERLANDIA-PJ-02PJ 11.008,33 2.201,67 0,00 0,00 0,00 0,00 0,00 2.602,30 15.812,30 927,17 2.225,72 0,00 0,00 3.152,89 12.659,41 30/04/2022
786 390800 EDUARDO AMORIM PETTERSEN OFICIAL DO MP CARANGOLA - COMARCA; CARANGOLA-PJ-SECRETARIA 9.684,23 1.936,85 0,00 0,00 0,00 0,00 0,00 1.717,00 13.338,08 1.652,59 1.871,98 0,00 0,00 3.524,57 9.813,51 30/04/2022
787 461600 EDUARDO ANTONIO DE ASSIS FARIA ASSESSOR BELO HORIZONTE - COMARCA; ASSESS EXECUTIVA DO CONSELHO SUPERIOR DO MP 0,00 0,00 8.932,15 0,00 0,00 0,00 0,00 1.717,00 10.649,15 828,38 1.584,35 0,00 0,00 2.412,73 8.236,42 30/04/2022
788 248800 EDUARDO DE CASTRO AMORIM ANALISTA DO MP BELO HORIZONTE - COMARCA; SUPER DE GESTAO DE PESSOAS-LOTACAO TEMPORARIA 20.574,59 6.172,38 0,00 0,00 8.915,66 0,00 490,36 7.066,39 43.219,38 4.072,73 7.817,86 0,00 0,00 11.890,59 31.328,79 30/04/2022
789 209100 EDUARDO DE SOUZA MAIA ANALISTA DO MP BELO HORIZONTE - COMARCA; SUPER DE GESTAO DE PESSOAS-LOTACAO TEMPORARIA 20.574,59 8.229,84 0,00 0,00 0,00 0,00 0,00 1.717,00 30.521,43 4.401,92 5.684,92 0,00 0,00 10.086,84 20.434,59 30/04/2022
790 633900 EDUARDO GONCALVES PIRES OFICIAL DO MP BELO HORIZONTE - COMARCA; DIRETORIA DE PAGAMENTO DE PESSOAL-DPAG 7.137,75 2.141,33 0,00 0,00 0,00 0,00 0,00 1.717,00 10.996,08 1.277,87 1.330,97 0,00 0,00 2.608,84 8.387,24 30/04/2022
791 350500 EDUARDO GONCALVES RIBEIRO OFICIAL DO MP VESPASIANO - COMARCA; VESPASIANO-PJ-04PJ 9.999,62 2.999,89 0,00 0,00 4.333,17 0,00 0,00 1.717,00 19.049,68 1.873,14 3.382,01 0,00 0,00 5.255,15 13.794,53 30/04/2022
792 115800 EDUARDO HENRIQUE DE CAMPOS MAIA OFICIAL DO MP BELO HORIZONTE - COMARCA; DIV FISCAL ADM CONT TERCEIRIZACAO 19.037,29 9.518,65 0,00 0,00 0,00 0,00 523,53 7.428,19 36.507,66 4.362,16 5.627,52 0,00 0,00 9.989,68 26.517,98 30/04/2022
793 392600 EDUARDO HENRIQUE DOS SANTOS COSTA ELIAZAR OFICIAL DO MP MATOZINHOS - COMARCA; MATOZINHOS-PJ-01PJ 9.378,86 1.875,77 0,00 0,00 0,00 0,00 0,00 1.717,00 12.971,63 1.593,95 1.630,91 0,00 0,00 3.224,86 9.746,77 30/04/2022
794 99101 EDUARDO JOSE DE FREITAS NUNES ASSESSOR BELO HORIZONTE - COMARCA; PROC JUST ATUACAO TRIBUNAIS SUPERIORES-GAB007 0,00 2.246,05 5.615,13 0,00 0,00 0,00 0,00 1.717,00 9.578,18 828,38 1.394,11 0,00 0,00 2.222,49 7.355,69 30/04/2022
795 407500 EDUARDO MASCARENHAS CURI AZEVEDO COORDENADOR/ANALISTA BELO HORIZONTE - COMARCA; DIR CONTEUDO JORNALISTICO 0,00 2.937,52 14.687,60 0,00 0,00 0,00 0,00 2.602,30 20.227,42 1.906,81 3.453,17 0,00 0,00 5.359,98 14.867,44 30/04/2022
796 601300 EDUARDO TRAD VIEIRA OFICIAL DO MP SILVIANÓPOLIS - COMARCA; SILVIANOPOLIS-PJ-UNPJ 6.081,20 608,12 0,00 0,00 0,00 0,00 0,00 1.717,00 8.406,32 865,50 732,19 0,00 0,00 1.597,69 6.808,63 30/04/2022
797 257600 EDUARDO VALADARES CABRAL ANALISTA DO MP BELO HORIZONTE - COMARCA; COORD DE INCLUSAO E MOBILIZACAO SOCIAIS 20.574,59 6.172,38 0,00 0,00 0,00 0,00 3.847,61 1.717,00 32.311,58 4.688,35 6.254,85 0,00 0,00 10.943,20 21.368,38 30/04/2022
798 545700 EDVAIR FERREIRA DE CARVALHO OFICIAL DO MP ARAGUARI - COMARCA; ARAGUARI-PJ-06PJ 6.694,66 669,47 0,00 0,00 -2.245,39 0,00 0,00 1.717,00 6.835,74 971,47 219,00 0,00 0,00 1.190,47 5.645,27 30/04/2022
799 401700 EDWANIA AMORIM DO CARMO OFICIAL DO MP RIBEIRÃO DAS NEVES - COMARCA; RIBEIRAO DAS NEVES-PJ-03PJ 9.999,62 1.999,92 0,00 0,00 0,00 0,00 0,00 1.717,00 13.716,54 1.713,14 1.959,40 0,00 0,00 3.672,54 10.044,00 30/04/2022
800 303600 EFIGENIO SARAIVA LOPES ANALISTA DO MP BELO HORIZONTE - COMARCA; DIRETORIA DE PAGAMENTO DE PESSOAL-DPAG 20.574,59 6.172,38 0,00 0,00 0,00 0,00 490,36 7.066,39 34.303,72 4.072,73 5.261,78 0,00 0,00 9.334,51 24.969,21 30/04/2022
801 286000 ELAINE APARECIDA SILVA BERZOINI OFICIAL DO MP JUIZ DE FORA - COMARCA; JUIZ DE FORA-PJ-14PJ 11.008,33 3.302,50 0,00 0,00 0,00 0,00 0,00 1.717,00 16.027,83 2.082,95 2.493,31 0,00 0,00 4.576,26 11.451,57 30/04/2022
802 509000 ELAINE CANDIDA PONTES OFICIAL DO MP BELO HORIZONTE - COMARCA; BH-02PJ FAMILIA-SECRETARIA 8.932,15 1.786,43 0,00 0,00 0,00 0,00 0,00 1.717,00 12.435,58 1.508,19 1.663,50 0,00 0,00 3.171,69 9.263,89 30/04/2022
803 283601 ELAINE CRISTINA MEQUELINO DUARTE ANALISTA DO MP ALFENAS - COMARCA; ALFENAS-PJ-02PJ 16.169,47 3.233,89 0,00 0,00 0,00 0,00 71,15 2.493,13 21.967,64 2.897,75 3.565,41 0,00 0,00 6.463,16 15.504,48 30/04/2022
804 535500 ELAINE DE OLIVEIRA CAMPOS REIS OFICIAL DO MP RIBEIRÃO DAS NEVES - COMARCA; RIBEIRAO NEVES-SEC PJ EXECUCAO PENAL 6.694,66 669,47 0,00 0,00 0,00 0,00 0,00 1.717,00 9.081,13 971,47 888,62 0,00 0,00 1.860,09 7.221,04 30/04/2022
805 455700 ELAINE DE OLIVEIRA CASTRO ANALISTA DO MP POMPÉU - COMARCA; POMPEU-PJ-UNPJ 11.008,33 2.201,67 0,00 0,00 4.403,33 0,00 0,00 1.717,00 19.330,33 1.906,81 3.397,79 0,00 0,00 5.304,60 14.025,73 30/04/2022
806 367200 ELAINE MUNIZ BARBOSA ANALISTA DO MP BELO HORIZONTE - COMARCA; DIRETORIA DE SISTEMAS DE INFORMACAO 16.695,70 5.008,71 0,00 0,00 0,00 0,00 0,00 2.602,30 24.306,71 3.265,92 4.149,09 0,00 0,00 7.415,01 16.891,70 30/04/2022
807 679200 ELAINE RIBEIRO CHAVES ASSESSOR PROCURADOR JUSTICA BELO HORIZONTE - COMARCA; GABINETE DE PROCURADOR DE JUSTIÇA - SALA 614 0,00 0,00 7.857,77 0,00 -2.395,91 0,00 0,00 1.717,00 7.178,86 828,38 682,16 0,00 0,00 1.510,54 5.668,32 30/04/2022
808 176900 ELAINE RIBEIRO TAVEIRA OFICIAL DO MP BELO HORIZONTE - COMARCA; DIVISAO FROTA 14.687,60 5.875,04 0,00 0,00 0,00 0,00 301,59 5.007,02 25.871,25 3.083,24 3.937,48 0,00 0,00 7.020,72 18.850,53 30/04/2022
809 496200 ELAINE SABRINA MOREIRA SCHUWARTEN ANALISTA DO MP IPATINGA - COMARCA; GAECO REGIONAL DE IPATINGA 11.736,91 2.347,38 0,00 0,00 0,00 0,00 0,00 1.717,00 15.801,29 2.046,70 2.440,98 0,00 0,00 4.487,68 11.313,61 30/04/2022
810 489200 ELAINE VICENTINO GARCIA ANALISTA DO MP BELO HORIZONTE - COMARCA; CENTRAL DE APOIO TECNICO-SETOR CONTABIL 11.008,33 3.302,50 0,00 0,00 0,00 0,00 0,00 1.717,00 16.027,83 2.082,95 2.389,03 0,00 0,00 4.471,98 11.555,85 30/04/2022
811 244500 ELCI ALVES DE SOUZA ASSESSOR BELO HORIZONTE - COMARCA; CAO-CONFLITOS AGRARIOS-SECRETARIA 0,00 1.684,54 5.615,13 0,00 0,00 0,00 0,00 1.717,00 9.016,67 828,38 1.187,56 0,00 0,00 2.015,94 7.000,73 30/04/2022
812 472500 ELCI VAZ DE OLIVEIRA FILHO ANALISTA DO MP PIUMHI - COMARCA; PIUMHI-PJ-02PJ 11.008,33 5.504,17 0,00 0,00 0,00 0,00 0,00 1.717,00 18.229,50 2.435,21 3.001,89 0,00 0,00 5.437,10 12.792,40 30/04/2022
813 385200 ELCI VIANA REIS OFICIAL DO MP RIO PARDO DE MINAS - COMARCA; RIO PARDO DE MINAS-PJ-SECRETARIA 9.999,62 3.999,85 0,00 0,00 0,00 0,00 0,00 1.717,00 15.716,47 2.033,13 2.421,38 0,00 0,00 4.454,51 11.261,96 30/04/2022
814 289801 ELCIO JOSE DOS SANTOS ASSESSOR/ANALISTA BELO HORIZONTE - COMARCA; DIVISAO DE SERVICOS 0,00 2.755,20 13.776,02 0,00 0,00 0,00 0,00 1.717,00 18.248,22 1.906,81 3.152,35 0,00 0,00 5.059,16 13.189,06 30/04/2022
815 319600 ELEN TULER DE ALBERGARIA ANALISTA DO MP BELO HORIZONTE - COMARCA; BH-19PJ SAUDE-SECRETARIA 130PJ 20.574,59 8.229,84 0,00 0,00 0,00 0,00 0,00 1.717,00 30.521,43 4.401,92 5.841,33 0,00 0,00 10.243,25 20.278,18 30/04/2022
816 205500 ELIANA ALVES DE SOUSA OFICIAL DO MP GOVERNADOR VALADARES - COMARCA; GOVERNADOR VALADARES-PJ-07PJ 11.008,33 4.403,33 0,00 0,00 0,00 0,00 0,00 1.717,00 17.128,66 2.259,08 2.747,60 0,00 0,00 5.006,68 12.121,98 30/04/2022
817 628800 ELIANA APARECIDA PEREIRA ANALISTA DO MP CAMBUÍ - COMARCA; CAMBUI-PJ-02PJ 9.223,00 922,30 0,00 0,00 0,00 0,00 0,00 1.717,00 11.862,30 1.416,46 1.478,93 0,00 0,00 2.895,39 8.966,91 30/04/2022
818 301700 ELIANA DA SILVEIRA ANALISTA DO MP BELO HORIZONTE - COMARCA; BH-11PJ COMB CRIME ORGANIZ-GAB 081PJ 18.312,36 5.493,71 0,00 0,00 0,00 0,00 0,00 1.717,00 25.523,07 3.602,18 4.686,71 0,00 0,00 8.288,89 17.234,18 30/04/2022
819 251500 ELIANA DE LIMA MILAGRES FONSECA ANALISTA DO MP CONTAGEM - COMARCA; CONTAGEM-PJ-16PJ 20.574,59 6.172,38 0,00 0,00 0,00 0,00 490,36 7.066,39 34.303,72 4.072,73 5.261,78 0,00 0,00 9.334,51 24.969,21 30/04/2022
820 503900 ELIANA DIAS DUTRA FERREIRA OFICIAL DO MP BELO HORIZONTE - COMARCA; DIRETORIA GESTAO COMPRAS LICITACOES 8.650,50 1.730,10 0,00 0,00 0,00 0,00 0,00 1.717,00 12.097,60 1.454,11 1.481,15 0,00 0,00 2.935,26 9.162,34 30/04/2022
821 413900 ELIANA PINTO DE OLIVEIRA NEVES ANALISTA DO MP CAMPO BELO - COMARCA; CAMPO BELO-PJ-04PJ 14.224,47 2.844,89 0,00 0,00 0,00 0,00 0,00 1.717,00 18.786,36 2.524,31 3.130,53 0,00 0,00 5.654,84 13.131,52 30/04/2022
822 228200 ELIANA RODRIGUES DA CUNHA PINHEIRO OFICIAL DO MP BELO HORIZONTE - COMARCA; DIRETORIA DE PROJETOS DE EDIFICACOES 14.224,47 4.267,34 0,00 0,00 0,00 2.751,90 0,00 1.717,00 22.960,71 2.751,90 4.215,89 0,00 0,00 6.967,79 15.992,92 30/04/2022
823 386600 ELIANA SABINO CHAVES PESSOA ANALISTA DO MP CARATINGA - COMARCA; CARATINGA-PJ-06PJ 15.659,55 10.961,70 0,00 0,00 0,00 4.052,61 488,06 7.041,25 38.203,17 4.052,61 6.399,35 0,00 0,00 10.451,96 27.751,21 30/04/2022
824 677500 ELIANA SILVA ANDRADE ASSESSOR PROMOTOR JUSTICA TRÊS CORACOES - COMARCA; TRES CORACOES-PJ-06PJ 0,00 0,00 7.857,77 0,00 0,00 0,00 144,06 3.288,55 11.290,38 828,38 1.393,17 0,00 0,00 2.221,55 9.068,83 30/04/2022
825 297400 ELIANE AUGUSTA RIBEIRO COSTA ANALISTA DO MP CONSELHEIRO LAFAIETE - COMARCA; CONSELHEIRO LAFAIETE-PJ-05PJ 19.791,01 5.937,30 0,00 0,00 0,00 0,00 471,69 6.862,66 33.062,66 3.909,74 5.026,47 0,00 0,00 8.936,21 24.126,45 30/04/2022
826 510600 ELIANE CAROLINA MAIA ANALISTA DO MP IGARAPÉ - COMARCA; IGARAPE-PJ-03PJ 11.008,33 1.100,83 0,00 0,00 0,00 0,00 0,00 1.717,00 13.826,16 1.730,68 1.828,31 0,00 0,00 3.558,99 10.267,17 30/04/2022
827 262600 ELIANE FERREIRA SOARES ASSESSOR BELO HORIZONTE - COMARCA; BH-18PJ DIREITOS HUMANOS-SECRETARIA 0,00 2.246,05 5.615,13 0,00 0,00 0,00 0,00 1.717,00 9.578,18 828,38 1.341,97 0,00 0,00 2.170,35 7.407,83 30/04/2022
828 204400 ELIANE GLAUCE DE QUEIROS MAIA OFICIAL DO MP GUANHÃES - COMARCA; GUANHAES-PJ-02PJ 16.695,70 6.678,28 0,00 0,00 0,00 0,00 514,23 7.326,76 31.214,97 3.533,05 4.586,90 0,00 0,00 8.119,95 23.095,02 30/04/2022
829 91800 ELIANE KAPLER ALVES OFICIAL DO MP BELO HORIZONTE - COMARCA; DIVISAO DE CONTROLE IMOBILIARIO 20.574,59 10.287,30 0,00 0,00 0,00 0,00 452,64 6.654,90 37.969,43 4.731,12 6.212,33 0,00 0,00 10.943,45 27.025,98 30/04/2022
830 334200 ELIANE MARCIA DE OLIVEIRA BRITO OFICIAL DO MP BELO HORIZONTE - COMARCA; BH-08PJ JUIZADO ESPECIAL-SECRETARIA 6.694,66 2.008,40 0,00 0,00 0,00 0,00 0,00 1.717,00 10.420,06 1.185,70 1.197,91 0,00 0,00 2.383,61 8.036,45 30/04/2022
831 365900 ELIANE MARIA DE OLIVEIRA FERREIRA OFICIAL DO MP SETE LAGOAS - COMARCA; SETE LAGOAS-PJ-SEC CRIMINAIS 11.008,33 5.504,17 0,00 0,00 0,00 0,00 0,00 1.717,00 18.229,50 2.435,21 3.001,89 0,00 0,00 5.437,10 12.792,40 30/04/2022
832 320600 ELIANE STADLER DE SOUZA OFICIAL DO MP FRANCISCO SÁ - COMARCA; FRANCISCO SA-PJ-SECRETARIA 9.999,62 2.999,89 0,00 0,00 0,00 0,00 0,00 1.717,00 14.716,51 1.873,14 2.138,26 0,00 0,00 4.011,40 10.705,11 30/04/2022
833 448900 ELIAS PEREIRA OTONI ASSESSOR BELO HORIZONTE - COMARCA; BH-18PJ DIREITOS HUMANOS-SECRETARIA 0,00 0,00 5.615,13 0,00 0,00 0,00 0,00 1.717,00 7.332,13 790,01 682,72 0,00 0,00 1.472,73 5.859,40 30/04/2022
834 495400 ELICA SOUZA GASPARONI MATTOS OFICIAL DO MP UBÁ - COMARCA; UBA-PJ-06PJ 8.650,50 1.730,10 0,00 0,00 0,00 0,00 0,00 1.717,00 12.097,60 1.454,11 1.585,42 0,00 0,00 3.039,53 9.058,07 30/04/2022
835 86600 ELIENE FERREIRA DA SILVA OFICIAL DO MP BELO HORIZONTE - COMARCA; BH-22PJ PES COM DEF E IDOSOS-SECRETARIA 23.116,32 16.181,42 0,00 0,00 0,00 5.467,17 0,00 1.717,00 46.481,91 5.467,17 8.726,34 3.835,52 0,00 18.029,03 28.452,88 30/04/2022
836 183800 ELIENE MARIA CUNHA OFICIAL DO MP BELO HORIZONTE - COMARCA; DIRETORIA DE PESSOAL ADMINISTRATIVO - DPAD 18.312,36 7.324,94 0,00 0,00 0,00 0,00 470,02 6.844,46 32.951,78 3.895,18 5.057,59 0,00 0,00 8.952,77 23.999,01 30/04/2022
837 172300 ELINA APARECIDA SILVA ASSESSOR BELO HORIZONTE - COMARCA; BH-19PJ SAUDE-SECRETARIA 130PJ 0,00 1.345,22 3.363,05 0,00 0,00 0,00 0,00 1.717,00 6.425,27 663,05 520,39 0,00 0,00 1.183,44 5.241,83 30/04/2022
838 492501 ELINE CAMPOS DA FONSECA CUNHA ANALISTA DO MP PONTE NOVA - COMARCA; PONTE NOVA-PJ-02PJ 11.008,33 2.201,67 0,00 0,00 0,00 0,00 0,00 1.717,00 14.927,00 1.906,81 2.239,02 0,00 0,00 4.145,83 10.781,17 30/04/2022
839 618900 ELISA MOURA VIEIRA MARCATTI OFICIAL DO MP BELO HORIZONTE - COMARCA; GRUPO ESP PROM JUST DEF PROB ADM PAT PUB 6.483,63 648,36 0,00 0,00 0,00 0,00 0,00 2.602,30 9.734,29 934,33 835,00 0,00 0,00 1.769,33 7.964,96 30/04/2022
840 256500 ELISABETE NOGUEIRA ANALISTA DO MP RIBEIRÃO DAS NEVES - COMARCA; RIBEIRAO NEVES-SEC PJ EXECUCAO PENAL 16.695,70 8.347,85 0,00 0,00 0,00 0,00 0,00 1.717,00 26.760,55 3.800,18 4.816,15 0,00 0,00 8.616,33 18.144,22 30/04/2022
841 355000 ELISANGELA DARLANTONI RIBEIRO OFICIAL DO MP ARAXÁ - COMARCA; ARAXA-PJ-05PJ 10.325,15 3.097,55 0,00 0,00 0,00 0,00 0,00 1.717,00 15.139,70 1.940,85 2.236,01 0,00 0,00 4.176,86 10.962,84 30/04/2022
842 604400 ELISANGELA DEMASI FERREIRA MOREIRA ANALISTA DO MP CABO VERDE - COMARCA; CABO VERDE-PJ-UNPJ 10.325,15 1.032,52 0,00 0,00 0,00 0,00 0,00 1.717,00 13.074,67 927,17 1.910,95 0,00 0,00 2.838,12 10.236,55 30/04/2022
843 323800 ELISANGELA GONCALVES DE JESUS OFICIAL DO MP BELO HORIZONTE - COMARCA; DIVISAO FROTA 11.008,33 3.302,50 0,00 0,00 0,00 0,00 0,00 1.717,00 16.027,83 2.082,95 2.441,17 0,00 0,00 4.524,12 11.503,71 30/04/2022
844 507400 ELISANGELA MIGUEL DA ROCHA SILVA ASSESSOR BELO HORIZONTE - COMARCA; EXTINTA-CGMP-DIV APOIO FISC ORIENT FUNCIONAL 0,00 0,00 5.615,13 0,00 0,00 0,00 0,00 2.307,20 7.922,33 790,01 734,86 0,00 0,00 1.524,87 6.397,46 30/04/2022
845 261400 ELISANGELA REZENDE MENDES OFICIAL DO MP POUSO ALEGRE - COMARCA; POUSO ALEGRE-PJ-05PJ 11.008,33 3.302,50 0,00 0,00 0,00 0,00 0,00 1.717,00 16.027,83 2.082,95 2.493,31 0,00 0,00 4.576,26 11.451,57 30/04/2022
846 534100 ELISANGELA ROSINE SILVA OFICIAL DO MP UBERABA - COMARCA; UBERABA-PJ-06PJ 6.694,66 669,47 0,00 0,00 0,00 0,00 0,00 1.717,00 9.081,13 971,47 888,62 0,00 0,00 1.860,09 7.221,04 30/04/2022
847 634300 ELIUDE GRACA DAMASIO ROSARIO FRANCELINO OFICIAL DO MP BELO HORIZONTE - COMARCA; BH-18PJ VIOLENCIA DOMESTICA-SECRETARIA 5.673,45 588,94 0,00 0,00 -1.975,30 0,00 0,00 3.930,25 8.217,34 832,79 80,58 0,00 0,00 913,37 7.303,97 30/04/2022
848 461700 ELIZABETH ALEIXO DA PAZ ANALISTA DO MP JUIZ DE FORA - COMARCA; JUIZ DE FORA-PJ-18PJ 11.008,33 2.201,67 0,00 0,00 0,00 0,00 0,00 1.717,00 14.927,00 1.906,81 2.239,02 0,00 0,00 4.145,83 10.781,17 30/04/2022
849 227300 ELIZABETH COIMBRA FELIX OFICIAL DO MP BELO HORIZONTE - COMARCA; DIRETORIA DE PAGAMENTO DE PESSOAL-DPAG 15.659,55 6.263,82 0,00 0,00 0,00 0,00 452,44 6.652,71 29.028,52 3.300,95 4.147,53 0,00 0,00 7.448,48 21.580,04 30/04/2022
850 354800 ELIZABETH DOS REIS OFICIAL DO MP BELO HORIZONTE - COMARCA; DIVISAO DE MATERIAIS 11.008,33 3.302,50 0,00 0,00 0,00 0,00 0,00 1.717,00 16.027,83 2.082,95 2.441,17 0,00 0,00 4.524,12 11.503,71 30/04/2022
851 612000 ELIZABETH MARIA DE QUEIROZ TANIGUCHI OFICIAL DO MP BELO HORIZONTE - COMARCA; SUPERINTENDENCIA GESTÃO DE PESSOAS 6.081,20 608,12 0,00 0,00 0,00 0,00 0,00 1.717,00 8.406,32 865,50 732,19 0,00 0,00 1.597,69 6.808,63 30/04/2022
852 452800 ELIZANGELA MARIA DAVI OFICIAL DO MP ARCOS - COMARCA; ARCOS-PJ-01PJ 6.694,66 1.338,93 0,00 0,00 0,00 0,00 0,00 1.717,00 9.750,59 1.078,59 991,13 0,00 0,00 2.069,72 7.680,87 30/04/2022
853 496300 ELIZANGELA MARQUES PINTO COELHO OFICIAL DO MP BELO HORIZONTE - COMARCA; DIRETORIA DE PESSOAL ADMINISTRATIVO - DPAD 8.650,50 1.730,10 0,00 0,00 0,00 0,00 0,00 1.717,00 12.097,60 1.454,11 1.585,42 0,00 0,00 3.039,53 9.058,07 30/04/2022
854 422500 ELIZETE FORTES DA CUNHA ANALISTA DO MP RIBEIRÃO DAS NEVES - COMARCA; RIBEIRAO DAS NEVES-PJ-07PJ 15.659,55 3.131,91 0,00 0,00 0,00 0,00 68,90 2.468,66 21.329,02 2.799,85 3.476,20 0,00 0,00 6.276,05 15.052,97 30/04/2022
855 506100 ELLEM CRISTINA ROCHA FONSECA BOWEN ANALISTA DO MP GOVERNADOR VALADARES - COMARCA; COORD REG PJ DEF EDU DIR CRIANCA ADOL RIODOCE 11.008,33 2.201,67 0,00 0,00 0,00 0,00 532,80 7.529,40 21.272,20 1.906,81 2.239,02 0,00 0,00 4.145,83 17.126,37 30/04/2022
856 468200 ELLEN CRISTINA BERNARDES DARE ANALISTA DO MP TRÊS PONTAS - COMARCA; TRES PONTAS-PJ-02PJ 11.008,33 2.201,67 0,00 0,00 0,00 0,00 0,00 2.602,30 15.812,30 1.906,81 2.186,88 0,00 0,00 4.093,69 11.718,61 30/04/2022
857 418800 ELLEN CRISTINA DE QUEIROZ FERREIRA ANALISTA DO MP BELO HORIZONTE - COMARCA; CENTRAL DE APOIO TECNICO-SETOR CONTABIL 14.224,47 2.844,89 0,00 0,00 0,00 0,00 0,00 3.044,95 20.114,31 927,17 3.363,86 0,00 0,00 4.291,03 15.823,28 30/04/2022
858 328401 ELLEN CRISTINA FERREIRA MORAIS MONTEIRO ANALISTA DO MP CAMANDUCAIA - COMARCA; CAMANDUCAIA-PJ-UNPJ 14.224,47 2.844,89 0,00 0,00 0,00 0,00 0,00 1.717,00 18.786,36 2.524,31 3.026,25 0,00 0,00 5.550,56 13.235,80 30/04/2022
859 556100 ELLEN CRISTINE BIANCHIN DA SILVA OFICIAL DO MP SÃO GONÇALO DO SAPUCAÍ - COMARCA; SAO GONCALO DO SAPUCAI-PJ-02PJ 6.081,20 608,12 0,00 0,00 0,00 0,00 0,00 1.717,00 8.406,32 865,50 680,05 0,00 0,00 1.545,55 6.860,77 30/04/2022
860 714500 ELLEN PROENCA CARVALHO DE ARAUJO ASSESSOR PROMOTOR JUSTICA MARIANA - COMARCA; MARIANA-PJ-02PJ 0,00 0,00 7.857,77 0,00 0,00 0,00 0,00 1.717,00 9.574,77 828,38 1.393,17 0,00 0,00 2.221,55 7.353,22 30/04/2022
861 447100 ELLEN ROSANA DE MACEDO BORGES OFICIAL DO MP UBERLÂNDIA - COMARCA; UBERLANDIA-PJ-17PJ 9.378,86 1.875,77 0,00 0,00 0,00 0,00 0,00 1.717,00 12.971,63 1.593,95 1.787,33 0,00 0,00 3.381,28 9.590,35 30/04/2022
862 477700 ELMA JACOB OFICIAL DO MP BELO HORIZONTE - COMARCA; COORD DE GABINETE DO PGJ 8.650,50 6.055,35 0,00 0,00 0,00 2.146,15 0,00 1.717,00 18.569,00 2.146,15 3.174,75 0,00 0,00 5.320,90 13.248,10 30/04/2022
863 123300 ELMA PAULA DOS SANTOS COELHO OFICIAL DO MP BELO HORIZONTE - COMARCA; BH-19PJ SAUDE-SECRETARIA 130PJ 20.574,59 18.517,14 0,00 0,00 0,00 5.467,17 0,00 1.717,00 46.275,90 5.467,17 8.882,75 3.629,51 0,00 17.979,43 28.296,47 30/04/2022
864 356500 ELOISA CARDOSO SILVA FRANCA OFICIAL DO MP PEÇANHA - COMARCA; PECANHA-PJ-SECRETARIA 6.694,66 2.008,40 0,00 0,00 0,00 0,00 0,00 1.717,00 10.420,06 1.185,70 1.093,64 0,00 0,00 2.279,34 8.140,72 30/04/2022
865 251901 ELOISA COSTA E SILVA ANALISTA DO MP SANTOS DUMONT - COMARCA; SANTOS DUMONT-PJ-02PJ 11.008,33 3.302,50 0,00 0,00 0,00 0,00 0,00 2.012,10 16.322,93 2.082,95 2.441,17 0,00 0,00 4.524,12 11.798,81 30/04/2022
866 400400 ELOIZA MARIA FERRI PIRES DA SILVA OFICIAL DO MP BELO HORIZONTE - COMARCA; DIVISÃO DE EDUCAÇÃO PARA O CONSUMO 9.378,86 1.875,77 0,00 0,00 0,00 0,00 0,00 1.717,00 12.971,63 1.593,95 1.735,19 0,00 0,00 3.329,14 9.642,49 30/04/2022
867 258000 ELSO CECIANO PALMEIRA ASSESSOR/OFICIAL BELO HORIZONTE - COMARCA; DIRET DE PESSOAL DO MINISTERIO PUBLICO - DPMP 13.776,02 9.643,21 3.306,24 0,00 0,00 0,00 489,97 7.062,09 34.277,53 3.540,29 5.506,56 0,00 0,00 9.046,85 25.230,68 30/04/2022
868 206900 ELVIRA RITA DOS SANTOS ANALISTA DO MP BELO HORIZONTE - COMARCA; CENTRAL DE APOIO TECNICO-SETOR CONTABIL 20.574,59 8.229,84 0,00 0,00 0,00 4.401,92 0,00 1.717,00 34.923,35 4.401,92 7.051,86 0,00 0,00 11.453,78 23.469,57 30/04/2022
869 506800 ELVIS FERREIRA DA SILVA ANALISTA DO MP BELO HORIZONTE - COMARCA; DIRETORIA DE SISTEMAS DE INFORMACAO 11.008,33 2.201,67 0,00 0,00 0,00 0,00 0,00 2.602,30 15.812,30 1.906,81 2.082,60 0,00 0,00 3.989,41 11.822,89 30/04/2022
870 602400 ELZA MARIA MOREIRA MUNIZ ANALISTA DO MP RIO PARANAÍBA - COMARCA; RIO PARANAIBA-PJ-UNPJ 10.325,15 1.032,52 0,00 0,00 0,00 0,00 0,00 1.717,00 13.074,67 1.610,44 1.758,99 0,00 0,00 3.369,43 9.705,24 30/04/2022
871 368401 ELZIRA SIMOES DOS SANTOS ASSESSOR BELO HORIZONTE - COMARCA; ASSESSORIA DE COMUNICACAO INTEGRADA 0,00 3.754,05 12.513,51 0,00 0,00 0,00 0,00 1.717,00 17.984,56 828,38 3.705,86 0,00 0,00 4.534,24 13.450,32 30/04/2022
872 437400 EMANOELLE DA SILVA RODRIGUES OFICIAL DO MP UNAÍ - COMARCA; UNAI-PJ-03PJ 8.650,50 1.730,10 0,00 0,00 0,00 0,00 0,00 2.602,30 12.982,90 1.454,11 1.533,29 0,00 0,00 2.987,40 9.995,50 30/04/2022
873 458900 EMANUELLE CONRAD SILVA FREDERICO NAVES ANALISTA DO MP ALFENAS - COMARCA; ALFENAS-PJ-05PJ 14.224,47 2.844,89 0,00 0,00 0,00 0,00 0,00 2.602,30 19.671,66 2.524,31 3.078,39 0,00 0,00 5.602,70 14.068,96 30/04/2022
874 284100 EMERSON MAGNO ALMEIDA PEDROSA DA FONSECA ANALISTA DO MP BELO HORIZONTE - COMARCA; CENTRAL DE APOIO TECNICO-SETOR CONTABIL 19.791,01 5.937,30 0,00 0,00 0,00 0,00 471,69 6.862,66 33.062,66 3.909,74 3.754,00 0,00 0,00 7.663,74 25.398,92 30/04/2022
875 179900 EMERSON MORAIS DIAS OFICIAL DO MP BELO HORIZONTE - COMARCA; SUPERINTENDÊNCIA DE ENGENHARIA E ARQUITETURA 18.312,36 7.324,94 0,00 0,00 0,00 0,00 470,02 6.844,46 32.951,78 3.895,18 5.109,72 0,00 0,00 9.004,90 23.946,88 30/04/2022
876 488700 EMERSON SIQUEIRA DE SOUSA TEIXEIRA ANALISTA DO MP ITANHOMI - COMARCA; ITANHOMI-PJ-UNPJ 11.008,33 2.201,67 0,00 0,00 0,00 0,00 0,00 1.717,00 14.927,00 1.906,81 2.082,60 0,00 0,00 3.989,41 10.937,59 30/04/2022
877 194200 EMILIA ALVES FERREIRA RAMOS OFICIAL DO MP UBERLÂNDIA - COMARCA; UBERLANDIA-PJ-SEC CIVEIS CRIMINAIS 12.118,97 4.847,59 0,00 0,00 0,00 0,00 497,69 7.146,30 24.610,55 2.507,86 3.106,78 0,00 0,00 5.614,64 18.995,91 30/04/2022
878 679500 EMILY DIAS LEMOS E SILVA ASSESSOR PROCURADOR JUSTICA BELO HORIZONTE - COMARCA; GABINETE DE PROCURADOR DE JUSTIÇA - SALA 515 0,00 0,00 7.857,77 0,00 0,00 0,00 0,00 2.602,30 10.460,07 828,38 1.288,90 0,00 0,00 2.117,28 8.342,79 30/04/2022
879 620700 EMILY FONTANA DE SIQUEIRA ANALISTA DO MP BELO HORIZONTE - COMARCA; BH-18PJ VIOLENCIA DOMESTICA-SECRETARIA 9.999,62 999,96 0,00 0,00 0,00 0,00 0,00 2.602,30 13.601,88 1.553,15 1.676,27 0,00 0,00 3.229,42 10.372,46 30/04/2022
880 297000 ENEIDA SOARES COSTA MELO ANALISTA DO MP PIUMHI - COMARCA; PIUMHI-PJ-01PJ 19.791,01 5.937,30 0,00 0,00 0,00 0,00 471,69 6.862,66 33.062,66 3.909,74 5.130,75 0,00 0,00 9.040,49 24.022,17 30/04/2022
881 276000 ENEZIO RODRIGUES DE SOUZA FILHO OFICIAL DO MP UBERLÂNDIA - COMARCA; UBERLANDIA-PJ-10PJ 11.008,33 3.302,50 0,00 0,00 0,00 0,00 0,00 1.717,00 16.027,83 2.082,95 2.493,31 0,00 0,00 4.576,26 11.451,57 30/04/2022
882 387700 ENI MARIA DOS REIS OFICIAL DO MP POUSO ALEGRE - COMARCA; POUSO ALEGRE-PJ-07PJ 9.999,62 1.999,92 0,00 0,00 0,00 0,00 0,00 1.717,00 13.716,54 1.713,14 1.959,40 0,00 0,00 3.672,54 10.044,00 30/04/2022
883 605100 ENIA MAIA ASSESSOR/OFICIAL BELO HORIZONTE - COMARCA; DIRETORIA DE ORCAMENTO-DIOR/SPC 0,00 1.136,68 11.366,79 0,00 0,00 0,00 0,00 1.717,00 14.220,47 971,47 2.301,94 0,00 0,00 3.273,41 10.947,06 30/04/2022
884 612200 ENILDO GOMES MEIRA FILHO ANALISTA DO MP BELO HORIZONTE - COMARCA; BH-23PJ INFRACIONAL-ASS JURIDICA 10.325,15 1.032,52 0,00 0,00 0,00 0,00 1.209,85 3.056,61 15.624,13 1.797,35 1.924,57 0,00 0,00 3.721,92 11.902,21 30/04/2022
885 553700 ENIVALDO NOVATO PUBLIO ANALISTA DO MP DIVINÓPOLIS - COMARCA; DIVINOPOLIS-PJ-09PJ 10.325,15 1.032,52 0,00 0,00 0,00 0,00 0,00 1.717,00 13.074,67 1.610,44 1.758,99 0,00 0,00 3.369,43 9.705,24 30/04/2022
886 680600 ENZO JOSE FERES SOUZA JABER ASSESSOR PROMOTOR JUSTICA NOVO CRUZEIRO - COMARCA; NOVO CRUZEIRO-PJ-SECRETARIA 0,00 0,00 7.857,77 0,00 0,00 0,00 0,00 1.717,00 9.574,77 828,38 1.393,17 0,00 0,00 2.221,55 7.353,22 30/04/2022
887 417300 ERIC BARATTI DA SILVA ANALISTA DO MP FRUTAL - COMARCA; FRUTAL-PJ-05PJ 11.736,91 2.347,38 0,00 0,00 0,00 0,00 0,00 1.717,00 15.801,29 2.046,70 2.440,98 0,00 0,00 4.487,68 11.313,61 30/04/2022
888 637600 ERIC DA ROCHA CHEHUEN ANALISTA DO MP LIMA DUARTE - COMARCA; LIMA DUARTE-PJ-UNPJ 9.999,62 999,96 0,00 0,00 0,00 0,00 0,00 1.717,00 12.716,58 927,17 1.900,55 0,00 0,00 2.827,72 9.888,86 30/04/2022
889 398900 ERIC TEIXEIRA SILVA OFICIAL DO MP UBERLÂNDIA - COMARCA; UBERLANDIA-PJ-SEC CIVEIS CRIMINAIS 10.325,15 2.065,03 0,00 0,00 0,00 0,00 0,00 1.717,00 14.107,18 1.775,64 2.049,64 0,00 0,00 3.825,28 10.281,90 30/04/2022
890 703600 ERICA CORDEIRO SANTOS ASSESSOR PROMOTOR JUSTICA MINAS NOVAS - COMARCA; MINAS NOVAS-PJ-UNPJ 0,00 0,00 7.857,77 0,00 0,00 0,00 0,00 1.717,00 9.574,77 828,38 1.393,17 0,00 0,00 2.221,55 7.353,22 30/04/2022
891 274200 ERICA DE SOUZA ANDRADE OFICIAL DO MP CURVELO - COMARCA; CURVELO-PJ-03PJ 12.118,97 3.635,69 0,00 0,00 0,00 0,00 0,00 1.717,00 17.471,66 2.313,96 2.774,70 0,00 0,00 5.088,66 12.383,00 30/04/2022
892 225700 ERICA GOMES DO COUTO OFICIAL DO MP BELO HORIZONTE - COMARCA; BH-21PJ TUTELA FUNDACOES-SECRETARIA 16.169,47 4.850,84 0,00 0,00 0,00 0,00 0,00 2.602,30 23.622,61 3.156,46 4.043,20 0,00 0,00 7.199,66 16.422,95 30/04/2022
893 632600 ERICA LEONOR MARTINS OFICIAL DO MP RESENDE COSTA - COMARCA; RESENDE COSTA-PJ-UNPJ 6.483,63 648,36 0,00 0,00 0,00 0,00 0,00 1.717,00 8.848,99 934,33 835,00 0,00 0,00 1.769,33 7.079,66 30/04/2022
894 524800 ERICA MACHADO DA COSTA E SOUZA ANALISTA DO MP BELO HORIZONTE - COMARCA; ASSESS TECNICO-JUR JUNTO AS PROC. DE JUST 11.736,91 2.347,38 0,00 0,00 0,00 0,00 0,00 1.717,00 15.801,29 2.046,70 2.440,98 0,00 0,00 4.487,68 11.313,61 30/04/2022
895 249500 ERICA RODRIGUES ANDRADE OFICIAL DO MP SÃO FRANCISCO - COMARCA; SAO FRANCISCO-PJ-02PJ 10.325,15 3.097,55 0,00 0,00 0,00 0,00 0,00 1.717,00 15.139,70 1.940,85 2.236,01 0,00 0,00 4.176,86 10.962,84 30/04/2022
896 260800 ERICA VIANA GIARDINI DE OLIVEIRA OFICIAL DO MP BELO HORIZONTE - COMARCA; DIRETORIA GESTAO COMPRAS LICITACOES 11.008,33 3.302,50 0,00 0,00 0,00 0,00 0,00 1.717,00 16.027,83 2.082,95 2.493,31 0,00 0,00 4.576,26 11.451,57 30/04/2022
897 299800 ERICH DOUGLAS RIBEIRO GARCIA ANALISTA DO MP BELO HORIZONTE - COMARCA; CENTRAL DE APOIO TECNICO-SETOR CONTABIL 19.037,29 5.711,19 0,00 0,00 0,00 0,00 544,47 7.656,64 32.949,59 3.752,97 4.904,41 0,00 0,00 8.657,38 24.292,21 30/04/2022
898 365000 ERICK EDUARDO JOSE DA SILVA OFICIAL DO MP SANTOS DUMONT - COMARCA; SANTOS DUMONT-PJ-02PJ 6.694,66 2.008,40 0,00 0,00 0,00 0,00 0,00 1.717,00 10.420,06 1.185,70 1.197,91 0,00 0,00 2.383,61 8.036,45 30/04/2022
899 688900 ERICK FERDINANN SANTOS GOMES ASSESSOR PROMOTOR JUSTICA OURO PRETO - COMARCA; OURO PRETO-PJ-04PJ 0,00 0,00 7.857,77 0,00 0,00 0,00 0,00 1.717,00 9.574,77 828,38 1.393,17 0,00 0,00 2.221,55 7.353,22 30/04/2022
900 227400 ERIKA DE LAET GOULART BOECHAT OFICIAL DO MP BELO HORIZONTE - COMARCA; BH-17PJ PATRIMONIO PUBLICO-SECRETARIA 16.169,47 4.850,84 0,00 0,00 0,00 0,00 0,00 1.717,00 22.737,31 3.156,46 3.991,06 0,00 0,00 7.147,52 15.589,79 30/04/2022
901 681301 ERIKA FERNANDA ELISEU FERREIRA ASSESSOR PROCURADOR JUSTICA BELO HORIZONTE - COMARCA; GABINETE DE PROCURADOR DE JUSTIÇA - SALA 411 0,00 0,00 7.857,77 0,00 0,00 0,00 0,00 1.717,00 9.574,77 828,38 1.393,17 0,00 0,00 2.221,55 7.353,22 30/04/2022
902 285100 ERIKA FERREIRA DA SILVA OFICIAL DO MP JUIZ DE FORA - COMARCA; JUIZ DE FORA-PJ-11PJ 11.008,33 3.302,50 0,00 0,00 0,00 0,00 157,42 3.434,30 17.902,55 2.082,95 2.493,31 0,00 0,00 4.576,26 13.326,29 30/04/2022
903 420100 ERIKA JEANINE VERSIANI DE CASTRO ANALISTA DO MP BELO HORIZONTE - COMARCA; COORD ESTADUAL DE DEFESA DA EDUCACAO 15.659,55 3.131,91 0,00 0,00 0,00 0,00 68,90 2.468,66 21.329,02 2.799,85 3.528,33 0,00 0,00 6.328,18 15.000,84 30/04/2022
904 677100 ERIKA LAYS CARDOSO FERNANDES ASSESSOR PROMOTOR JUSTICA GRAO MOGOL - COMARCA; GRAO MOGOL-PJ-UNPJ 0,00 0,00 7.857,77 0,00 0,00 0,00 0,00 1.717,00 9.574,77 828,38 1.393,17 0,00 0,00 2.221,55 7.353,22 30/04/2022
905 606900 ERIKA MARIA BARBOSA ANALISTA DO MP BELO HORIZONTE - COMARCA; CAO-SAUDE 9.378,86 937,89 0,00 0,00 0,00 0,00 0,00 1.717,00 12.033,75 1.443,89 1.518,54 0,00 0,00 2.962,43 9.071,32 30/04/2022
906 491000 ERIKA ROCHA PEREIRA E SILVA COORDENADOR/ANALISTA BELO HORIZONTE - COMARCA; DIR GOVERNANCA TECNOLOGIA INFORMACAO 0,00 2.937,52 14.687,60 0,00 0,00 0,00 0,00 1.717,00 19.342,12 1.906,81 3.453,17 0,00 0,00 5.359,98 13.982,14 30/04/2022
907 283201 ERIKA STEHLING COORDENADOR/ANALISTA BELO HORIZONTE - COMARCA; CENTRAL DE APOIO TECNICO-SETOR DE ENGENHARIA 11.008,33 2.201,67 2.584,19 0,00 0,00 0,00 0,00 1.717,00 17.511,19 1.906,81 2.949,67 0,00 0,00 4.856,48 12.654,71 30/04/2022
908 254000 ERLANDIA DA SILVA MENDES OFICIAL DO MP IPATINGA - COMARCA; IPATINGA-PJ-03PJ 14.224,47 5.689,79 0,00 0,00 0,00 0,00 73,02 2.513,57 22.500,85 2.979,50 3.631,29 0,00 0,00 6.610,79 15.890,06 30/04/2022
909 208600 ERNANE JOSE DA COSTA ANALISTA DO MP BELO HORIZONTE - COMARCA; CENTRAL DE APOIO TECNICO-SETOR MEDICO 20.574,59 16.459,68 0,00 0,00 0,00 0,00 0,00 1.717,00 38.751,27 5.467,17 7.379,28 1.572,05 0,00 14.418,50 24.332,77 30/04/2022
910 260600 ERNANI CALDEIRA DE ANDRADE ANALISTA DO MP BELO HORIZONTE - COMARCA; CENTRAL DE APOIO TECNICO-SETOR CONTABIL 20.574,59 6.172,38 0,00 0,00 0,00 0,00 0,00 1.717,00 28.463,97 4.072,73 5.366,06 0,00 0,00 9.438,79 19.025,18 30/04/2022
911 348500 ERNILANDIA DE OLIVEIRA DIAS OFICIAL DO MP MONTES CLAROS - COMARCA; MONTES CLAROS-PJ-16PJ 9.999,62 2.999,89 0,00 0,00 0,00 0,00 0,00 1.717,00 14.716,51 1.873,14 2.190,39 0,00 0,00 4.063,53 10.652,98 30/04/2022
912 199300 ERTON PORTINARI DE ANDRADE OFICIAL DO MP SETE LAGOAS - COMARCA; SETE LAGOAS-PJ-05PJ 16.695,70 6.678,28 0,00 0,00 0,00 0,00 342,82 5.456,84 29.173,64 3.533,05 4.482,62 0,00 0,00 8.015,67 21.157,97 30/04/2022
913 618800 ESLY DE CARLA AYALLA BARBOSA MENDES OFICIAL DO MP NOVA LIMA - COMARCA; NOVA LIMA-PJ-SECRETARIA 5.889,39 588,94 0,00 0,00 -1.975,30 0,00 0,00 1.717,00 6.220,03 832,79 139,96 0,00 0,00 972,75 5.247,28 30/04/2022
914 537000 ESTANISLAU CORREIA ALMEIDA JUNIOR OFICIAL DO MP UBERLÂNDIA - COMARCA; UBERLANDIA-PJ-25PJ 6.694,66 669,47 0,00 0,00 -2.245,39 0,00 540,04 7.608,30 13.267,08 971,47 271,14 0,00 0,00 1.242,61 12.024,47 30/04/2022
915 692100 ESTEFANIA FARIA FERREIRA ASSESSOR PROCURADOR JUSTICA BELO HORIZONTE - COMARCA; GABINETE DE PROCURADOR DE JUSTIÇA - SALA 814 0,00 0,00 7.857,77 0,00 -2.395,91 0,00 0,00 1.717,00 7.178,86 828,38 734,30 0,00 0,00 1.562,68 5.616,18 30/04/2022
916 326900 ESTER ALICE PIMENTA OFICIAL DO MP BELO HORIZONTE - COMARCA; COORD DE INCLUSAO E MOBILIZACAO SOCIAIS 11.008,33 3.302,50 0,00 0,00 0,00 0,00 0,00 1.717,00 16.027,83 2.082,95 2.493,31 0,00 0,00 4.576,26 11.451,57 30/04/2022
917 503700 ESTHER GONCALVES FONSECA ANALISTA DO MP BELO HORIZONTE - COMARCA; DIR CRIACAO E MIDIAS 10.661,25 2.132,25 0,00 0,00 0,00 0,00 0,00 1.717,00 14.510,50 1.840,17 2.142,80 0,00 0,00 3.982,97 10.527,53 30/04/2022
918 475600 ETIENE DE FATIMA OLIVEIRA PEREIRA ANALISTA DO MP PATROCÍNIO - COMARCA; PATROCINIO-PJ-04PJ 11.008,33 2.201,67 0,00 0,00 0,00 0,00 0,00 1.717,00 14.927,00 927,17 2.311,54 0,00 0,00 3.238,71 11.688,29 30/04/2022
919 428800 EUGENIA RODRIGUES TRAJANO BORGES ANALISTA DO MP UBERABA - COMARCA; UBERABA-PJ-10PJ 14.224,47 2.844,89 0,00 0,00 5.689,79 0,00 0,00 2.602,30 25.361,45 2.524,31 4.695,22 0,00 0,00 7.219,53 18.141,92 30/04/2022
920 272700 EUGENIO DE BARCELOS FILHO OFICIAL DO MP FRUTAL - COMARCA; FRUTAL-PJ-03PJ 9.999,62 2.999,89 0,00 0,00 0,00 0,00 0,00 2.115,79 15.115,30 1.873,14 2.190,39 0,00 0,00 4.063,53 11.051,77 30/04/2022
921 254100 EULALIA ALVES MIRANDA LUCAS OFICIAL DO MP ALMENARA - COMARCA; ALMENARA-PJ-02PJ 13.776,02 4.132,81 0,00 0,00 0,00 0,00 0,00 1.717,00 19.625,83 2.658,63 3.220,17 0,00 0,00 5.878,80 13.747,03 30/04/2022
922 641200 EUNICE ELVIRA DA SILVA MATOS OFICIAL DO MP BELO HORIZONTE - COMARCA; BH-14PJ DEFESA CONSUMIDOR-SECRETARIA 5.438,14 543,81 0,00 0,00 0,00 0,00 0,00 1.717,00 7.698,95 757,89 567,26 0,00 0,00 1.325,15 6.373,80 30/04/2022
923 557900 EURIPEDES JOSUE PERES OFICIAL DO MP IBIÁ - COMARCA; IBIA-PJ-UNPJ 6.081,20 608,12 0,00 0,00 0,00 0,00 0,00 1.717,00 8.406,32 865,50 732,19 0,00 0,00 1.597,69 6.808,63 30/04/2022
924 225800 EURO CESAR VIEIRA BARBOSA ANALISTA DO MP BELO HORIZONTE - COMARCA; BH-17PJ PATRIMONIO PUBLICO-SECRETARIA 20.574,59 8.229,84 0,00 0,00 0,00 0,00 528,08 7.477,89 36.810,40 4.401,92 5.737,06 0,00 0,00 10.138,98 26.671,42 30/04/2022
925 199400 EUSTAQUIO ADAILTON LIMA E SILVA OFICIAL DO MP MANGA - COMARCA; MANGA-PJ-01PJ 16.695,70 11.686,99 0,00 0,00 9.460,90 0,00 520,35 7.393,54 45.757,48 4.334,44 8.189,24 0,00 0,00 12.523,68 33.233,80 30/04/2022
926 548000 EVA VILMA LEAO REIS JULIO OFICIAL DO MP BELO HORIZONTE - COMARCA; BH-07PJ 01 TRIBUNAL JURI-SECRETARIA 6.694,66 2.008,40 0,00 0,00 0,00 0,00 0,00 1.717,00 10.420,06 1.185,70 1.197,91 0,00 0,00 2.383,61 8.036,45 30/04/2022
927 517000 EVALDO SENA COSTA FILHO ANALISTA DO MP CONTAGEM - COMARCA; CONTAGEM-PJ-08PJ 11.008,33 3.302,50 0,00 0,00 0,00 0,00 0,00 1.717,00 16.027,83 2.082,95 2.336,90 0,00 0,00 4.419,85 11.607,98 30/04/2022
928 217500 EVELANGE LEAO RABELO ASSESSOR BELO HORIZONTE - COMARCA; CAO-PESSOAS IDOSAS E PESSOAS COM DEFICIENCIA 0,00 2.246,05 5.615,13 0,00 0,00 0,00 0,00 1.717,00 9.578,18 828,38 1.394,11 0,00 0,00 2.222,49 7.355,69 30/04/2022
929 679600 EVERTON BARBOSA DA SILVA ASSESSOR PROCURADOR JUSTICA BELO HORIZONTE - COMARCA; GABINETE DE PROCURADOR DE JUSTIÇA - SALA 510 0,00 0,00 7.857,77 0,00 -2.395,91 0,00 0,00 1.717,00 7.178,86 828,38 734,30 0,00 0,00 1.562,68 5.616,18 30/04/2022
930 540400 EVIE SARAMELLA DE RESENDE OFICIAL DO MP BARBACENA - COMARCA; BARBACENA-PJ-05PJ 6.694,66 669,47 0,00 0,00 0,00 0,00 0,00 1.717,00 9.081,13 971,47 888,62 0,00 0,00 1.860,09 7.221,04 30/04/2022
931 469000 EWERTON CARDOSO DE SA RODRIGUES ANALISTA DO MP CAMPO BELO - COMARCA; CAMPO BELO-PJ-02PJ 11.008,33 2.201,67 0,00 0,00 0,00 0,00 48,44 2.245,40 15.503,84 1.906,81 2.134,74 0,00 0,00 4.041,55 11.462,29 30/04/2022
932 368900 FABIANA BARBOSA SIQUEIRA OFICIAL DO MP BELO HORIZONTE - COMARCA; CAO-ORDEM ECONOMICA E TRIBUTARIA-SECRETARIA 11.736,91 3.521,07 0,00 0,00 5.085,99 0,00 0,00 1.717,00 22.060,97 2.234,49 4.058,61 0,00 0,00 6.293,10 15.767,87 30/04/2022
933 273800 FABIANA CARNEIRO AMORIM COORDENADOR/OFICIAL BELO HORIZONTE - COMARCA; BH-23PJ CIVEL-COORD ADM CIVEL 13.341,69 4.002,51 2.584,19 0,00 0,00 0,00 73,07 2.514,14 22.515,60 2.568,29 3.800,39 0,00 0,00 6.368,68 16.146,92 30/04/2022
934 519300 FABIANA DE OLIVEIRA LOUREIRO ANALISTA DO MP BELO HORIZONTE - COMARCA; BH-09PJ AUDITORIA MILITAR-SECRETARIA 11.008,33 2.201,67 0,00 0,00 0,00 0,00 0,00 1.717,00 14.927,00 1.906,81 2.239,02 0,00 0,00 4.145,83 10.781,17 30/04/2022
935 363400 FABIANA DOURADO DUPIN VIEGAS ANALISTA DO MP BELO HORIZONTE - COMARCA; GABINETE DE PROCURADOR DE JUSTIÇA - SALA 705 18.312,36 5.493,71 0,00 0,00 0,00 0,00 0,00 1.717,00 25.523,07 3.602,18 4.634,57 0,00 0,00 8.236,75 17.286,32 30/04/2022
936 410800 FABIANA DUARTE QUITITE ANALISTA DO MP BELO HORIZONTE - COMARCA; BH-15PJ M AMB PAT HIST CULT-GAB 116PJ 15.659,55 3.131,91 0,00 0,00 0,00 0,00 68,90 2.468,66 21.329,02 2.799,85 3.528,33 0,00 0,00 6.328,18 15.000,84 30/04/2022
937 419500 FABIANA EULALIA DOS SANTOS ANALISTA DO MP SÃO JOÃO DEL REI - COMARCA; SAO JOAO DEL REI-PJ-01PJ 15.659,55 3.131,91 0,00 0,00 0,00 0,00 68,90 2.468,66 21.329,02 2.799,85 3.528,33 0,00 0,00 6.328,18 15.000,84 30/04/2022
938 700300 FABIANA MARCIA DE SOUZA ASSESSOR BELO HORIZONTE - COMARCA; DIRET DE CONTROLE E DE MANUTENCAO DE IMOVEIS 0,00 0,00 3.363,05 0,00 0,00 0,00 308,28 5.080,05 8.751,38 461,34 286,30 0,00 0,00 747,64 8.003,74 30/04/2022
939 376300 FABIANA MATTOSO LEMOS ANALISTA DO MP BELO HORIZONTE - COMARCA; BH-21PJ TUTELA FUNDACOES-SECRETARIA 16.169,47 3.233,89 0,00 0,00 12.935,58 0,00 0,00 1.717,00 34.055,94 927,17 7.768,88 0,00 0,00 8.696,05 25.359,89 30/04/2022
940 331500 FABIANA PACHECO OFICIAL DO MP GUAXUPÉ - COMARCA; GUAXUPE-PJ-01PJ 11.008,33 3.302,50 0,00 0,00 0,00 0,00 0,00 2.602,30 16.913,13 2.082,95 2.389,03 0,00 0,00 4.471,98 12.441,15 30/04/2022
941 510700 FABIANA PEREIRA SANTOS BORGES ANALISTA DO MP BELO HORIZONTE - COMARCA; DIRETORIA DE SISTEMAS DE INFORMACAO 11.008,33 2.201,67 0,00 0,00 0,00 0,00 0,00 1.717,00 14.927,00 1.906,81 2.186,88 0,00 0,00 4.093,69 10.833,31 30/04/2022
942 181700 FABIANA SOUZA FERREIRA OFICIAL DO MP BELO HORIZONTE - COMARCA; BH-19PJ SAUDE-SECRETARIA 150PJ 6.694,66 2.677,86 0,00 0,00 0,00 0,00 0,00 1.717,00 11.089,52 1.292,82 1.248,28 0,00 0,00 2.541,10 8.548,42 30/04/2022
943 272900 FABIANA STOCKLER LEITE OFICIAL DO MP LAJINHA - COMARCA; LAJINHA-PJ-SECRETARIA 11.008,33 5.504,17 0,00 0,00 0,00 0,00 0,00 1.717,00 18.229,50 2.435,21 2.949,76 0,00 0,00 5.384,97 12.844,53 30/04/2022
944 225500 FABIANE DE FATIMA PORTELLA ANALISTA DO MP BELO HORIZONTE - COMARCA; BH-18PJ DIREITOS HUMANOS-SECRETARIA 20.574,59 6.172,38 0,00 0,00 0,00 0,00 0,00 1.717,00 28.463,97 4.072,73 5.366,06 0,00 0,00 9.438,79 19.025,18 30/04/2022
945 433800 FABIANE DINIZ MATTOS ANALISTA DO MP BELO HORIZONTE - COMARCA; BH-23PJ INFRACIONAL-ASS JURIDICA 15.659,55 3.131,91 0,00 0,00 0,00 0,00 2.899,26 3.487,60 25.178,32 3.263,73 4.198,06 0,00 0,00 7.461,79 17.716,53 30/04/2022
946 455000 FABIANO CARVALHO DA SILVA ANALISTA DO MP LAVRAS - COMARCA; LAVRAS-PJ-05PJ 11.008,33 2.201,67 0,00 0,00 0,00 0,00 48,44 2.245,40 15.503,84 1.906,81 2.239,02 0,00 0,00 4.145,83 11.358,01 30/04/2022
947 498800 FABIANO FURTADO PESSOA COELHO ANALISTA DO MP BELO HORIZONTE - COMARCA; DIRETORIA DE REDES E BANCOS DE DADOS 11.008,33 2.201,67 0,00 0,00 0,00 0,00 0,00 1.717,00 14.927,00 1.906,81 2.186,88 0,00 0,00 4.093,69 10.833,31 30/04/2022
948 663000 FABIANO MARQUES CORREA ASSESSOR BELO HORIZONTE - COMARCA; DIRETORIA DE SUPORTE E MANUTENCAO 0,00 0,00 5.615,13 0,00 0,00 0,00 0,00 1.717,00 7.332,13 790,01 787,00 0,00 0,00 1.577,01 5.755,12 30/04/2022
949 394600 FABIANO PALHARES SILVA ANALISTA DO MP BELO HORIZONTE - COMARCA; CENTRAL DE APOIO TECN-SETOR DE MEIO AMBIENTE 16.169,47 3.233,89 0,00 0,00 0,00 0,00 0,00 1.717,00 21.120,36 2.897,75 3.617,55 0,00 0,00 6.515,30 14.605,06 30/04/2022
950 676600 FABIANO RESENDE VELOSO ASSESSOR PROCURADOR JUSTICA BELO HORIZONTE - COMARCA; GABINETE DE PROCURADOR DE JUSTIÇA - SALA 1002 0,00 0,00 7.857,77 0,00 0,00 0,00 0,00 1.717,00 9.574,77 828,38 1.393,17 0,00 0,00 2.221,55 7.353,22 30/04/2022
951 444400 FABIANO SARAIVA MEDEIROS ANALISTA DO MP BETIM - COMARCA; BETIM-PJ-11PJ 14.224,47 2.844,89 0,00 0,00 0,00 0,00 500,70 7.179,20 24.749,26 2.524,31 3.026,25 0,00 0,00 5.550,56 19.198,70 30/04/2022
952 408700 FABIANO SOARES PORTILHO ANALISTA DO MP JUIZ DE FORA - COMARCA; GAECO REGIONAL DA ZONA DA MATA-JUIZ DE FORA 15.659,55 3.131,91 0,00 0,00 0,00 0,00 0,00 1.717,00 20.508,46 2.799,85 3.528,33 0,00 0,00 6.328,18 14.180,28 30/04/2022
953 442600 FABIO CARVALHO VIEIRA ANALISTA DO MP MONTES CLAROS - COMARCA; MONTES CLAROS-PJ-06PJ 11.008,33 2.201,67 0,00 0,00 0,00 0,00 0,00 1.717,00 14.927,00 1.906,81 2.239,02 0,00 0,00 4.145,83 10.781,17 30/04/2022
954 716600 FABIO DAMASCENA MONTEIRO DE CARVALHO ASSESSOR PROMOTOR JUSTICA JACINTO - COMARCA; JACINTO-PJ-UNPJ 0,00 0,00 7.857,77 0,00 0,00 0,00 0,00 1.717,00 9.574,77 828,38 1.393,17 0,00 0,00 2.221,55 7.353,22 30/04/2022
955 702700 FABIO JUNIOR COSTA BARREIROS ASSESSOR BELO HORIZONTE - COMARCA; DIVISAO DE MANUTENCAO PREDIAL 0,00 0,00 3.363,05 0,00 0,00 0,00 0,00 2.602,30 5.965,35 474,72 201,27 0,00 0,00 675,99 5.289,36 30/04/2022
956 240101 FABIO JUNQUEIRA DE ASSIS FONSECA OFICIAL DO MP BELO HORIZONTE - COMARCA; BH-17PJ PATRIMONIO PUBLICO-SECRETARIA 9.223,00 2.766,90 0,00 0,00 0,00 0,00 0,00 1.717,00 13.706,90 1.711,60 1.957,17 0,00 0,00 3.668,77 10.038,13 30/04/2022
957 271500 FABIO LUIZ VIEIRA OFICIAL DO MP SANTA VITÓRIA - COMARCA; SANTA VITORIA-PJ-UNPJ 11.008,33 3.302,50 0,00 0,00 0,00 0,00 0,00 1.735,00 16.045,83 2.082,95 2.389,03 0,00 0,00 4.471,98 11.573,85 30/04/2022
958 213100 FABIO PRATES GONCALVES ASSESSOR BELO HORIZONTE - COMARCA; DIR RELACOES INSTITUCIONAIS 0,00 4.546,72 11.366,79 0,00 0,00 0,00 525,15 7.445,86 23.884,52 828,38 3.452,09 0,00 0,00 4.280,47 19.604,05 30/04/2022
959 436700 FABIO SANTIAGO DE CARVALHO OFICIAL DO MP POÇO FUNDO - COMARCA; POCO FUNDO-PJ-UNPJ 9.684,23 1.936,85 0,00 0,00 0,00 0,00 0,00 1.717,00 13.338,08 1.652,59 1.871,98 0,00 0,00 3.524,57 9.813,51 30/04/2022
960 208400 FABIOLA DE SOUSA CARDOSO ASSESSOR/ANALISTA BELO HORIZONTE - COMARCA; CGMP-ASSESSORIA JURIDICA 20.574,59 8.229,84 2.755,20 0,00 0,00 0,00 462,87 6.766,54 38.789,04 4.401,92 6.599,01 0,00 0,00 11.000,93 27.788,11 30/04/2022
961 392200 FABIOLA LEROY COSTA ANALISTA DO MP ESMERALDAS - COMARCA; ESMERALDAS-PJ-01PJ 11.008,33 2.201,67 0,00 0,00 4.403,33 0,00 0,00 3.487,60 21.100,93 1.906,81 3.449,93 0,00 0,00 5.356,74 15.744,19 30/04/2022
962 409000 FABIOLA MONTEIRO DE CARVALHO CASTRO ANALISTA DO MP BOM SUCESSO - COMARCA; BOM SUCESSO-PJ-UNPJ 13.341,69 2.668,34 0,00 0,00 0,00 0,00 0,00 1.717,00 17.727,03 2.354,82 2.885,82 0,00 0,00 5.240,64 12.486,39 30/04/2022
963 525800 FABRICIA ALVES DANTAS OFICIAL DO MP MONTES CLAROS - COMARCA; MONTES CLAROS-PJ-01PJ 8.377,76 1.675,55 0,00 0,00 0,00 0,00 862,35 1.985,09 12.900,75 1.535,79 1.651,21 0,00 0,00 3.187,00 9.713,75 30/04/2022
964 263400 FABRICIA PINTO TEIXEIRA SANTIAGO OFICIAL DO MP BELO HORIZONTE - COMARCA; CAO-FUNDACOES-SECRETARIA 14.224,47 4.267,34 0,00 0,00 0,00 0,00 67,80 2.456,67 21.016,28 2.751,90 3.354,84 0,00 0,00 6.106,74 14.909,54 30/04/2022
965 420800 FABRICIO BERNARDES DE OLIVEIRA OFICIAL DO MP ITURAMA - COMARCA; ITURAMA-PJ-02PJ 9.684,23 1.936,85 0,00 0,00 0,00 0,00 0,00 1.717,00 13.338,08 1.652,59 1.819,84 0,00 0,00 3.472,43 9.865,65 30/04/2022
966 474000 FABRICIO DE FREITAS SALES ANALISTA DO MP MONTES CLAROS - COMARCA; COORD REG PATRI PUB ORD TRIB-NORTE MINAS 11.008,33 2.201,67 0,00 0,00 0,00 0,00 0,00 1.717,00 14.927,00 1.906,81 2.239,02 0,00 0,00 4.145,83 10.781,17 30/04/2022
967 510100 FABRICIO FURTADO ASSIS DO CARMO ANALISTA DO MP BELO HORIZONTE - COMARCA; SERVICO MEDICO-DEPTO PERIC MEDICA SAUDE OCUP 11.008,33 2.201,67 0,00 0,00 4.754,44 0,00 1.053,33 3.487,60 22.505,37 1.906,81 3.836,15 0,00 0,00 5.742,96 16.762,41 30/04/2022
968 519600 FABRICIO GONTIJO SALVATI ANALISTA DO MP JUIZ DE FORA - COMARCA; JUIZ DE FORA-CAO ESPECIALIZADO-SECRETARIA 11.008,33 2.201,67 0,00 0,00 0,00 0,00 0,00 1.717,00 14.927,00 1.906,81 2.239,02 0,00 0,00 4.145,83 10.781,17 30/04/2022
969 637400 FABRICIO HENRIQUE DA SILVA PASSOS ASSESSOR/ANALISTA BELO HORIZONTE - COMARCA; DIR CRIACAO E MIDIAS 0,00 1.136,68 11.366,79 0,00 -3.812,42 0,00 0,00 1.717,00 10.408,05 1.730,68 1.044,74 0,00 0,00 2.775,42 7.632,63 30/04/2022
970 428200 FABRICIO ORZIL VIANA ANALISTA DO MP SANTA LUZIA - COMARCA; SANTA LUZIA-PJ-04PJ 11.008,33 2.201,67 0,00 0,00 0,00 0,00 0,00 1.717,00 14.927,00 1.906,81 2.239,02 0,00 0,00 4.145,83 10.781,17 30/04/2022
971 455600 FABRICIO PAIVA DA ROCHA ANALISTA DO MP SÃO JOÃO DEL REI - COMARCA; SAO JOAO DEL REI-PJ-06PJ 11.008,33 2.201,67 0,00 0,00 0,00 0,00 0,00 2.602,30 15.812,30 1.906,81 2.186,88 0,00 0,00 4.093,69 11.718,61 30/04/2022
972 511500 FABRICIO RENE CARDOSO DE PADUA ANALISTA DO MP SÃO SEBASTIÃO DO PARAÍSO - COMARCA; SAO SEBASTIAO DO PARAISO-PJ-03PJ 11.008,33 2.201,67 0,00 0,00 4.403,33 0,00 532,80 7.529,40 25.675,53 1.906,81 3.449,93 0,00 0,00 5.356,74 20.318,79 30/04/2022
973 496100 FABRICIO RESENDE GONCALVES OFICIAL DO MP ENTRE-RIOS DE MINAS - COMARCA; ENTRE RIOS DE MINAS-PJ-UNPJ 8.377,76 1.675,55 0,00 0,00 0,00 0,00 0,00 2.602,30 12.655,61 1.401,74 1.509,82 0,00 0,00 2.911,56 9.744,05 30/04/2022
974 650300 FABRICIO ROBERTO AZEVEDO OFICIAL DO MP NOVA SERRANA - COMARCA; NOVA SERRANA-PJ-04PJ 5.266,66 526,67 0,00 0,00 0,00 0,00 0,00 1.717,00 7.510,33 729,60 523,17 0,00 0,00 1.252,77 6.257,56 30/04/2022
975 514900 FADUA MARIA DRUMOND CHEQUER ANALISTA DO MP BETIM - COMARCA; BETIM-PJ-12PJ 11.008,33 2.201,67 0,00 0,00 0,00 0,00 48,44 2.245,40 15.503,84 1.906,81 2.134,74 0,00 0,00 4.041,55 11.462,29 30/04/2022
976 282500 FANNY FERREIRA MELO OFICIAL DO MP ARAXÁ - COMARCA; ARAXA-PJ-03PJ 11.008,33 3.302,50 0,00 0,00 0,00 0,00 2.833,50 1.717,00 18.861,33 2.082,95 3.272,52 0,00 0,00 5.355,47 13.505,86 30/04/2022
977 692500 FARID JUNIOR NUNES DA SILVA ASSESSOR PROCURADOR JUSTICA BELO HORIZONTE - COMARCA; GABINETE DE PROCURADOR DE JUSTIÇA - SALA 902 0,00 0,00 7.857,77 0,00 0,00 0,00 0,00 1.717,00 9.574,77 828,38 1.288,90 0,00 0,00 2.117,28 7.457,49 30/04/2022
978 540100 FATIMA CRISTINA POVOA DA COSTA COORDENADOR/OFICIAL BELO HORIZONTE - COMARCA; BH-18PJ VIOLENCIA DOMESTICA-SECRETARIA 0,00 3.876,29 12.920,95 0,00 0,00 1.277,87 0,00 1.717,00 19.792,11 1.277,87 3.749,88 0,00 0,00 5.027,75 14.764,36 30/04/2022
979 382800 FATIMA DE OLIVEIRA COELHO E SILVA ASSESSOR/OFICIAL BELO HORIZONTE - COMARCA; DIRETORIA DE ADMINISTRACAO FINANCEIRA 0,00 3.410,04 11.366,79 0,00 0,00 0,00 0,00 1.717,00 16.493,83 1.807,53 2.645,06 0,00 0,00 4.452,59 12.041,24 30/04/2022
980 398601 FELIPE ANTONIO HORTA DE PAULA ANALISTA DO MP BELO HORIZONTE - COMARCA; PROC. JUSTICA DIR. DIFUSOS E COLETIVOS-SEC 10.325,15 1.032,52 0,00 0,00 0,00 0,00 0,00 1.717,00 13.074,67 1.610,44 1.811,13 0,00 0,00 3.421,57 9.653,10 30/04/2022
981 430900 FELIPE BOY VIEIRA ANALISTA DO MP BELO HORIZONTE - COMARCA; DIRETORIA DE SEGURANCA 13.776,02 2.755,20 0,00 0,00 0,00 0,00 0,00 1.717,00 18.248,22 927,17 3.226,97 0,00 0,00 4.154,14 14.094,08 30/04/2022
982 631700 FELIPE DE MORAIS SIMOES COELHO ANALISTA DO MP BELO HORIZONTE - COMARCA; BH-18PJ VIOLENCIA DOMESTICA-SECRETARIA 9.223,00 922,30 0,00 0,00 0,00 0,00 0,00 1.717,00 11.862,30 1.416,46 1.531,07 0,00 0,00 2.947,53 8.914,77 30/04/2022
983 549100 FELIPE FERNANDES ALVIM ANALISTA DO MP LAJINHA - COMARCA; LAJINHA-PJ-UNPJ 10.325,15 1.032,52 0,00 0,00 0,00 0,00 0,00 2.602,30 13.959,97 1.610,44 1.811,13 0,00 0,00 3.421,57 10.538,40 30/04/2022
984 693100 FELIPE FROIS DO AMARAL ASSESSOR PROMOTOR JUSTICA RIBEIRÃO DAS NEVES - COMARCA; RIBEIRAO NEVES-SEC PJ EXECUCAO PENAL 0,00 0,00 7.857,77 0,00 0,00 0,00 0,00 1.717,00 9.574,77 828,38 1.288,90 0,00 0,00 2.117,28 7.457,49 30/04/2022
985 620100 FELIPE GOMES DE AZEVEDO ASSESSOR/OFICIAL BELO HORIZONTE - COMARCA; DIVISAO DE SERVICOS 0,00 893,22 8.932,15 0,00 0,00 0,00 0,00 1.717,00 11.542,37 832,79 1.603,60 0,00 0,00 2.436,39 9.105,98 30/04/2022
986 601600 FELIPE RODRIGUES DE SIQUEIRA ANALISTA DO MP BELO HORIZONTE - COMARCA; BH-02PJ FAMILIA-SECRETARIA 10.325,15 1.032,52 0,00 0,00 0,00 0,00 0,00 1.717,00 13.074,67 927,17 1.510,99 0,00 0,00 2.438,16 10.636,51 30/04/2022
987 628900 FELIX FERNANDO JUNIO VIEIRA ANALISTA DO MP BELO HORIZONTE - COMARCA; BH-21PJ TUTELA DAS FUNDACOES-ASS CURADORES 9.999,62 999,96 0,00 0,00 0,00 0,00 0,00 1.717,00 12.716,58 1.553,15 1.624,13 0,00 0,00 3.177,28 9.539,30 30/04/2022
988 544500 FELLIPE LEMOS MARCONDES BUENO ANALISTA DO MP SÃO SEBASTIÃO DO PARAÍSO - COMARCA; SAO SEBASTIAO DO PARAISO-PJ-04PJ 11.008,33 1.100,83 0,00 0,00 0,00 0,00 0,00 1.717,00 13.826,16 1.730,68 1.984,72 0,00 0,00 3.715,40 10.110,76 30/04/2022
989 688500 FELLIPE TADEU DE ANDRADE RAMOS ASSESSOR PROCURADOR JUSTICA BELO HORIZONTE - COMARCA; GABINETE DE PROCURADOR DE JUSTIÇA - SALA 907 0,00 0,00 7.857,77 0,00 0,00 0,00 0,00 1.717,00 9.574,77 828,38 1.393,17 0,00 0,00 2.221,55 7.353,22 30/04/2022
990 612600 FERNANDA ADRIANA DE PAULA GUIDO ANALISTA DO MP PARACATU - COMARCA; PARACATU-PJ-02PJ 10.325,15 1.032,52 0,00 0,00 0,00 0,00 0,00 2.602,30 13.959,97 1.610,44 1.811,13 0,00 0,00 3.421,57 10.538,40 30/04/2022
991 508400 FERNANDA AGANETTI MATTOS DE OLIVEIRA ANALISTA DO MP BELO HORIZONTE - COMARCA; SUPER DE GESTAO DE PESSOAS-LOTACAO TEMPORARIA 11.008,33 2.201,67 0,00 0,00 0,00 0,00 0,00 3.487,60 16.697,60 927,17 2.508,42 0,00 0,00 3.435,59 13.262,01 30/04/2022
992 453600 FERNANDA ALBERNAZ RABELO ANALISTA DO MP BELO HORIZONTE - COMARCA; GABINETE DE PROCURADOR DE JUSTIÇA - SALA 616 11.008,33 2.201,67 0,00 0,00 0,00 0,00 0,00 2.602,30 15.812,30 1.906,81 2.239,02 0,00 0,00 4.145,83 11.666,47 30/04/2022
993 255600 FERNANDA ALINA DE ALMEIDA ANDRADE OFICIAL DO MP BELO HORIZONTE - COMARCA; DIRETORIA DE INTELIGENCIA 11.008,33 3.302,50 0,00 0,00 0,00 0,00 0,00 1.717,00 16.027,83 2.082,95 2.493,31 0,00 0,00 4.576,26 11.451,57 30/04/2022
994 443200 FERNANDA ALMEIDA LOPES ANALISTA DO MP CONTAGEM - COMARCA; CONTAGEM-PJ-10PJ 14.224,47 2.844,89 0,00 0,00 0,00 0,00 0,00 3.487,60 20.556,96 2.524,31 3.026,25 0,00 0,00 5.550,56 15.006,40 30/04/2022
995 281100 FERNANDA ANANIAS MEIRA ANALISTA DO MP BELO HORIZONTE - COMARCA; BH-23PJ INFRACIONAL-ASS JURIDICA 19.037,29 5.711,19 0,00 0,00 0,00 0,00 5.635,59 7.656,64 38.040,71 4.567,55 6.080,45 0,00 0,00 10.648,00 27.392,71 30/04/2022
996 539000 FERNANDA BARBOSA ALVES ANALISTA DO MP UBERABA - COMARCA; UBERABA-PJ-04PJ 11.008,33 1.100,83 0,00 0,00 0,00 0,00 0,00 2.602,30 14.711,46 1.730,68 1.984,72 0,00 0,00 3.715,40 10.996,06 30/04/2022
997 451200 FERNANDA BLOISE PRADO OFICIAL DO MP BELO HORIZONTE - COMARCA; BH-12PJ JUIZO CRIMINAL-SECRETARIA 9.223,00 1.844,60 0,00 0,00 0,00 0,00 0,00 1.717,00 12.784,60 1.564,03 1.744,12 0,00 0,00 3.308,15 9.476,45 30/04/2022
998 427900 FERNANDA BRAGA CARNEIRO BICALHO ANALISTA DO MP PEÇANHA - COMARCA; PECANHA-PJ-SECRETARIA 11.008,33 2.201,67 0,00 0,00 0,00 0,00 0,00 2.602,30 15.812,30 1.906,81 2.186,88 0,00 0,00 4.093,69 11.718,61 30/04/2022
999 507100 FERNANDA CABRINI VAZ MOTA ANALISTA DO MP BELO HORIZONTE - COMARCA; DIVISAO DE MATERIAIS 11.008,33 2.201,67 0,00 0,00 0,00 0,00 0,00 3.487,60 16.697,60 927,17 2.382,14 0,00 0,00 3.309,31 13.388,29 30/04/2022
1000 259800 FERNANDA CALZAVARA DE SOUSA COORDENADOR/OFICIAL BELO HORIZONTE - COMARCA; DIRET DE INFORMACAO E CONHECIMENTO-DINC/CEAF 14.224,47 4.267,34 2.937,52 0,00 0,00 0,00 0,00 2.602,30 24.031,63 2.751,90 4.214,80 0,00 0,00 6.966,70 17.064,93 30/04/2022
1001 494400 FERNANDA CAMPOS BARATA OFICIAL DO MP JUIZ DE FORA - COMARCA; JUIZ DE FORA-PJ-08PJ 6.694,66 1.338,93 0,00 0,00 0,00 0,00 0,00 1.717,00 9.750,59 1.078,59 1.043,27 0,00 0,00 2.121,86 7.628,73 30/04/2022
1002 555600 FERNANDA CAROLINE RIBEIRO ANALISTA DO MP BELO HORIZONTE - COMARCA; DIRETORIA GESTAO CONTRATOS CONVENIOS 10.325,15 1.032,52 0,00 0,00 3.785,89 0,00 0,00 1.717,00 16.860,56 1.610,44 2.852,25 0,00 0,00 4.462,69 12.397,87 30/04/2022
1003 692000 FERNANDA CESAR SILVA ASSESSOR PROCURADOR JUSTICA BELO HORIZONTE - COMARCA; GABINETE DE PROCURADOR DE JUSTIÇA - SALA 809 0,00 0,00 7.857,77 0,00 0,00 0,00 0,00 1.717,00 9.574,77 828,38 1.393,17 0,00 0,00 2.221,55 7.353,22 30/04/2022
1004 294500 FERNANDA COSTA FLORES OFICIAL DO MP PARÁ DE MINAS - COMARCA; PARA DE MINAS-PJ-04PJ 11.008,33 3.302,50 0,00 0,00 0,00 0,00 0,00 1.717,00 16.027,83 2.082,95 2.493,31 0,00 0,00 4.576,26 11.451,57 30/04/2022
1005 344500 FERNANDA CRISTINA DE SOUZA PAZ ASSESSOR BELO HORIZONTE - COMARCA; CENTRAL DE APOIO TECN-SETOR DE MEIO AMBIENTE 0,00 0,00 5.615,13 0,00 0,00 0,00 0,00 1.717,00 7.332,13 790,01 682,72 0,00 0,00 1.472,73 5.859,40 30/04/2022
1006 538100 FERNANDA CRISTINA DOS SANTOS ROSA OFICIAL DO MP RIBEIRÃO DAS NEVES - COMARCA; RIBEIRAO DAS NEVES-PJ-09PJ 6.694,66 2.008,40 0,00 0,00 0,00 0,00 0,00 1.717,00 10.420,06 1.185,70 1.197,91 0,00 0,00 2.383,61 8.036,45 30/04/2022
1007 337800 FERNANDA CRISTINA ROLAND CLIMACO MENDES COORDENADOR/OFICIAL BELO HORIZONTE - COMARCA; DIRETORIA DE PAGAMENTO DE PESSOAL-DPAG 13.341,69 4.002,51 2.937,52 0,00 0,00 0,00 74,37 2.528,27 22.884,36 2.568,29 4.001,83 0,00 0,00 6.570,12 16.314,24 30/04/2022
1008 545400 FERNANDA CUNHA GUIMARAES ANALISTA DO MP CAPINÓPOLIS - COMARCA; CAO-CIVEL 11.008,33 1.100,83 0,00 0,00 0,00 0,00 0,00 1.717,00 13.826,16 1.730,68 1.984,72 0,00 0,00 3.715,40 10.110,76 30/04/2022
1009 429801 FERNANDA CUNHA PINHEIRO DA SILVA ANALISTA DO MP BELO HORIZONTE - COMARCA; ASSESSORIA DE COMUNICACAO INTEGRADA 11.008,33 2.201,67 0,00 0,00 0,00 0,00 532,80 7.529,40 21.272,20 1.906,81 2.134,74 0,00 0,00 4.041,55 17.230,65 30/04/2022
1010 408000 FERNANDA DAS NEVES RAMOS ANALISTA DO MP BELO HORIZONTE - COMARCA; FEPDC-SECRETARIA EXECUTIVA 15.659,55 3.131,91 0,00 0,00 0,00 0,00 68,90 3.353,96 22.214,32 2.799,85 3.528,33 0,00 0,00 6.328,18 15.886,14 30/04/2022
1011 496000 FERNANDA DE ALMEIDA VIANA ANALISTA DO MP BELO HORIZONTE - COMARCA; PROC JUST ATUACAO TRIBUNAIS SUPERIORES-GAB002 11.008,33 2.201,67 0,00 0,00 0,00 0,00 0,00 3.487,60 16.697,60 1.906,81 2.134,74 0,00 0,00 4.041,55 12.656,05 30/04/2022
1012 266700 FERNANDA DE CASTRO LUCAS COORDENADOR/OFICIAL BELO HORIZONTE - COMARCA; DIRET DE DESENV DE RECURSOS HUMANOS-DDRH 14.224,47 4.267,34 2.937,52 0,00 0,00 0,00 314,30 6.030,99 27.774,62 2.751,90 4.214,80 0,00 0,00 6.966,70 20.807,92 30/04/2022
1013 433200 FERNANDA DE FIGUEIREDO NORTE ANALISTA DO MP BELO HORIZONTE - COMARCA; ASSESS JUR DO CONS SUPERIOR DO MINISTERIO PUB 15.659,55 3.131,91 0,00 0,00 0,00 0,00 0,00 1.717,00 20.508,46 2.799,85 3.424,06 0,00 0,00 6.223,91 14.284,55 30/04/2022
1014 419200 FERNANDA DE MIRANDA MARTINS SIMOES ANALISTA DO MP UBERLÂNDIA - COMARCA; UBERLANDIA-PJ-17PJ 15.659,55 3.131,91 0,00 0,00 0,00 0,00 68,90 3.353,96 22.214,32 2.799,85 3.528,33 0,00 0,00 6.328,18 15.886,14 30/04/2022
1015 441400 FERNANDA DE MORAIS PINTO ANALISTA DO MP BELO HORIZONTE - COMARCA; PROC. JUSTICA DIR. DIFUSOS E COLETIVOS-SEC 14.224,47 2.844,89 0,00 0,00 0,00 0,00 0,00 1.717,00 18.786,36 2.524,31 3.130,53 0,00 0,00 5.654,84 13.131,52 30/04/2022
1016 432200 FERNANDA DE MOURA GUIMARAES ANALISTA DO MP BELO HORIZONTE - COMARCA; BH-26 CRIME CONT CRIAN ADOL-SECRETARIA 14.224,47 2.844,89 0,00 0,00 0,00 0,00 0,00 1.717,00 18.786,36 2.524,31 3.130,53 0,00 0,00 5.654,84 13.131,52 30/04/2022
1017 461800 FERNANDA DE OLIVEIRA SANTOS ANALISTA DO MP JUIZ DE FORA - COMARCA; JUIZ DE FORA-PJ-21PJ 12.118,97 2.423,79 0,00 0,00 0,00 0,00 0,00 2.602,30 17.145,06 2.120,06 2.546,88 0,00 0,00 4.666,94 12.478,12 30/04/2022
1018 432500 FERNANDA DE PAULA PINTO ANALISTA DO MP BELO HORIZONTE - COMARCA; PROC JUST ATUACAO TRIBUNAIS SUPERIORES-GAB003 14.224,47 2.844,89 0,00 0,00 5.689,79 0,00 500,70 8.064,50 31.324,35 2.524,31 4.695,22 0,00 0,00 7.219,53 24.104,82 30/04/2022
1019 431600 FERNANDA DIAS BARBOSA PEREIRA ANALISTA DO MP BELO HORIZONTE - COMARCA; BH-02PJ FAMILIA-SECRETARIA 14.224,47 2.844,89 0,00 0,00 0,00 0,00 0,00 2.602,30 19.671,66 2.524,31 3.026,25 0,00 0,00 5.550,56 14.121,10 30/04/2022
1020 162200 FERNANDA FERNANDES MONTEIRO ASSESSOR BELO HORIZONTE - COMARCA; BH-12PJ JUIZO CRIMINAL-SECRETARIA 0,00 2.246,05 5.615,13 0,00 0,00 0,00 0,00 1.717,00 9.578,18 828,38 1.341,97 0,00 0,00 2.170,35 7.407,83 30/04/2022
1021 512800 FERNANDA FERREIRA BARBOSA MOREIRA ANALISTA DO MP IPATINGA - COMARCA; IPATINGA-PJ-05PJ 11.008,33 2.201,67 0,00 0,00 0,00 0,00 0,00 2.602,30 15.812,30 927,17 2.382,14 0,00 0,00 3.309,31 12.502,99 30/04/2022
1022 329200 FERNANDA GABRIEL GUZELLA OFICIAL DO MP BELO HORIZONTE - COMARCA; DIRET DE PLANOS PROJETOS E PROGRAMAS INST 11.008,33 3.302,50 0,00 0,00 0,00 0,00 0,00 1.717,00 16.027,83 2.082,95 2.493,31 0,00 0,00 4.576,26 11.451,57 30/04/2022
1023 324200 FERNANDA GEORGIA NEVES ZAHAN OFICIAL DO MP IPANEMA - COMARCA; IPANEMA-PJ-01PJ 9.223,00 6.456,10 0,00 0,00 5.226,37 0,00 0,00 1.717,00 22.622,47 2.301,87 4.246,63 0,00 0,00 6.548,50 16.073,97 30/04/2022
1024 548200 FERNANDA GONCALVES DE CARVALHO ZUZA OFICIAL DO MP TUPACIGUARA - COMARCA; TUPACIGUARA-PJ-01PJ 6.694,66 669,47 0,00 0,00 0,00 0,00 0,00 1.717,00 9.081,13 971,47 888,62 0,00 0,00 1.860,09 7.221,04 30/04/2022
1025 355400 FERNANDA HELENA BASQUES OFICIAL DO MP SABARÁ - COMARCA; SABARA-PJ-01PJ 11.008,33 3.302,50 0,00 0,00 0,00 0,00 0,00 1.717,00 16.027,83 2.082,95 2.493,31 0,00 0,00 4.576,26 11.451,57 30/04/2022
1026 454800 FERNANDA IATAROLA BARBOSA DIAS ANALISTA DO MP BARBACENA - COMARCA; BARBACENA-PJ-05PJ 12.118,97 2.423,79 0,00 0,00 0,00 0,00 0,00 1.717,00 16.259,76 2.120,06 2.494,75 0,00 0,00 4.614,81 11.644,95 30/04/2022
1027 515500 FERNANDA LILIANE MARUGEIRO ANALISTA DO MP LAGOA SANTA - COMARCA; LAGOA SANTA-PJ-01PJ 11.008,33 2.201,67 0,00 0,00 0,00 0,00 0,00 3.487,60 16.697,60 1.906,81 2.186,88 0,00 0,00 4.093,69 12.603,91 30/04/2022
1028 392900 FERNANDA MAGALHAES SILVA ANALISTA DO MP BELO HORIZONTE - COMARCA; DIR CONTEUDO JORNALISTICO 16.169,47 3.233,89 0,00 0,00 6.467,79 0,00 71,15 2.493,13 28.435,43 2.897,75 5.448,32 0,00 0,00 8.346,07 20.089,36 30/04/2022
1029 409200 FERNANDA MAIA SANTIAGO CARDOSO ANALISTA DO MP PIRAPORA - COMARCA; PIRAPORA-PJ-02PJ 11.008,33 2.201,67 0,00 0,00 0,00 0,00 0,00 2.602,30 15.812,30 1.906,81 2.239,02 0,00 0,00 4.145,83 11.666,47 30/04/2022
1030 714100 FERNANDA MELO FIORENZANO REIS ASSESSOR BELO HORIZONTE - COMARCA; DIR CONTEUDO JORNALISTICO 0,00 0,00 11.366,79 0,00 0,00 0,00 0,00 1.717,00 13.083,79 828,38 2.358,15 0,00 0,00 3.186,53 9.897,26 30/04/2022
1031 556500 FERNANDA OTERO COSTA ANALISTA DO MP BELO HORIZONTE - COMARCA; ASSESS TECNICO-JUR JUNTO AS PROC. DE JUST 11.008,33 1.100,83 0,00 0,00 0,00 0,00 0,00 1.717,00 13.826,16 927,17 2.102,11 0,00 0,00 3.029,28 10.796,88 30/04/2022
1032 615300 FERNANDA PATRICIA RIBEIRO MOTA OFICIAL DO MP UBERABA - COMARCA; UBERABA-PJ-05PJ 6.483,63 648,36 0,00 0,00 2.377,33 0,00 0,00 1.717,00 11.226,32 927,17 1.489,81 0,00 0,00 2.416,98 8.809,34 30/04/2022
1033 619800 FERNANDA PINTO PEREIRA ANALISTA DO MP UBERLÂNDIA - COMARCA; UBERLANDIA-PJ-20PJ 9.999,62 999,96 0,00 0,00 0,00 0,00 40,33 3.927,58 14.967,49 1.553,15 1.676,27 0,00 0,00 3.229,42 11.738,07 30/04/2022
1034 412900 FERNANDA PORTELA ROSA ANALISTA DO MP BELO HORIZONTE - COMARCA; BH-08PJ JUIZADO ESPECIAL-SECRETARIA 15.659,55 3.131,91 0,00 0,00 0,00 0,00 68,90 3.353,96 22.214,32 2.799,85 3.528,33 0,00 0,00 6.328,18 15.886,14 30/04/2022
1035 274301 FERNANDA QUEIROZ PARREIRA ANALISTA DO MP PATOS DE MINAS - COMARCA; GAECO REGIONAL DE PATOS DE MINAS 11.008,33 2.201,67 0,00 0,00 0,00 0,00 0,00 1.717,00 14.927,00 1.906,81 2.239,02 0,00 0,00 4.145,83 10.781,17 30/04/2022
1036 467900 FERNANDA QUEIROZ SIMOES GANNAM ANALISTA DO MP SÃO LOURENÇO - COMARCA; SAO LOURENCO-PJ-02PJ 12.118,97 2.423,79 0,00 0,00 0,00 0,00 0,00 1.717,00 16.259,76 2.120,06 2.494,75 0,00 0,00 4.614,81 11.644,95 30/04/2022
1037 681001 FERNANDA ROCHA DE MATOS TEIXEIRA ASSESSOR PROMOTOR JUSTICA BELO VALE - COMARCA; BELO VALE-PJ-UNPJ 0,00 0,00 7.857,77 0,00 0,00 0,00 0,00 2.602,30 10.460,07 828,38 1.341,04 0,00 0,00 2.169,42 8.290,65 30/04/2022
1038 255500 FERNANDA SIMOES LOPES MENDES ANALISTA DO MP BELO HORIZONTE - COMARCA; BH-17PJ PATRIMONIO PUBLICO-SECRETARIA 20.574,59 6.172,38 0,00 0,00 0,00 0,00 0,00 1.717,00 28.463,97 4.072,73 5.261,78 0,00 0,00 9.334,51 19.129,46 30/04/2022
1039 708700 FERNANDA TIAGO BOLINA ASSESSOR PROMOTOR JUSTICA IGUATAMA - COMARCA; IGUATAMA-PJ-UNPJ 0,00 0,00 7.857,77 0,00 0,00 0,00 0,00 1.717,00 9.574,77 828,38 1.393,17 0,00 0,00 2.221,55 7.353,22 30/04/2022
1040 481700 FERNANDA VIANA FROES DA SILVA OFICIAL DO MP GOVERNADOR VALADARES - COMARCA; GOVERNADOR VALADARES-PJ-09PJ 8.650,50 1.730,10 0,00 0,00 0,00 0,00 0,00 1.717,00 12.097,60 1.454,11 1.585,42 0,00 0,00 3.039,53 9.058,07 30/04/2022
1041 123900 FERNANDO ANTONIO FARIA DE ABREU ANALISTA DO MP BELO HORIZONTE - COMARCA; SUPERINTENDÊNCIA DE ENGENHARIA E ARQUITETURA 28.939,02 26.045,12 0,00 0,00 0,00 5.467,17 520,11 7.390,95 68.362,37 5.467,17 8.882,75 19.521,92 0,00 33.871,84 34.490,53 30/04/2022
1042 416900 FERNANDO APARECIDO DA SILVA ANALISTA DO MP BOM DESPACHO - COMARCA; BOM DESPACHO-PJ-02PJ 14.224,47 9.957,14 0,00 0,00 0,00 0,00 532,00 7.520,59 32.234,20 3.662,27 4.669,18 0,00 0,00 8.331,45 23.902,75 30/04/2022
1043 500100 FERNANDO CEZAR PINTO OFICIAL DO MP SANTA LUZIA - COMARCA; SANTA LUZIA-PJ-04PJ 8.650,50 1.730,10 0,00 0,00 0,00 0,00 0,00 1.717,00 12.097,60 1.454,11 1.533,29 0,00 0,00 2.987,40 9.110,20 30/04/2022
1044 346100 FERNANDO EUSTAQUIO CAMPOS UTSCH MOREIRA ANALISTA DO MP BELO HORIZONTE - COMARCA; DIRETORIA DE SISTEMAS DE INFORMACAO 18.312,36 5.493,71 0,00 0,00 0,00 0,00 523,73 7.430,46 31.760,26 3.602,18 4.582,43 0,00 0,00 8.184,61 23.575,65 30/04/2022
1045 103500 FERNANDO LUIZ DA SILVA JUNIOR OFICIAL DO MP BELO HORIZONTE - COMARCA; DIRET DE INFORMACAO E CONHECIMENTO-DINC/CEAF 20.574,59 10.287,30 0,00 0,00 0,00 0,00 0,00 1.717,00 32.578,89 4.731,12